[[{"header":{"parameterUnit":"m.s-1","parameterCategory":1,"la1":30.6,"la2":28.766,"lo1":-90.7593,"lo2":-88.6598,"dy":0.0162,"dx":0.0183,"nx":116,"ny":114,"refTime":"2023-08-18T12:00:00:Z","depth":0,"parameterNumber":2,"parameterNumberName":"U-component_of_WINDS"},"data":[0.0,0.0,0.0,0.0,0.0,0.0,0.0,0.0,0.0,0.0,0.0,0.0,0.0,0.0,0.0,0.0,0.0,0.0,0.0,0.0,0.0,0.0,0.0,0.0,0.0,0.0,0.0,0.0,0.0,0.0,0.0,0.0,0.0,0.0,0.0,0.0,0.0,0.0,0.0,0.0,0.0,0.0,0.0,0.0,0.0,0.0,0.0,0.0,0.0,0.0,0.0,0.0,0.0,0.0,0.0,0.0,0.0,0.0,0.0,0.0,0.0,0.0,0.0,0.0,0.0,0.0,0.0,0.0,0.0,0.0,0.0,0.0,0.0,0.0,0.0,0.0,0.0,0.0,0.0,0.0,0.0,0.0,0.0,0.0,0.0,0.0,0.0,0.0,0.0,0.0,0.0,0.0,0.0,0.0,0.0,0.0,0.0,0.0,0.0,0.0,0.0,0.0,0.0,0.0,0.0,0.0,0.0,0.0,0.0,0.0,0.0,0.0,0.0,0.0,0.0,0.0,0.0,0.0,0.0,0.0,0.0,0.0,0.0,0.0,0.0,0.0,0.0,0.0,0.0,0.0,0.0,0.0,0.0,0.0,0.0,0.0,0.0,0.0,0.0,0.0,0.0,0.0,0.0,0.0,0.0,0.0,0.0,0.0,0.0,0.0,0.0,0.0,0.0,0.0,0.0,0.0,0.0,0.0,0.0,0.0,0.0,0.0,0.0,0.0,0.0,0.0,0.0,0.0,0.0,0.0,0.0,0.0,0.0,0.0,0.0,0.0,0.0,0.0,0.0,0.0,0.0,0.0,0.0,0.0,0.0,0.0,0.0,0.0,0.0,0.0,0.0,0.0,0.0,0.0,0.0,0.0,0.0,0.0,0.0,0.0,0.0,0.0,0.0,0.0,0.0,0.0,0.0,0.0,0.0,0.0,0.0,0.0,0.0,0.0,0.0,0.0,0.0,0.0,0.0,0.0,0.0,0.0,0.0,0.0,0.0,0.0,0.0,0.0,0.0,0.0,0.0,0.0,0.0,0.0,0.0,0.0,0.0,0.0,0.0,0.0,0.0,0.0,0.0,0.0,0.0,0.0,0.0,0.0,0.0,0.0,0.0,0.0,0.0,0.0,0.0,0.0,0.0,0.0,0.0,0.0,0.0,0.0,0.0,0.0,0.0,0.0,0.0,0.0,0.0,0.0,0.0,0.0,0.0,0.0,0.0,0.0,0.0,0.0,0.0,0.0,0.0,0.0,0.0,0.0,0.0,0.0,0.0,0.0,0.0,0.0,0.0,0.0,0.0,0.0,0.0,0.0,0.0,0.0,0.0,0.0,0.0,0.0,0.0,0.0,0.0,0.0,0.0,0.0,0.0,0.0,0.0,0.0,0.0,0.0,0.0,0.0,0.0,0.0,0.0,0.0,0.0,0.0,0.0,0.0,0.0,0.0,0.0,0.0,0.0,0.0,0.0,0.0,0.0,0.0,0.0,0.0,0.0,0.0,0.0,0.0,0.0,0.0,0.0,0.0,0.0,0.0,0.0,0.0,0.0,0.0,0.0,0.0,0.0,0.0,0.0,0.0,0.0,0.0,0.0,0.0,0.0,0.0,0.0,0.0,0.0,0.0,0.0,0.0,0.0,0.0,0.0,0.0,0.0,0.0,0.0,0.0,0.0,0.0,0.0,0.0,0.0,0.0,0.0,0.0,0.0,0.0,0.0,0.0,0.0,0.0,0.0,0.0,0.0,0.0,0.0,0.0,0.0,0.0,0.0,0.0,0.0,0.0,0.0,0.0,0.0,0.0,0.0,0.0,0.0,0.0,0.0,0.0,0.0,0.0,0.0,0.0,0.0,0.0,0.0,0.0,0.0,0.0,0.0,0.0,0.0,0.0,0.0,0.0,0.0,0.0,0.0,0.0,0.0,0.0,0.0,0.0,0.0,0.0,0.0,0.0,0.0,0.0,0.0,0.0,0.0,0.0,0.0,0.0,0.0,0.0,0.0,0.0,0.0,0.0,0.0,0.0,0.0,0.0,0.0,0.0,0.0,0.0,0.0,0.0,0.0,0.0,0.0,0.0,0.0,0.0,0.0,0.0,0.0,0.0,0.0,0.0,0.0,0.0,0.0,0.0,0.0,0.0,0.0,0.0,0.0,0.0,0.0,0.0,0.0,0.0,0.0,0.0,0.0,0.0,0.0,0.0,0.0,0.0,0.0,0.0,0.0,0.0,0.0,0.0,0.0,0.0,0.0,0.0,0.0,0.0,0.0,0.0,0.0,0.0,0.0,0.0,0.0,0.0,0.0,0.0,0.0,0.0,0.0,0.0,0.0,0.0,0.0,0.0,0.0,0.0,0.0,0.0,0.0,0.0,0.0,0.0,0.0,0.0,0.0,0.0,0.0,0.0,0.0,0.0,0.0,0.0,0.0,0.0,0.0,0.0,0.0,0.0,0.0,0.0,0.0,0.0,0.0,0.0,0.0,0.0,0.0,0.0,0.0,0.0,0.0,0.0,0.0,0.0,0.0,0.0,0.0,0.0,0.0,0.0,0.0,0.0,0.0,0.0,0.0,0.0,0.0,0.0,0.0,0.0,0.0,0.0,0.0,0.0,0.0,0.0,0.0,0.0,0.0,0.0,0.0,0.0,0.0,0.0,0.0,0.0,0.0,0.0,0.0,0.0,0.0,0.0,0.0,0.0,0.0,0.0,0.0,0.0,0.0,0.0,0.0,0.0,0.0,0.0,0.0,0.0,0.0,0.0,0.0,0.0,0.0,0.0,0.0,0.0,0.0,0.0,0.0,0.0,0.0,0.0,0.0,0.0,0.0,0.0,0.0,0.0,0.0,0.0,0.0,0.0,0.0,0.0,0.0,0.0,0.0,0.0,0.0,0.0,0.0,0.0,0.0,0.0,0.0,0.0,0.0,0.0,0.0,0.0,0.0,0.0,0.0,0.0,0.0,0.0,0.0,0.0,0.0,0.0,0.0,0.0,0.0,0.0,0.0,0.0,0.0,0.0,0.0,0.0,0.0,0.0,0.0,0.0,0.0,0.0,0.0,0.0,0.0,0.0,0.0,0.0,0.0,0.0,0.0,0.0,0.0,0.0,0.0,0.0,0.0,0.0,0.0,0.0,0.0,0.0,0.0,0.0,0.0,0.0,0.0,0.0,0.0,0.0,0.0,0.0,0.0,0.0,0.0,0.0,0.0,0.0,0.0,0.0,0.0,0.0,0.0,0.0,0.0,0.0,0.0,0.0,0.0,0.0,0.0,0.0,0.0,0.0,0.0,0.0,0.0,0.0,0.0,0.0,0.0,0.0,0.0,0.0,0.0,0.0,0.0,0.0,0.0,0.0,0.0,0.0,0.0,0.0,0.0,0.0,0.0,0.0,0.0,0.0,0.0,0.0,0.0,0.0,0.0,0.0,0.0,0.0,0.0,0.0,0.0,0.0,0.0,0.0,0.0,0.0,0.0,0.0,0.0,0.0,0.0,0.0,0.0,0.0,0.0,0.0,0.0,0.0,0.0,0.0,0.0,0.0,0.0,0.0,0.0,0.0,0.0,0.0,0.0,0.0,0.0,0.0,0.0,0.0,0.0,0.0,0.0,0.0,0.0,0.0,0.0,0.0,0.0,0.0,0.0,0.0,0.0,0.0,0.0,0.0,0.0,0.0,0.0,0.0,0.0,0.0,0.0,0.0,0.0,0.0,0.0,0.0,0.0,0.0,0.0,0.0,0.0,0.0,0.0,0.0,0.0,0.0,0.0,0.0,0.0,0.0,0.0,0.0,0.0,0.0,0.0,0.0,0.0,0.0,0.0,0.0,0.0,0.0,0.0,0.0,0.0,0.0,0.0,0.0,0.0,0.0,0.0,0.0,0.0,0.0,0.0,0.0,0.0,0.0,0.0,0.0,0.0,0.0,0.0,0.0,0.0,0.0,0.0,0.0,0.0,0.0,0.0,0.0,0.0,0.0,0.0,0.0,0.0,0.0,0.0,0.0,0.0,0.0,0.0,0.0,0.0,0.0,0.0,0.0,0.0,0.0,0.0,0.0,0.0,0.0,0.0,0.0,0.0,0.0,0.0,0.0,0.0,0.0,0.0,0.0,0.0,0.0,0.0,0.0,0.0,0.0,0.0,0.0,0.0,0.0,0.0,0.0,0.0,0.0,0.0,0.0,0.0,0.0,0.0,0.0,0.0,0.0,0.0,0.0,0.0,0.0,0.0,0.0,0.0,0.0,0.0,0.0,0.0,0.0,0.0,0.0,0.0,0.0,0.0,0.0,0.0,0.0,0.0,0.0,0.0,0.0,0.0,0.0,0.0,0.0,0.0,0.0,0.0,0.0,0.0,0.0,0.0,0.0,0.0,0.0,0.0,0.0,0.0,0.0,0.0,0.0,0.0,0.0,0.0,0.0,0.0,0.0,0.0,0.0,0.0,0.0,0.0,0.0,0.0,0.0,0.0,0.0,0.0,0.0,0.0,0.0,0.0,0.0,0.0,0.0,0.0,0.0,0.0,0.0,0.0,0.0,0.0,0.0,0.0,0.0,0.0,0.0,0.0,0.0,0.0,0.0,0.0,0.0,0.0,0.0,0.0,0.0,0.0,0.0,0.0,0.0,0.0,0.0,0.0,0.0,0.0,0.0,0.0,0.0,0.0,0.0,0.0,0.0,0.0,0.0,0.0,0.0,0.0,0.0,0.0,0.0,0.0,0.0,0.0,0.0,0.0,0.0,0.0,0.0,0.0,0.0,0.0,0.0,0.0,0.0,0.0,0.0,0.0,0.0,0.0,0.0,0.0,0.0,0.0,0.0,0.0,0.0,0.0,0.0,0.0,0.0,0.0,0.0,0.0,0.0,0.0,0.0,0.0,0.0,0.0,0.0,0.0,0.0,0.0,0.0,0.0,0.0,0.0,0.0,0.0,0.0,0.0,0.0,0.0,0.0,0.0,0.0,0.0,0.0,0.0,0.0,0.0,0.0,0.0,0.0,0.0,0.0,0.0,0.0,0.0,0.0,0.0,0.0,0.0,0.0,0.0,0.0,0.0,0.0,0.0,0.0,0.0,0.0,0.0,0.0,0.0,0.0,0.0,0.0,0.0,0.0,0.0,0.0,0.0,0.0,0.0,0.0,0.0,0.0,0.0,0.0,0.0,0.0,0.0,0.0,0.0,0.0,0.0,0.0,0.0,0.0,0.0,0.0,0.0,0.0,0.0,0.0,0.0,0.0,0.0,0.0,0.0,0.0,0.0,0.0,0.0,0.0,0.0,0.0,0.0,0.0,0.0,0.0,0.0,0.0,0.0,0.0,0.0,0.0,0.0,0.0,0.0,0.0,0.0,0.0,0.0,0.0,0.0,0.0,0.0,0.0,0.0,0.0,0.0,0.0,0.0,0.0,0.0,0.0,0.0,0.0,0.0,0.0,0.0,0.0,0.0,0.0,0.0,0.0,0.0,0.0,0.0,0.0,0.0,0.0,0.0,0.0,0.0,0.0,0.0,0.0,0.0,0.0,0.0,0.0,0.0,0.0,0.0,0.0,0.0,0.0,0.0,0.0,0.0,0.0,0.0,0.0,0.0,0.0,0.0,0.0,0.0,0.0,0.0,0.0,0.0,0.0,0.0,0.0,0.0,0.0,0.0,0.0,0.0,0.0,0.0,0.0,0.0,0.0,0.0,0.0,0.0,0.0,0.0,0.0,0.0,0.0,0.0,0.0,0.0,0.0,0.0,0.0,0.0,0.0,0.0,0.0,0.0,0.0,0.0,0.0,0.0,0.0,0.0,0.0,0.0,0.0,0.0,0.0,0.0,0.0,0.0,0.0,0.0,0.0,0.0,0.0,0.0,0.0,0.0,0.0,0.0,0.0,0.0,0.0,0.0,0.0,0.0,0.0,0.0,0.0,0.0,0.0,0.0,0.0,0.0,0.0,0.0,0.0,0.0,0.0,0.0,0.0,0.0,0.0,0.0,0.0,0.0,0.0,0.0,0.0,0.0,0.0,0.0,0.0,0.0,0.0,0.0,0.0,0.0,0.0,0.0,0.0,0.0,0.0,0.0,0.0,0.0,0.0,0.0,0.0,0.0,0.0,0.0,0.0,0.0,0.0,0.0,0.0,-4.4426,0.0,0.0,0.0,0.0,0.0,0.0,0.0,0.0,0.0,0.0,0.0,0.0,0.0,0.0,0.0,0.0,0.0,0.0,0.0,0.0,0.0,0.0,0.0,0.0,0.0,0.0,0.0,0.0,0.0,0.0,0.0,0.0,0.0,0.0,0.0,0.0,0.0,0.0,0.0,-4.5715,-4.566,-4.5594,-4.5568,-4.5559,-4.5559,0.0,0.0,0.0,0.0,0.0,0.0,0.0,0.0,0.0,0.0,0.0,0.0,0.0,0.0,0.0,0.0,0.0,0.0,0.0,0.0,0.0,0.0,0.0,0.0,0.0,0.0,0.0,0.0,0.0,0.0,0.0,0.0,0.0,0.0,0.0,0.0,0.0,0.0,0.0,0.0,0.0,0.0,0.0,0.0,0.0,0.0,0.0,0.0,0.0,0.0,0.0,0.0,0.0,0.0,0.0,0.0,0.0,0.0,0.0,0.0,0.0,0.0,0.0,0.0,0.0,0.0,0.0,0.0,0.0,0.0,0.0,-4.4622,0.0,0.0,0.0,0.0,0.0,0.0,0.0,0.0,0.0,0.0,0.0,0.0,0.0,0.0,0.0,0.0,0.0,0.0,0.0,0.0,0.0,0.0,0.0,0.0,-4.4895,-4.4895,-4.4895,0.0,0.0,0.0,0.0,0.0,0.0,0.0,0.0,0.0,0.0,-4.5715,-4.5692,-4.5643,-4.5577,-4.5541,-4.5495,-4.5495,-4.5665,0.0,0.0,0.0,0.0,0.0,0.0,0.0,0.0,0.0,0.0,0.0,0.0,0.0,0.0,0.0,0.0,0.0,0.0,0.0,0.0,0.0,0.0,0.0,0.0,0.0,0.0,0.0,0.0,0.0,0.0,0.0,0.0,0.0,0.0,0.0,0.0,0.0,0.0,0.0,0.0,0.0,0.0,0.0,0.0,0.0,0.0,0.0,0.0,0.0,0.0,0.0,0.0,0.0,0.0,0.0,0.0,0.0,0.0,0.0,0.0,0.0,0.0,0.0,-4.7109,-4.7109,-4.7012,-4.7012,-4.7012,-4.6918,-4.5533,-4.5265,-4.5754,-4.4942,0.0,0.0,0.0,0.0,0.0,0.0,0.0,0.0,0.0,0.0,0.0,0.0,0.0,0.0,0.0,0.0,0.0,0.0,0.0,0.0,0.0,-4.4895,-4.4895,-4.4895,-4.4895,-4.4895,0.0,0.0,0.0,0.0,0.0,0.0,0.0,-4.5723,-4.5805,-4.58,-4.5671,-4.5586,-4.5513,-4.5504,-4.5476,-4.5419,-4.5428,-4.5518,-4.5627,0.0,0.0,0.0,0.0,0.0,0.0,0.0,0.0,0.0,0.0,0.0,0.0,0.0,0.0,0.0,0.0,0.0,0.0,0.0,0.0,0.0,0.0,0.0,0.0,0.0,0.0,0.0,0.0,0.0,0.0,0.0,0.0,0.0,0.0,0.0,0.0,0.0,0.0,0.0,0.0,0.0,-4.1031,-4.1086,0.0,0.0,0.0,0.0,0.0,0.0,0.0,0.0,0.0,0.0,0.0,0.0,0.0,-4.5036,-4.6824,-4.6857,-4.6895,-4.7012,-4.7026,-4.7026,-4.7012,-4.7012,-4.7012,-4.6993,-4.6768,0.0,-4.6724,-4.6581,0.0,0.0,0.0,0.0,0.0,0.0,0.0,0.0,0.0,0.0,0.0,0.0,0.0,0.0,0.0,0.0,0.0,0.0,0.0,0.0,0.0,-4.4821,-4.4802,-4.4802,-4.4725,-4.4712,-4.477,0.0,0.0,0.0,0.0,0.0,-4.5708,-4.5688,-4.5711,-4.5738,-4.5657,-4.5586,-4.5559,-4.5513,-4.5485,-4.5448,-4.5429,-4.5429,-4.55,-4.5518,0.0,0.0,0.0,0.0,0.0,0.0,0.0,0.0,0.0,0.0,0.0,0.0,0.0,0.0,0.0,0.0,0.0,0.0,0.0,0.0,0.0,0.0,0.0,0.0,0.0,0.0,0.0,0.0,0.0,0.0,0.0,0.0,0.0,0.0,0.0,0.0,0.0,0.0,0.0,-4.1448,-4.1555,-4.1104,-4.1852,-4.2173,0.0,0.0,0.0,0.0,0.0,0.0,0.0,0.0,0.0,-4.3782,-4.4257,-4.5289,-4.6978,-4.7443,-4.7913,-4.842,-4.842,-4.842,-4.842,-4.842,-4.842,-4.842,-4.842,-4.8405,-4.8284,-4.7217,-4.6706,-4.6554,0.0,0.0,0.0,0.0,-4.4799,-4.4467,0.0,0.0,0.0,0.0,0.0,0.0,0.0,0.0,0.0,0.0,0.0,0.0,-4.4846,-4.4738,-4.4659,-4.4699,-4.4605,-4.4605,-4.4732,-4.4796,0.0,0.0,0.0,-4.5438,-4.5737,-4.5668,-4.5657,-4.5701,-4.5631,-4.5594,-4.5594,-4.5559,-4.5513,-4.5495,-4.5438,-4.5409,-4.54,-4.54,-4.5494,-4.5637,0.0,0.0,0.0,0.0,0.0,0.0,0.0,0.0,0.0,0.0,0.0,0.0,0.0,0.0,0.0,0.0,0.0,0.0,0.0,0.0,0.0,0.0,0.0,0.0,0.0,0.0,0.0,0.0,0.0,0.0,0.0,0.0,0.0,0.0,0.0,0.0,0.0,-4.2201,-4.2377,-4.1716,-4.273,-4.3185,0.0,0.0,0.0,0.0,0.0,0.0,-4.2504,-4.2422,-4.2833,-4.3876,-4.4496,-4.5622,-4.7293,-4.7894,-4.8626,-4.9509,-4.9509,-4.9509,-4.9509,-4.9509,-4.9509,-4.9509,-4.9509,-4.9509,-4.938,-4.7982,-4.7607,-4.7795,-4.6906,-4.6082,-4.5482,-4.6036,-4.5894,-4.554,0.0,0.0,0.0,0.0,0.0,0.0,0.0,0.0,0.0,0.0,0.0,-4.4712,-4.4712,-4.4592,-4.4551,-4.4699,-4.468,-4.4751,-4.487,-4.508,-4.5181,-4.5213,-4.5457,-4.5588,-4.5613,-4.5665,-4.5703,-4.5701,-4.5631,-4.5594,-4.5594,-4.5614,-4.5568,-4.5504,-4.5495,-4.5458,-4.5408,-4.5408,-4.5418,-4.5438,-4.561,0.0,0.0,0.0,0.0,0.0,0.0,0.0,0.0,0.0,0.0,0.0,0.0,0.0,0.0,0.0,0.0,0.0,0.0,0.0,0.0,0.0,0.0,0.0,0.0,0.0,0.0,0.0,0.0,0.0,0.0,0.0,0.0,0.0,0.0,0.0,0.0,0.0,0.0,-4.3376,-4.3442,0.0,0.0,0.0,0.0,-4.2709,-4.252,-4.2671,-4.3303,-4.3328,-4.403,-4.5528,-4.5622,-4.643,-4.8119,-4.8176,-4.8626,-4.9509,-4.9509,-4.9509,-4.9509,-4.9509,-4.9509,-4.9509,-4.9509,-4.9509,-4.949,-4.9399,-4.8632,-4.7578,-4.8161,-4.7609,-4.6595,-4.727,-4.7216,-4.6809,0.0,0.0,0.0,0.0,0.0,0.0,0.0,0.0,0.0,-4.3599,-4.4279,-4.4719,-4.4808,-4.4632,-4.4551,-4.4699,-4.4619,-4.4632,-4.4757,-4.4833,-4.4967,-4.5192,-4.529,-4.5312,-4.5274,-4.5294,-4.5064,-4.4538,-4.4518,-4.425,-4.3723,-4.3723,-4.3646,-4.3503,-4.346,-4.3428,-4.349,-4.4829,-4.5408,-4.5418,-4.5486,-4.5222,0.0,0.0,0.0,0.0,0.0,0.0,0.0,0.0,0.0,0.0,0.0,0.0,0.0,0.0,0.0,0.0,0.0,0.0,0.0,0.0,0.0,0.0,0.0,0.0,0.0,0.0,0.0,0.0,0.0,0.0,0.0,0.0,0.0,0.0,0.0,0.0,0.0,-4.3569,-4.4453,0.0,-4.4144,-4.4298,-4.4403,-4.4315,-4.3954,-4.3892,-4.4227,-4.4135,-4.4368,-4.4909,-4.5435,-4.5979,-4.658,-4.765,-4.8363,-4.8664,-4.9227,-4.9509,-4.9509,-4.9509,-4.9509,-4.9509,-4.9509,-4.9509,-4.9509,-4.9509,-4.9174,-4.8681,-4.8861,-4.8455,-4.7791,-4.8026,-4.7614,-4.6908,0.0,0.0,0.0,0.0,0.0,0.0,0.0,0.0,-4.2387,-4.2749,-4.3699,-4.4354,-4.4373,-4.4436,-4.4551,-4.4699,-4.4619,-4.4619,-4.4764,-4.4827,-4.496,-4.5192,-4.5194,-4.5084,-4.4851,-4.4762,-4.4362,-4.3618,-4.3541,-4.3214,-4.2689,-4.2629,-4.2533,-4.239,-4.2344,-4.2321,-4.2385,-4.3762,-4.4334,-4.4312,-4.4416,-4.4163,-4.3714,0.0,0.0,0.0,0.0,0.0,0.0,0.0,0.0,0.0,0.0,0.0,0.0,0.0,0.0,0.0,0.0,0.0,0.0,0.0,0.0,0.0,0.0,0.0,0.0,0.0,0.0,0.0,0.0,0.0,0.0,0.0,0.0,0.0,0.0,0.0,-4.4986,-4.4408,-4.5311,-4.5714,-4.5,-4.5161,-4.5246,-4.514,-4.4751,-4.4537,-4.4632,-4.4556,-4.4501,-4.4501,-4.5284,-4.5848,-4.6148,-4.75,-4.8345,-4.8645,-4.9227,-4.9509,-4.9509,-4.9509,-4.9509,-4.9509,-4.9509,-4.9509,-4.9509,-4.9509,-4.9459,-4.9358,-4.926,-4.9008,-4.8694,-4.8676,-4.8021,-4.712,0.0,0.0,0.0,0.0,0.0,0.0,0.0,-4.1048,-4.1457,-4.1078,-4.256,-4.3571,-4.3348,-4.3989,-4.4532,-4.468,-4.4725,-4.4757,-4.4895,-4.5102,-4.521,-4.5175,-4.515,-4.4872,-4.4271,-4.4039,-4.3646,-4.3046,-4.2794,-4.2632,-4.2603,-4.2406,-4.2314,-4.2303,-4.2303,-4.2257,-4.2198,-4.2198,-4.2126,-4.204,-4.2435,-4.2542,-4.2512,0.0,0.0,0.0,0.0,0.0,0.0,0.0,0.0,0.0,0.0,0.0,0.0,0.0,0.0,0.0,0.0,0.0,0.0,0.0,0.0,0.0,0.0,0.0,0.0,0.0,0.0,0.0,0.0,0.0,0.0,0.0,0.0,0.0,-4.6002,-4.6002,-4.6011,-4.6003,-4.6,-4.5941,-4.581,-4.5498,-4.5226,-4.5011,-4.47,-4.4515,-4.4501,-4.4501,-4.4501,-4.4501,-4.5266,-4.6073,-4.6903,-4.7725,-4.8551,-4.9377,-4.9415,-4.9415,-4.9415,-4.9415,-4.9415,-4.9415,-4.9415,-4.9434,-4.9471,-4.9434,-4.9434,-4.9437,-4.934,-4.9289,-4.9273,-4.9211,-4.8568,-4.7557,0.0,0.0,0.0,0.0,0.0,0.0,0.0,-4.122,-4.1656,-4.1408,-4.2178,-4.2966,-4.3529,-4.3712,-4.4057,-4.4777,-4.4986,-4.5087,-4.512,-4.5263,-4.5113,-4.4563,-4.426,-4.3827,-4.3239,-4.2974,-4.2532,-4.194,-4.1867,-4.1408,-4.0606,-4.0542,-4.0328,-4.001,-4.001,-4.001,-3.9984,-3.9984,-3.993,-3.9988,-4.16,-4.1996,-4.1628,0.0,0.0,0.0,0.0,0.0,0.0,0.0,0.0,0.0,0.0,0.0,0.0,0.0,0.0,0.0,0.0,0.0,0.0,0.0,0.0,0.0,0.0,0.0,0.0,0.0,0.0,0.0,0.0,0.0,0.0,0.0,0.0,-4.6012,-4.6071,-4.6027,-4.5997,-4.6011,-4.5994,-4.5966,-4.5874,-4.5658,-4.5409,-4.5161,-4.4879,-4.4655,-4.4515,-4.4501,-4.4501,-4.4501,-4.4707,-4.4932,-4.5176,-4.5998,-4.6505,-4.6749,-4.7387,-4.7687,-4.7687,-4.7687,-4.7687,-4.7687,-4.7687,-4.8025,-4.8514,-4.7932,-4.8025,-4.8626,-4.9196,-4.9374,-4.9257,-4.9062,-4.8421,-4.7548,0.0,0.0,0.0,0.0,0.0,0.0,0.0,-4.1061,-4.1259,-4.093,-4.1609,-4.2254,-4.2536,-4.2908,-4.3322,-4.3815,-4.4349,-4.4652,-4.4657,-4.4736,-4.4432,-4.3652,-4.3329,-4.2919,-4.239,-4.2154,-4.1724,-4.1127,-4.1004,-4.0616,-3.9963,-3.9772,-3.9537,-3.9259,-3.9137,-3.9101,-3.9101,-3.9101,-3.9073,-3.9138,-4.0331,-4.0716,-4.0604,-4.0672,-4.0883,-4.117,-4.1205,-4.1844,-4.2762,-4.3352,0.0,0.0,0.0,0.0,0.0,0.0,0.0,0.0,0.0,0.0,0.0,0.0,0.0,0.0,0.0,0.0,0.0,0.0,0.0,0.0,0.0,0.0,0.0,0.0,-4.6002,-4.6012,-4.6042,-4.6022,-4.5991,-4.5969,-4.5978,-4.5955,-4.5874,-4.5708,-4.5482,-4.5222,-4.4943,-4.4714,-4.4496,-4.4501,-4.4501,-4.4501,-4.5176,-4.5552,-4.5552,-4.6711,-4.7293,-4.7293,-4.7819,-4.8044,-4.8044,-4.8044,-4.8044,-4.8025,-4.7669,-4.7763,-4.8138,-4.7331,-4.7274,0.0,0.0,0.0,0.0,0.0,-4.7223,-4.6613,0.0,0.0,0.0,0.0,0.0,0.0,0.0,-4.0768,-4.0622,-4.0136,-4.1012,-4.1506,-4.1098,-4.192,-4.2481,-4.2462,-4.3357,-4.3958,-4.3958,-4.3862,-4.3433,-4.2642,-4.2413,-4.2115,-4.1705,-4.1481,-4.1133,-4.0595,-4.0367,-4.023,-4.0196,-3.9736,-3.952,-3.9502,-3.9219,-3.9101,-3.9101,-3.9101,-3.9101,-3.9101,-3.9036,-3.9237,-3.9611,-3.9857,-4.0081,-4.028,-4.0353,-4.091,-4.1646,-4.1752,0.0,0.0,0.0,0.0,0.0,0.0,0.0,0.0,0.0,0.0,0.0,0.0,0.0,0.0,0.0,0.0,0.0,0.0,0.0,0.0,0.0,0.0,0.0,0.0,-4.6002,-4.6002,-4.6002,-4.6002,-4.598,-4.5923,-4.5955,-4.5931,-4.5821,-4.5692,-4.5509,-4.5244,-4.4988,-4.4802,-4.4683,0.0,0.0,0.0,0.0,-4.7012,-4.7012,-4.8476,-4.9227,-4.9227,-4.9227,-4.9227,-4.9227,-4.9227,-4.9227,-4.9189,-4.8401,-4.8119,-4.8138,-4.7331,-4.6907,-4.6802,-4.666,-4.6713,-4.6809,-4.6078,-4.5643,-4.5314,0.0,0.0,0.0,0.0,0.0,0.0,0.0,-4.0859,-4.0747,-4.0585,-4.067,-4.0946,-4.1418,-4.1666,-4.2049,-4.268,-4.3635,-4.4241,-4.4306,-4.3532,-4.2755,-4.2008,-4.1825,-4.1522,-4.101,-4.0792,-4.0666,-4.0595,-4.0561,-4.0408,-4.0196,-3.988,-3.9648,-3.9502,-3.9219,-3.9101,-3.9101,-3.9101,-3.9101,-3.9101,-3.9087,-3.9219,-3.9452,-3.9623,-3.9829,-4.0078,-4.0263,-4.0433,-4.0715,-4.1528,-4.1919,-4.2273,-4.3387,0.0,0.0,0.0,0.0,0.0,0.0,0.0,0.0,0.0,0.0,0.0,0.0,0.0,0.0,0.0,0.0,0.0,0.0,0.0,0.0,-4.6002,-4.6002,-4.6002,-4.6002,-4.6002,-4.6005,-4.5972,-4.595,-4.5912,-4.5874,-4.58,-4.5665,-4.5454,-4.5244,-4.5312,-4.578,-4.5579,-4.5791,-4.649,-4.6843,-4.7012,-4.7012,-4.7331,-4.7481,-4.7481,0.0,0.0,-4.7481,-4.7481,-4.7481,-4.7481,-4.7312,-4.7594,-4.8138,-4.7331,-4.6461,-4.568,-4.6339,-4.6469,-4.6234,-4.5919,-4.5603,-4.5311,0.0,0.0,0.0,0.0,0.0,0.0,0.0,-4.0947,-4.0805,-4.0701,-4.0696,-4.0778,-4.0987,-4.1081,-4.1274,-4.1607,-4.2541,-4.3115,-4.3149,-4.2645,-4.199,-4.1185,-4.1096,-4.0977,-4.079,-4.0706,-4.0633,-4.0595,-4.0593,-4.0512,-4.0347,-4.011,-3.987,-3.9637,-3.9408,-3.9219,-3.9101,-3.9101,-3.9101,-3.9101,-3.9101,-3.917,-3.9277,-3.9427,-3.9717,-4.001,-4.0109,-4.0244,-4.0412,-4.0888,-4.1072,-4.1285,-4.2405,-4.2742,-4.2965,0.0,0.0,0.0,0.0,0.0,0.0,0.0,0.0,0.0,0.0,0.0,0.0,0.0,0.0,-4.6002,0.0,0.0,-4.6002,-4.6002,-4.6002,-4.6002,-4.6002,-4.5975,-4.5953,-4.5955,-4.5925,-4.5893,-4.5854,-4.5814,-4.5896,-4.6123,-4.5936,-4.6085,-4.6721,-4.6506,-4.6561,-4.6993,-4.7387,-4.7594,-4.7594,-4.8025,-4.8251,-4.8251,-4.8251,-4.8251,-4.8251,-4.8251,-4.8251,-4.8232,-4.78,-4.7838,-4.8138,-4.7331,-4.6656,-4.6143,-4.6016,-4.5514,-4.4878,-4.4795,-4.4565,-4.4288,0.0,0.0,0.0,0.0,0.0,0.0,0.0,0.0,-4.087,-4.0777,-4.082,-4.0786,-4.0532,-4.0642,-4.0756,-4.0817,-4.1325,-4.1711,-4.1885,-4.1673,-4.1224,-4.053,-4.0533,-4.0628,-4.079,-4.079,-4.0739,-4.0621,-4.0614,-4.0559,-4.0512,-4.0294,-4.0072,-3.9808,-3.9597,-3.935,-3.9101,-3.9101,-3.9101,-3.9101,-3.9101,-3.9101,-3.9129,-3.9272,-3.9597,-3.9962,-4.0002,-4.0177,-4.0379,-4.0353,-4.0362,-4.0562,-4.1454,-4.1757,-4.1985,-4.3106,-4.3925,0.0,0.0,0.0,0.0,0.0,0.0,0.0,0.0,0.0,-4.6095,-4.6027,-4.6002,-4.6002,-4.6002,-4.6002,-4.6002,-4.6002,-4.6002,-4.5997,-4.5991,-4.5953,-4.5911,-4.5899,-4.5893,-4.5867,-4.5814,-4.5962,-4.6271,-4.681,-4.6781,-4.701,-4.7662,-4.7456,-4.7352,-4.7481,-4.8101,-4.8438,-4.8438,-4.9152,-4.9509,-4.9509,-4.9509,-4.9509,-4.9509,-4.9509,-4.9509,-4.9471,-4.8758,-4.8438,-4.8401,-4.7744,-4.7387,-4.7132,-4.6053,-4.4997,-4.4064,-4.38,-4.3562,-4.3355,0.0,0.0,0.0,0.0,0.0,0.0,0.0,0.0,0.0,-4.0953,-4.0879,-4.0825,-4.0848,-4.0867,-4.1179,-4.1946,-4.1228,-4.1067,-4.1847,-4.1114,-4.0607,-4.0503,-4.0668,-4.0784,-4.0797,-4.0739,-4.07,-4.0694,-4.0628,-4.0607,-4.0574,-4.0326,-4.0091,-3.988,-3.9628,-3.935,-3.9101,-3.9101,-3.9101,-3.9101,-3.9101,-3.9101,-3.9101,-3.9129,-3.9427,-3.984,-3.9951,-4.0177,-4.0407,-4.0379,-4.0388,-4.0449,-4.0691,-4.0839,-4.1136,-4.2169,0.0,-4.2864,-4.3645,-4.4484,-4.5324,-4.6105,-4.6284,-4.6261,0.0,0.0,-4.615,-4.6022,-4.6002,-4.6002,-4.6002,-4.6002,-4.6002,-4.6002,-4.6002,-4.5991,-4.6003,-4.5997,-4.5968,-4.5912,-4.5854,-4.5814,-4.5807,-4.6503,-4.6992,-4.7054,-4.7589,-4.8153,-4.869,-4.8542,-4.8673,-4.9189,-4.9302,-4.9358,-4.9358,-4.9452,-4.9509,-4.9509,-4.9509,-4.9509,-4.9509,-4.9509,-4.9509,-4.949,-4.9396,-4.9358,-4.9358,-4.9265,-4.8758,-4.7969,-4.7151,-4.6259,-4.5323,-4.4133,-4.3679,-4.3646,0.0,0.0,0.0,0.0,0.0,0.0,0.0,0.0,0.0,0.0,-4.0981,-4.0971,-4.0956,-4.0988,-4.1159,-4.1529,-4.1082,-4.0937,-4.1291,-4.0906,-4.0668,-4.0668,-4.0752,-4.0797,-4.0797,-4.0739,-4.0687,-4.0635,-4.0612,-4.0583,-4.0542,-4.0438,-4.0276,-4.0052,-3.9794,-3.9549,-3.9324,-3.917,-3.9101,-3.9101,-3.9101,-3.9101,-3.9101,-3.9101,-3.9324,-3.9658,-3.9816,-4.0052,0.0,0.0,-4.0455,-4.0465,-4.0575,-4.069,-4.0897,-4.1399,-4.1959,0.0,-4.3456,-4.3961,-4.4445,0.0,-4.5539,-4.5668,-4.6093,-4.6196,-4.6167,-4.6072,-4.6022,-4.6002,-4.6002,-4.6002,-4.6002,0.0,-4.6002,-4.5991,-4.6003,-4.596,-4.5931,-4.5906,-4.5847,-4.5807,-4.5807,-4.66,-4.7308,-4.7811,-4.8444,-4.9057,-4.9633,-4.9417,-4.9363,-4.9505,-4.9509,-4.9509,-4.9509,-4.9509,-4.9509,-4.9509,-4.9509,-4.9509,-4.9509,-4.9509,-4.9509,-4.9509,-4.9509,-4.9509,-4.9509,-4.9509,-4.9283,-4.887,-4.8025,-4.7181,-4.6254,-4.4563,-4.3936,-4.3905,0.0,0.0,0.0,0.0,0.0,0.0,0.0,0.0,0.0,0.0,-4.1044,-4.1066,-4.1022,-4.1075,-4.1107,-4.1107,-4.098,-4.0883,-4.0878,-4.0812,-4.0759,-4.0746,-4.0759,-4.0778,-4.0778,-4.0746,-4.07,-4.0661,-4.0639,-4.0603,-4.0542,-4.0539,-4.0397,-4.0195,-3.9913,-3.9694,-3.9471,-3.9205,-3.9101,-3.9101,-3.9101,-3.9101,-3.9101,-3.9101,-3.9219,-3.9408,-3.9637,-3.9941,0.0,-4.0379,-4.0444,-4.0512,-4.0554,-4.0654,-4.0796,-4.091,-4.1466,-4.2232,-4.3109,0.0,0.0,-4.4426,-4.4816,-4.5156,-4.5702,-4.6031,-4.6184,-4.6118,-4.6052,-4.6018,-4.6007,-4.6002,-4.6002,-4.6002,-4.5991,-4.6,-4.5986,-4.5937,-4.5886,-4.5867,-4.5821,-4.5884,-4.6136,-4.6941,-4.7715,-4.8353,-4.9219,-4.9904,-5.0301,-5.0062,-4.9809,-4.9589,-4.9536,-4.9509,-4.9509,-4.9509,-4.9509,-4.9509,-4.9509,-4.9509,-4.9509,-4.9509,-4.9509,-4.9509,-4.9509,-4.9509,-4.9509,-4.9509,-4.9509,-4.9415,-4.8532,-4.7706,-4.6794,-4.5152,-4.4401,-4.4185,0.0,0.0,0.0,0.0,0.0,0.0,0.0,0.0,0.0,0.0,0.0,0.0,0.0,0.0,-4.1107,-4.1107,-4.098,-4.0874,-4.081,-4.0738,-4.0668,-4.0614,-4.0661,-4.07,-4.07,-4.0759,-4.079,-4.079,-4.0733,-4.0694,-4.0694,-4.0617,-4.0457,-4.0193,-3.9924,-3.9694,-3.9471,-3.9205,-3.9101,-3.9101,-3.9101,-3.9101,-3.9101,-3.9101,-3.9115,-3.9156,-3.9408,0.0,-4.0205,-4.0214,-4.0339,-4.0496,-4.0496,-4.0589,0.0,-4.0785,-4.0956,-4.1333,0.0,0.0,-4.265,-4.3528,-4.4367,-4.498,-4.4941,-4.5586,-4.6187,-4.6108,-4.6098,-4.6072,-4.5998,-4.6002,-4.6002,-4.6002,-4.5994,-4.5986,-4.5917,-4.5899,-4.5886,-4.5814,-4.5807,-4.6136,0.0,-4.785,-4.8372,-4.8392,-4.9912,-5.0778,-5.0596,-5.032,-5.0075,-4.9803,-4.96,-4.9509,-4.9509,-4.9509,-4.9509,-4.9509,-4.9509,-4.9509,-4.9509,-4.9509,-4.9509,-4.9509,-4.9509,-4.9509,-4.9509,-4.9509,-4.9509,-4.9415,-4.8532,-4.7706,-4.6899,-4.5983,-4.5158,-4.4487,0.0,0.0,0.0,0.0,0.0,0.0,0.0,0.0,0.0,0.0,0.0,0.0,0.0,0.0,0.0,0.0,0.0,0.0,-4.0878,-4.0807,-4.0757,-4.0726,-4.0707,-4.07,-4.07,-4.0686,-4.0665,-4.0665,-4.0591,-4.0576,-4.0569,-4.0546,-4.0481,-4.0378,-4.0157,-4.0022,-3.996,-3.9683,-3.9501,-3.9376,-3.9376,-3.9259,-3.9101,-3.9101,-3.917,-3.9259,0.0,-3.9728,-4.0022,-4.0167,-4.0366,-4.0573,-4.0573,-4.0622,-4.0724,-4.0882,-4.1007,-4.1158,-4.1451,0.0,-4.1752,-4.2611,-4.306,-4.3569,-4.4712,-4.5153,-4.5507,-4.6046,-4.6138,-4.6091,-4.6064,-4.6027,-4.6002,-4.6002,-4.5994,-4.5991,-4.596,-4.5932,-4.5893,-4.586,-4.584,0.0,0.0,0.0,0.0,-4.9223,-5.0279,-5.0805,-5.0596,-5.0498,-5.0264,-4.9798,-4.9726,-4.9625,-4.949,-4.9509,-4.9509,-4.9509,-4.9509,-4.9509,-4.9509,-4.9509,-4.9509,-4.9509,-4.9509,-4.9509,-4.9509,-4.9509,-4.9509,-4.9471,-4.9171,-4.8213,-4.6974,-4.6674,-4.5683,-4.4501,0.0,0.0,0.0,0.0,0.0,0.0,0.0,0.0,0.0,0.0,0.0,0.0,0.0,0.0,0.0,0.0,0.0,0.0,-4.0868,-4.079,-4.0757,-4.072,-4.0707,-4.07,-4.07,-4.0686,-4.0672,-4.0672,-4.0583,-4.0542,-4.0534,-4.0512,-4.0496,-4.0489,-4.0295,-4.0205,-4.0177,-3.9922,-3.9739,-3.9632,-3.9621,-3.9525,-3.9389,-3.9389,-3.9439,0.0,-3.9611,-3.9832,-4.0101,-4.0167,-4.0392,-4.0607,-4.0573,-4.0636,-4.0762,-4.0926,-4.1031,-4.1098,-4.1098,-4.1094,-4.1226,-4.1791,-4.2162,-4.2689,-4.3821,-4.4518,-4.5095,-4.5625,-4.5942,-4.6128,-4.6098,-4.6063,-4.6032,-4.5991,-4.6008,-4.5997,-4.5997,-4.5944,-4.59,-4.59,-4.5847,-4.6271,0.0,0.0,0.0,-4.9629,-5.0453,-5.083,-5.0718,-5.0644,-5.0404,-4.9974,-4.9857,-4.9703,-4.949,-4.9509,-4.9509,-4.9509,-4.9509,-4.9509,-4.9509,-4.9509,-4.9509,-4.9509,-4.9509,-4.9509,-4.9509,-4.9509,-4.9509,-4.9509,-4.9509,-4.8476,-4.7012,-4.7012,-4.5941,-4.4501,0.0,0.0,0.0,0.0,0.0,0.0,0.0,0.0,0.0,0.0,0.0,0.0,0.0,0.0,0.0,0.0,0.0,0.0,-4.08,-4.0739,-4.0674,-4.0621,-4.0661,-4.07,-4.07,-4.0752,-4.079,-4.079,-4.0668,-4.0595,-4.0588,-4.0534,-4.0504,-4.0496,-4.0313,-4.0223,-4.0195,-3.9953,-3.9872,-3.9912,-3.9851,-3.9851,-3.9901,-3.9901,-3.9901,-3.9922,-3.9926,-4.0128,-4.037,-4.0238,0.0,0.0,-4.0531,-4.0648,-4.082,-4.0878,-4.0994,-4.1098,-4.1098,-4.1094,-4.1109,-4.1109,-4.1713,-4.2357,-4.2396,-4.3684,-4.4863,-4.4843,-4.5488,-4.6061,0.0,0.0,-4.6016,-4.5994,-4.5991,-4.5991,-4.5991,-4.5938,-4.59,0.0,0.0,0.0,0.0,0.0,0.0,-4.9687,0.0,-5.0898,-5.0898,-5.0727,-5.0488,-5.023,-4.9955,-4.9717,-4.9521,-4.9509,-4.9509,-4.9509,-4.9509,-4.9509,-4.9509,-4.9509,-4.9509,-4.9509,-4.9509,-4.9509,-4.9509,-4.9509,-4.9509,-4.9509,-4.9509,-4.8476,-4.7012,-4.7012,-4.5941,-4.4501,0.0,0.0,0.0,0.0,0.0,0.0,0.0,0.0,0.0,0.0,0.0,0.0,0.0,0.0,0.0,0.0,0.0,0.0,0.0,-4.0779,-4.0769,-4.0752,-4.0726,-4.07,0.0,0.0,0.0,-4.0661,-4.0621,-4.0595,-4.0595,-4.0574,-4.0566,-4.0559,-4.0523,-4.0508,-4.0481,-4.0442,-4.0315,-4.0193,-4.0184,-4.0053,-3.9906,-3.9906,-3.9956,0.0,0.0,0.0,0.0,0.0,0.0,0.0,0.0,-4.0717,-4.089,-4.0886,-4.1,-4.1098,-4.1093,-4.1091,-4.1109,-4.1109,-4.1265,-4.1596,-4.2259,-4.2747,-4.3237,-4.387,-4.414,-4.444,0.0,0.0,0.0,-4.5832,-4.5923,0.0,-4.5923,-4.5906,0.0,-4.59,0.0,-4.6484,-4.8237,-4.8392,0.0,0.0,-5.0782,-5.0898,-5.0898,-5.0858,-5.0717,-5.0498,-5.0241,-4.9974,-4.9731,-4.9574,-4.9509,-4.9509,-4.9509,-4.9509,-4.9509,-4.9509,-4.9509,-4.9509,-4.9509,-4.9509,-4.9509,-4.9509,-4.9509,-4.9509,-4.9509,-4.8476,-4.7012,-4.7012,-4.5941,-4.4501,0.0,0.0,0.0,0.0,0.0,0.0,0.0,0.0,0.0,0.0,0.0,0.0,0.0,0.0,0.0,0.0,0.0,0.0,0.0,-4.0804,-4.0794,-4.0797,-4.0752,-4.0746,0.0,0.0,0.0,0.0,0.0,0.0,-4.0635,-4.0621,-4.0595,-4.0595,-4.0595,-4.0595,-4.0595,-4.0595,-4.0552,0.0,0.0,-4.0356,-4.0253,-4.0217,-4.0243,0.0,0.0,0.0,0.0,0.0,0.0,-4.0565,-4.058,-4.073,-4.087,-4.0889,0.0,-4.1094,-4.109,-4.1109,-4.1109,-4.1109,-4.1109,-4.1226,-4.1717,-4.2127,-4.2539,-4.3029,-4.3398,0.0,0.0,0.0,0.0,0.0,0.0,0.0,-4.5892,-4.5893,-4.5893,0.0,-4.5847,0.0,-4.8237,-4.8392,-4.9107,0.0,-5.0898,-5.0898,-5.0898,-5.0898,-5.0805,-5.0616,-5.0446,-5.0195,-4.9798,-4.96,-4.9509,-4.9509,-4.9509,-4.9509,-4.9509,-4.9509,-4.9509,-4.9509,0.0,-4.9509,-4.9509,-4.9509,-4.9509,-4.9471,-4.9077,-4.8138,-4.6955,-4.658,-4.5622,-4.4501,0.0,0.0,0.0,0.0,0.0,0.0,0.0,0.0,0.0,0.0,0.0,0.0,0.0,0.0,0.0,0.0,0.0,0.0,0.0,0.0,0.0,0.0,-4.0797,-4.0797,0.0,0.0,0.0,0.0,0.0,0.0,0.0,0.0,0.0,0.0,0.0,0.0,-4.0628,-4.0628,-4.0661,-4.07,-4.0654,-4.0661,-4.07,0.0,0.0,0.0,0.0,0.0,0.0,0.0,-4.0539,-4.0504,-4.0573,-4.0681,-4.0815,-4.0876,-4.0983,-4.1109,-4.1109,-4.1109,-4.1109,-4.1109,-4.1109,-4.1091,-4.1097,-4.1685,-4.2233,-4.2238,0.0,-4.3359,-4.3425,0.0,-4.4639,-4.4696,0.0,-4.596,-4.5899,-4.5886,-4.5893,-4.5893,-4.5847,-4.6445,-4.8063,-4.8333,-4.9049,-5.0627,-5.084,-5.0898,-5.0898,-5.0898,-5.0805,-5.0616,-5.0587,-5.0353,-4.987,-4.964,-4.9532,-4.9532,-4.9505,-4.9509,-4.9509,-4.9509,-4.9509,-4.9509,-4.9509,-4.9509,-4.9509,-4.9509,-4.9509,-4.9415,-4.8532,-4.7706,-4.6899,-4.6017,-4.519,-4.4501,0.0,0.0,0.0,0.0,0.0,0.0,0.0,0.0,0.0,0.0,-4.1081,-4.1083,0.0,0.0,0.0,0.0,0.0,0.0,0.0,0.0,0.0,0.0,0.0,0.0,0.0,0.0,0.0,0.0,0.0,0.0,0.0,0.0,0.0,0.0,0.0,0.0,-4.0778,-4.0778,-4.0759,-4.0784,-4.0759,-4.0759,-4.0784,0.0,0.0,0.0,0.0,0.0,0.0,0.0,-4.0504,-4.0496,-4.0504,-4.0642,-4.0791,-4.0815,-4.0951,-4.1109,-4.1109,-4.1109,-4.1109,-4.1109,-4.1109,-4.1091,-4.1097,-4.1216,0.0,0.0,0.0,-4.1689,-4.2384,-4.314,0.0,-4.4579,0.0,0.0,0.0,0.0,-4.5886,0.0,0.0,0.0,0.0,0.0,0.0,0.0,0.0,-5.0898,-5.0898,-5.0898,-5.0805,-5.0616,-5.0587,-5.0446,-5.0135,-4.987,-4.9754,-4.9754,-4.9589,-4.9509,-4.9509,-4.9509,-4.9509,-4.9509,-4.9509,0.0,-4.9509,-4.9509,-4.9509,-4.9415,-4.8532,-4.7706,-4.6899,-4.6017,-4.519,-4.4501,0.0,0.0,0.0,0.0,0.0,0.0,0.0,-4.1094,-4.1104,-4.1108,-4.1103,-4.1095,-4.1091,-4.1038,-4.0988,0.0,0.0,0.0,0.0,0.0,0.0,0.0,0.0,0.0,0.0,0.0,0.0,0.0,0.0,0.0,0.0,0.0,0.0,0.0,0.0,0.0,0.0,0.0,0.0,0.0,0.0,0.0,0.0,0.0,0.0,0.0,0.0,0.0,0.0,0.0,-4.0496,-4.0496,-4.0496,-4.0642,-4.081,-4.081,-4.0932,-4.1109,-4.1109,-4.1109,-4.1109,-4.1109,-4.1109,-4.1093,-4.1101,0.0,0.0,0.0,-4.1132,-4.1227,-4.1656,0.0,0.0,0.0,0.0,0.0,0.0,0.0,0.0,0.0,0.0,0.0,0.0,0.0,0.0,0.0,0.0,-5.0898,-5.0898,-5.0898,-5.0866,-5.0763,-5.0644,-5.0537,-5.0415,-5.0128,-4.993,-4.9803,-4.9703,-4.96,-4.9509,-4.9509,-4.9509,-4.9509,-4.9509,0.0,-4.9509,-4.9509,-4.9227,-4.8739,-4.7894,-4.7068,-4.6223,-4.5378,-4.4834,-4.4501,0.0,0.0,0.0,0.0,0.0,0.0,0.0,-4.122,-4.1091,-4.1094,-4.1107,-4.1107,-4.1107,-4.1045,-4.1,0.0,0.0,0.0,0.0,0.0,0.0,0.0,0.0,0.0,0.0,0.0,0.0,0.0,0.0,0.0,0.0,0.0,0.0,0.0,0.0,0.0,0.0,0.0,0.0,0.0,0.0,0.0,0.0,0.0,0.0,0.0,0.0,0.0,0.0,0.0,-4.0523,-4.0531,-4.0519,-4.0655,-4.081,-4.081,-4.0932,-4.1109,-4.1109,-4.1109,-4.1109,-4.1109,-4.1109,-4.1094,-4.1105,-4.1107,0.0,0.0,-4.1191,-4.1191,-4.1191,0.0,0.0,0.0,0.0,0.0,0.0,0.0,0.0,0.0,0.0,0.0,0.0,0.0,0.0,0.0,0.0,0.0,-5.0898,-5.0898,-5.0898,-5.0898,-5.0745,-5.0653,-5.0653,-5.0415,-5.0183,-4.9968,-4.9904,-4.9768,-4.9559,-4.9559,-4.9532,-4.9509,-4.9509,0.0,0.0,-4.9302,-4.8814,-4.8101,-4.7105,-4.6298,-4.5604,-4.4815,-4.4501,-4.4501,0.0,0.0,0.0,0.0,0.0,0.0,0.0,-4.1565,-4.1094,-4.111,-4.1107,-4.1107,-4.1107,-4.1088,-4.1038,0.0,0.0,0.0,0.0,0.0,0.0,0.0,0.0,0.0,0.0,0.0,0.0,0.0,0.0,0.0,0.0,0.0,0.0,0.0,0.0,0.0,0.0,0.0,0.0,0.0,0.0,0.0,0.0,0.0,0.0,0.0,0.0,0.0,0.0,0.0,0.0,-4.0588,-4.0593,-4.0692,-4.081,-4.081,0.0,0.0,-4.1109,-4.1109,-4.1109,-4.1109,-4.1109,-4.1094,-4.1105,0.0,0.0,-4.1191,-4.1191,-4.1191,-4.1191,-4.1747,-4.2497,0.0,0.0,0.0,0.0,0.0,0.0,0.0,0.0,0.0,0.0,0.0,0.0,0.0,0.0,0.0,-5.0898,-5.0898,-5.0898,-5.0898,-5.0882,-5.0874,-5.0874,-5.0663,-5.0547,-5.0508,-5.0275,-5.0038,-4.9762,-4.9762,-4.9679,-4.9509,-4.9509,0.0,0.0,-4.8645,-4.8269,-4.8044,-4.643,-4.5772,-4.5604,-4.4815,-4.4501,-4.4501,0.0,0.0,0.0,0.0,0.0,0.0,-4.2573,-4.2098,-4.1688,-4.1161,-4.1105,-4.1091,-4.1091,-4.1106,-4.1068,-4.0975,0.0,0.0,0.0,0.0,0.0,0.0,0.0,0.0,0.0,0.0,0.0,-4.0797,0.0,0.0,0.0,0.0,0.0,0.0,0.0,0.0,0.0,0.0,0.0,0.0,0.0,0.0,0.0,0.0,0.0,0.0,0.0,0.0,0.0,0.0,0.0,0.0,-4.0649,-4.0759,0.0,0.0,-4.098,-4.1109,-4.1109,-4.1109,-4.1109,-4.1109,-4.1093,-4.1098,-4.1106,0.0,-4.1111,-4.1191,-4.1191,-4.1191,-4.1191,-4.1391,-4.1793,-4.2591,0.0,0.0,0.0,0.0,0.0,0.0,0.0,0.0,0.0,0.0,0.0,0.0,0.0,0.0,-5.0898,-5.0898,-5.0898,-5.0898,-5.0898,-5.0898,-5.0898,-5.0814,-5.0727,-5.0606,-5.0477,-5.0298,-5.005,-4.9865,-4.9768,-4.9641,-4.8999,0.0,0.0,-4.7819,-4.7162,-4.6636,-4.596,-4.5397,-4.4946,-4.4613,-4.4501,-4.4501,0.0,0.0,0.0,0.0,0.0,-4.4589,-4.3336,-4.2729,-4.2182,-4.1557,-4.1253,-4.1106,-4.1106,-4.1107,-4.1078,-4.1023,-4.0968,0.0,0.0,0.0,0.0,0.0,0.0,0.0,0.0,0.0,-4.0797,-4.0797,-4.0797,-4.0815,0.0,0.0,0.0,0.0,0.0,0.0,0.0,0.0,0.0,0.0,0.0,0.0,0.0,0.0,0.0,0.0,0.0,0.0,0.0,0.0,0.0,0.0,0.0,0.0,0.0,0.0,-4.1,-4.1093,-4.1093,-4.1091,-4.1109,-4.1109,-4.1094,-4.11,0.0,0.0,-4.1112,-4.1191,-4.1191,-4.1191,-4.1191,-4.112,-4.1315,-4.2088,0.0,-4.3269,0.0,0.0,0.0,0.0,0.0,0.0,0.0,0.0,0.0,0.0,0.0,0.0,-5.0898,-5.0898,-5.0898,-5.0898,-5.0898,-5.0898,-5.0898,-5.0898,-5.0822,-5.07,-5.07,-5.0567,-5.0309,-4.9868,-4.96,-4.9473,-4.84,0.0,0.0,-4.7009,-4.6299,-4.5786,-4.5463,-4.5003,-4.4501,-4.4501,-4.4501,-4.4501,0.0,0.0,0.0,0.0,0.0,0.0,-4.4898,-4.3471,-4.2397,-4.2397,-4.1634,-4.1107,-4.1107,-4.1107,-4.11,-4.1095,-4.1049,0.0,0.0,0.0,0.0,0.0,0.0,0.0,0.0,0.0,-4.0797,-4.0797,-4.0797,-4.0837,-4.0907,-4.0907,0.0,0.0,0.0,0.0,0.0,0.0,0.0,0.0,0.0,0.0,0.0,0.0,0.0,0.0,0.0,0.0,0.0,0.0,0.0,0.0,0.0,0.0,0.0,0.0,-4.1053,-4.1098,-4.1098,-4.1094,-4.1109,-4.1109,-4.1094,-4.11,0.0,0.0,-4.1112,-4.1191,-4.1191,-4.1191,-4.1191,-4.1083,-4.1263,-4.2062,-4.2092,0.0,0.0,0.0,0.0,0.0,0.0,0.0,0.0,0.0,0.0,0.0,0.0,0.0,-5.0859,-5.0898,-5.0898,-5.0898,-5.0898,-5.0898,-5.0898,-5.0898,-5.0898,-5.0898,-5.0898,-5.0789,-5.0567,-4.9692,-4.9151,-4.8854,0.0,0.0,0.0,-4.6253,-4.5846,-4.5975,-4.4925,-4.4501,-4.4501,-4.4501,-4.4501,-4.4501,0.0,0.0,0.0,0.0,0.0,0.0,0.0,-4.4016,-4.3078,-4.2473,-4.1639,-4.1094,-4.1094,-4.1092,-4.1105,-4.11,-4.1072,0.0,0.0,0.0,0.0,0.0,0.0,0.0,0.0,0.0,-4.082,-4.0877,-4.0877,-4.0893,-4.0976,-4.0976,-4.0976,-4.0976,0.0,0.0,0.0,0.0,0.0,0.0,0.0,0.0,0.0,0.0,0.0,0.0,0.0,0.0,0.0,0.0,0.0,0.0,0.0,0.0,0.0,-4.1077,0.0,0.0,-4.1105,-4.1104,-4.1102,-4.1102,-4.1106,-4.1109,-4.1091,-4.1132,-4.1172,-4.1191,-4.1191,-4.1191,-4.1191,-4.1139,-4.1137,-4.135,-4.1775,0.0,0.0,0.0,0.0,0.0,0.0,0.0,0.0,0.0,0.0,0.0,0.0,0.0,-4.9184,-4.9184,-4.9726,-5.0859,-5.0898,-5.0898,-5.0898,-5.0898,-5.0608,-5.0074,-5.0074,-4.9734,-4.9079,-4.8613,-4.8375,0.0,0.0,0.0,0.0,-4.575,-4.5396,-4.5445,-4.5099,-4.4862,-4.4701,-4.4701,-4.4621,-4.4515,0.0,0.0,0.0,0.0,0.0,0.0,0.0,-4.4758,-4.3879,-4.3001,-4.2134,-4.1476,-4.1145,-4.1092,-4.1094,-4.1093,-4.1107,0.0,0.0,0.0,0.0,0.0,0.0,0.0,-4.0849,-4.0839,-4.0864,-4.0941,-4.0941,-4.0963,-4.1047,-4.1047,-4.1047,-4.1044,-4.0987,0.0,0.0,0.0,0.0,0.0,0.0,0.0,-4.079,0.0,0.0,0.0,0.0,0.0,0.0,0.0,0.0,0.0,0.0,0.0,0.0,0.0,-4.1131,0.0,0.0,-4.1108,-4.1107,-4.1107,-4.111,0.0,0.0,-4.1152,-4.1191,-4.1191,-4.1191,-4.1191,-4.1191,-4.1119,-4.1057,-4.1019,-4.1343,0.0,0.0,0.0,0.0,0.0,0.0,0.0,0.0,0.0,0.0,0.0,0.0,0.0,-4.8372,-4.8392,-4.8875,-4.9912,-4.9958,-4.9958,-4.9958,-4.9958,-4.9707,-4.9204,-4.9204,-4.8933,-4.8392,-4.7888,-4.7656,0.0,0.0,0.0,0.0,-4.5473,-4.5234,-4.5323,-4.5232,-4.5096,-4.4943,-4.4947,-4.4843,-4.4694,0.0,0.0,0.0,0.0,0.0,0.0,0.0,-4.5556,-4.4719,-4.3899,-4.2982,-4.2084,-4.1285,-4.1148,-4.1097,-4.109,0.0,0.0,0.0,0.0,0.0,0.0,0.0,0.0,-4.0906,-4.0902,-4.094,-4.1019,-4.1019,-4.103,-4.1112,-4.1112,-4.1112,-4.1112,-4.109,-4.1066,0.0,0.0,0.0,0.0,0.0,0.0,0.0,0.0,0.0,0.0,0.0,0.0,0.0,0.0,0.0,0.0,0.0,0.0,0.0,0.0,0.0,0.0,0.0,0.0,0.0,0.0,0.0,0.0,0.0,-4.1152,0.0,-4.1191,-4.1191,-4.1191,-4.1191,-4.1106,-4.1003,-4.0994,-4.0903,0.0,0.0,0.0,0.0,0.0,0.0,0.0,0.0,0.0,0.0,0.0,0.0,0.0,-4.8179,-4.8217,-4.8217,-4.8217,-4.8217,-4.8275,-4.8392,-4.8392,-4.8372,-4.8314,-4.8314,-4.8275,-4.8198,-4.7386,-4.6999,0.0,0.0,0.0,0.0,-4.539,-4.5352,-4.5498,-4.5333,-4.5243,-4.5243,-4.5226,-4.5144,-4.5022,0.0,0.0,0.0,0.0,0.0,0.0,0.0,0.0,0.0,0.0,-4.3352,-4.2318,-4.2123,-4.1498,-4.1091,0.0,0.0,0.0,0.0,0.0,0.0,0.0,0.0,0.0,-4.0981,-4.0974,-4.1009,-4.1076,-4.1076,-4.1114,-4.1171,-4.1171,-4.1171,-4.117,-4.1119,-4.1037,0.0,0.0,0.0,0.0,0.0,0.0,0.0,0.0,0.0,0.0,-4.096,-4.0974,0.0,0.0,0.0,0.0,0.0,0.0,0.0,0.0,-4.1191,-4.1191,-4.1172,0.0,-4.1171,-4.1171,-4.1172,-4.1172,0.0,-4.1191,-4.1191,0.0,0.0,0.0,-4.1191,-4.117,-4.1116,-4.1028,-4.0963,0.0,0.0,0.0,0.0,0.0,0.0,0.0,0.0,0.0,0.0,0.0,0.0,-4.6194,-4.6406,-4.6406,-4.6406,-4.6406,-4.6406,-4.7038,-4.8392,-4.8392,-4.8063,-4.7405,-4.7405,-4.7057,-4.6406,-4.6194,-4.6116,0.0,0.0,0.0,-4.58,-4.5708,-4.57,-4.573,-4.5692,-4.5594,-4.55,-4.5518,-4.5389,-4.515,0.0,0.0,0.0,0.0,0.0,0.0,0.0,0.0,0.0,0.0,0.0,0.0,0.0,0.0,0.0,0.0,0.0,0.0,0.0,0.0,0.0,0.0,0.0,-4.1054,-4.1054,-4.1042,-4.1088,-4.1145,-4.1145,-4.1169,-4.1191,-4.1191,-4.1191,-4.1191,-4.1127,-4.1069,0.0,0.0,0.0,0.0,-4.0981,0.0,0.0,0.0,0.0,0.0,-4.1028,-4.1054,0.0,-4.1081,-4.1107,-4.1108,0.0,0.0,0.0,0.0,-4.1191,-4.1191,-4.1191,-4.1191,-4.1191,-4.1191,-4.1191,-4.1191,-4.1191,0.0,0.0,0.0,0.0,0.0,0.0,0.0,0.0,0.0,0.0,0.0,0.0,0.0,0.0,0.0,0.0,0.0,0.0,0.0,0.0,0.0,0.0,-4.5807,-4.5807,-4.5807,-4.5807,-4.5807,-4.5807,-4.6252,-4.7192,-4.7212,-4.696,-4.6503,-4.6503,-4.6271,-4.5807,-4.5807,-4.5807,0.0,0.0,-4.5807,-4.5807,-4.5807,-4.5807,-4.5807,-4.5807,-4.5527,-4.5136,-4.517,-4.482,-4.4281,0.0,0.0,0.0,0.0,0.0,0.0,0.0,0.0,0.0,0.0,0.0,0.0,0.0,0.0,0.0,0.0,0.0,0.0,0.0,0.0,0.0,0.0,0.0,-4.1092,-4.1093,-4.1093,-4.1132,-4.1191,-4.1191,-4.1191,-4.1191,-4.1191,-4.1191,-4.1191,-4.1132,-4.1091,0.0,0.0,0.0,0.0,-4.1091,0.0,0.0,0.0,0.0,0.0,0.0,0.0,0.0,-4.1104,-4.1108,-4.1109,-4.1172,0.0,0.0,0.0,0.0,0.0,-4.1191,-4.1191,-4.1191,-4.1191,-4.1191,-4.1191,-4.1191,0.0,0.0,0.0,0.0,0.0,0.0,0.0,0.0,0.0,0.0,0.0,0.0,0.0,0.0,0.0,0.0,0.0,0.0,0.0,0.0,0.0,0.0,-4.5807,-4.5807,-4.5807,-4.5807,-4.5807,-4.5807,-4.5807,-4.5807,-4.5807,-4.5807,-4.5807,-4.5807,-4.5807,-4.5807,-4.5807,-4.5807,-4.5807,0.0,0.0,-4.5787,-4.5671,-4.5613,-4.5601,-4.5465,-4.5002,-4.4415,-4.4484,-4.3975,-4.3228,0.0,0.0,0.0,0.0,0.0,0.0,0.0,0.0,0.0,0.0,0.0,0.0,0.0,0.0,0.0,0.0,0.0,0.0,0.0,0.0,0.0,-4.1099,-4.1103,-4.1108,-4.1093,-4.1093,-4.1132,-4.1191,-4.1191,-4.1191,-4.1191,-4.1191,-4.1191,-4.1191,-4.1132,-4.1091,-4.1107,-4.1101,-4.1098,-4.1097,-4.1097,0.0,0.0,0.0,0.0,0.0,0.0,0.0,0.0,-4.1105,-4.1109,-4.1111,-4.1172,0.0,0.0,0.0,0.0,0.0,-4.1171,-4.1191,-4.1191,-4.1191,-4.1191,-4.1191,-4.1191,0.0,0.0,0.0,0.0,0.0,0.0,0.0,0.0,0.0,0.0,0.0,0.0,0.0,0.0,0.0,0.0,0.0,0.0,0.0,0.0,0.0,0.0,-4.5807,-4.5807,-4.5807,-4.5807,-4.5807,-4.5807,-4.5807,-4.5807,-4.5807,-4.5807,-4.5807,-4.5807,-4.5807,-4.5807,-4.5807,-4.5807,-4.5807,0.0,-4.5807,-4.5749,-4.5065,-4.4769,-4.4699,-4.397,-4.3633,-4.3588,-4.3588,-4.3546,-4.3333,0.0,0.0,0.0,0.0,0.0,0.0,0.0,0.0,0.0,0.0,0.0,0.0,0.0,0.0,0.0,0.0,0.0,0.0,0.0,0.0,0.0,-4.181,-4.1794,-4.1587,-4.1109,-4.1109,-4.1131,-4.1191,-4.1191,-4.1191,-4.1191,-4.1191,-4.1191,-4.1191,-4.1132,-4.1091,-4.1109,-4.1102,-4.1098,-4.1098,0.0,0.0,0.0,0.0,0.0,0.0,0.0,0.0,0.0,0.0,-4.1054,-4.1051,-4.1072,0.0,0.0,0.0,0.0,0.0,-4.1139,-4.1145,-4.1147,-4.1191,-4.1191,-4.1191,-4.1191,0.0,0.0,0.0,0.0,0.0,0.0,0.0,0.0,0.0,0.0,0.0,0.0,0.0,0.0,0.0,0.0,0.0,0.0,0.0,0.0,0.0,0.0,0.0,-4.5807,-4.5807,-4.5807,-4.5807,-4.5807,-4.5807,-4.5807,-4.5807,-4.5807,-4.5807,-4.5807,-4.5807,-4.5807,-4.5807,-4.5807,-4.5807,0.0,-4.5807,-4.5749,-4.4931,-4.4595,-4.4518,-4.3679,-4.3114,-4.2692,-4.2223,-4.2078,-4.2029,0.0,0.0,0.0,0.0,0.0,0.0,0.0,0.0,0.0,0.0,0.0,0.0,0.0,0.0,0.0,0.0,0.0,0.0,0.0,0.0,-4.3391,-4.2728,-4.2708,-4.2207,-4.1125,-4.1107,-4.113,-4.1172,-4.1191,-4.1191,-4.1191,-4.1191,-4.1191,-4.1191,-4.1133,-4.1094,-4.1074,-4.1054,-4.1053,-4.1072,0.0,0.0,0.0,0.0,0.0,0.0,0.0,0.0,0.0,0.0,0.0,0.0,0.0,0.0,0.0,-4.1007,-4.1,-4.0984,-4.1064,-4.1076,-4.1085,-4.1168,0.0,-4.1191,-4.1191,0.0,0.0,0.0,0.0,0.0,0.0,0.0,0.0,0.0,0.0,0.0,0.0,0.0,0.0,0.0,0.0,0.0,0.0,0.0,0.0,0.0,0.0,0.0,-4.5807,-4.5807,-4.5807,-4.5807,-4.5807,-4.5807,-4.5807,-4.5807,-4.5807,-4.5807,-4.5807,-4.5807,-4.5807,-4.5807,-4.5807,-4.5807,-4.5814,-4.5821,-4.5763,-4.4957,-4.4628,-4.4543,-4.3709,-4.3025,-4.2412,-4.1752,-4.151,-4.1505,0.0,0.0,0.0,0.0,0.0,0.0,0.0,0.0,0.0,0.0,0.0,0.0,0.0,0.0,0.0,0.0,0.0,0.0,0.0,0.0,-4.3666,-4.3606,-4.3606,-4.2811,-4.1138,-4.1105,-4.1109,-4.1112,-4.1172,-4.1191,-4.1191,-4.1191,-4.1191,-4.1191,-4.1123,-4.1077,-4.1003,-4.0933,-4.0947,-4.1003,-4.0937,0.0,0.0,0.0,0.0,0.0,0.0,0.0,0.0,0.0,0.0,0.0,0.0,0.0,-4.0915,-4.0974,-4.0961,-4.092,-4.0981,-4.1019,-4.1014,-4.1083,0.0,0.0,-4.1191,-4.1191,0.0,0.0,0.0,0.0,0.0,0.0,0.0,0.0,0.0,0.0,0.0,0.0,0.0,0.0,0.0,0.0,0.0,0.0,0.0,0.0,0.0,0.0,-4.5807,-4.5807,-4.5807,-4.5807,-4.5807,-4.5807,-4.5807,-4.5807,-4.5807,-4.5807,-4.5807,-4.5807,-4.5807,-4.5807,-4.5807,-4.5807,-4.586,-4.5893,-4.5841,-4.5014,-4.4696,-4.4608,-4.374,-4.3407,-4.3408,-4.333,-4.3311,-4.3306,0.0,0.0,0.0,0.0,0.0,0.0,0.0,0.0,0.0,0.0,0.0,0.0,0.0,0.0,0.0,0.0,0.0,0.0,0.0,-4.55,-4.507,-4.4524,-4.4504,-4.3907,-4.2612,-4.2669,-4.2454,-4.1912,-4.138,-4.1115,-4.1074,-4.1074,-4.1074,-4.1072,-4.1054,-4.1011,-4.0994,-4.0925,-4.0905,-4.0935,-4.0901,-4.0925,0.0,0.0,0.0,0.0,0.0,0.0,0.0,0.0,-4.091,-4.0932,-4.0888,-4.0862,-4.0834,-4.0877,-4.0862,-4.0851,-4.0915,-4.0976,-4.1016,-4.1022,0.0,0.0,0.0,0.0,0.0,0.0,0.0,0.0,0.0,0.0,0.0,0.0,0.0,0.0,0.0,0.0,0.0,0.0,0.0,0.0,0.0,0.0,0.0,0.0,0.0,0.0,-4.5026,-4.5045,-4.5278,-4.5787,-4.5807,-4.5807,-4.5807,-4.5807,-4.5807,-4.5807,-4.5807,-4.5807,-4.5807,-4.5807,-4.5807,-4.5807,-4.584,-4.586,-4.5841,-4.504,-4.4702,-4.4614,-4.3801,-4.3481,-4.3505,-4.3505,-4.3505,-4.3486,0.0,0.0,0.0,0.0,0.0,0.0,0.0,0.0,0.0,0.0,0.0,0.0,0.0,0.0,0.0,0.0,0.0,0.0,-4.6173,-4.6176,-4.5903,-4.5315,-4.5276,-4.4962,-4.4265,-4.4348,-4.3836,-4.2721,-4.185,-4.1418,-4.1361,-4.1127,-4.099,-4.099,-4.0986,-4.0976,-4.0956,-4.091,-4.0867,-4.0875,-4.0863,-4.087,0.0,0.0,0.0,0.0,0.0,0.0,0.0,0.0,-4.0825,-4.0867,-4.0802,-4.0797,-4.0797,-4.0797,-4.0797,-4.0815,-4.0856,-4.0893,-4.0945,0.0,0.0,0.0,0.0,0.0,0.0,0.0,0.0,0.0,0.0,0.0,0.0,0.0,0.0,0.0,0.0,0.0,0.0,0.0,0.0,0.0,0.0,0.0,0.0,0.0,0.0,0.0,0.0,-4.4215,-4.4466,-4.4994,-4.5007,-4.5007,-4.5007,-4.5007,-4.5007,-4.5007,-4.5007,-4.5284,-4.5807,-4.5807,-4.5807,-4.5807,-4.5821,-4.586,-4.5861,-4.533,-4.5107,-4.5057,-4.4491,-4.4287,-4.4287,-4.4287,-4.4287,-4.4248,0.0,0.0,0.0,0.0,0.0,0.0,0.0,0.0,0.0,0.0,0.0,0.0,0.0,0.0,0.0,0.0,0.0,0.0,-4.5899,-4.5899,-4.5899,-4.5899,-4.5899,-4.5899,-4.5899,-4.5899,-4.5089,-4.3408,-4.2611,-4.2217,-4.2195,-4.14,-4.101,-4.1007,-4.0928,-4.0907,-4.0898,-4.0831,-4.079,-4.0794,-4.0809,-4.079,-4.0794,0.0,0.0,0.0,0.0,0.0,0.0,0.0,-4.0796,-4.0797,-4.0797,-4.0797,-4.0797,-4.0797,-4.0797,-4.0797,-4.0797,-4.0797,0.0,0.0,0.0,0.0,0.0,0.0,0.0,0.0,0.0,0.0,0.0,0.0,0.0,0.0,0.0,0.0,0.0,0.0,0.0,0.0,0.0,0.0,0.0,0.0,0.0,0.0,0.0,0.0,0.0,-4.3398,-4.335,-4.3311,-4.3305,-4.3305,-4.3305,-4.3305,-4.3305,-4.3305,-4.3305,-4.4175,-4.5787,-4.5787,-4.5787,-4.5787,-4.5841,-4.588,-4.5872,-4.5947,-4.5975,-4.5982,-4.5982,-4.5982,-4.5982,-4.5982,-4.5982,-4.5866,0.0,0.0,0.0,0.0,0.0,0.0,0.0,0.0,0.0,0.0,0.0,0.0,0.0,0.0,0.0,0.0,0.0,0.0,-4.5886,-4.5889,-4.5899,-4.5899,-4.5899,-4.5881,-4.5829,-4.5745,-4.5218,-4.4238,-4.3396,-4.2945,-4.2896,-4.2086,-4.169,-4.1671,-4.11,-4.0831,-4.0831,-4.0809,-4.0797,-4.0809,-4.0797,-4.0803,-4.0809,0.0,0.0,0.0,0.0,0.0,0.0,0.0,0.0,0.0,-4.0797,-4.0797,-4.0797,-4.0797,-4.0797,-4.0797,-4.0797,0.0,0.0,0.0,0.0,0.0,0.0,0.0,0.0,0.0,0.0,0.0,0.0,0.0,0.0,0.0,0.0,0.0,0.0,0.0,0.0,0.0,0.0,0.0,0.0,0.0,0.0,0.0,0.0,0.0,0.0,-4.2509,-4.2766,-4.3355,-4.3311,-4.3305,-4.3305,-4.3305,-4.3305,-4.3305,-4.3305,-4.3556,-4.404,-4.404,-4.404,-4.404,-4.406,-4.4091,-4.4147,-4.4217,-4.4238,-4.4248,-4.4248,-4.4248,-4.4248,-4.4248,-4.4248,-4.421,0.0,0.0,0.0,0.0,0.0,0.0,0.0,0.0,0.0,0.0,0.0,0.0,0.0,0.0,0.0,0.0,0.0,0.0,0.0,-4.5736,-4.5757,-4.577,-4.577,-4.5768,-4.5712,-4.5646,-4.5404,-4.5008,-4.4143,-4.373,-4.3706,-4.2898,-4.2338,-4.197,-4.1487,-4.1106,-4.0797,-4.0797,-4.0797,-4.0797,-4.0797,-4.0797,-4.0797,0.0,0.0,0.0,0.0,0.0,0.0,0.0,0.0,0.0,-4.0797,-4.0797,-4.0797,-4.0797,-4.0797,-4.0797,-4.0797,0.0,0.0,0.0,0.0,0.0,0.0,0.0,0.0,0.0,0.0,0.0,0.0,0.0,0.0,0.0,0.0,0.0,0.0,0.0,0.0,0.0,0.0,0.0,0.0,0.0,0.0,0.0,0.0,0.0,0.0,-4.1714,-4.1926,-4.243,-4.2388,-4.2339,-4.2339,-4.2347,-4.2349,-4.2349,-4.2323,-4.2318,-4.2337,-4.3002,-4.3312,-4.3344,-4.3336,-4.3366,-4.3408,-4.347,-4.3505,-4.3505,-4.3505,-4.3505,-4.3505,-4.3505,-4.3505,-4.3447,0.0,0.0,0.0,0.0,0.0,0.0,0.0,0.0,0.0,0.0,0.0,0.0,0.0,0.0,0.0,0.0,0.0,0.0,0.0,0.0,-4.5522,-4.5586,-4.5594,-4.5594,-4.5594,-4.5594,-4.5594,-4.5594,-4.4881,-4.455,-4.4595,-4.378,-4.2989,-4.2222,-4.206,-4.1583,-4.0893,-4.0835,-4.0797,-4.0797,-4.0797,-4.0797,-4.0797,-4.0797,0.0,0.0,0.0,0.0,0.0,0.0,0.0,0.0,-4.0797,-4.0797,-4.0797,-4.0797,-4.0797,-4.0797,0.0,0.0,0.0,0.0,0.0,0.0,0.0,0.0,0.0,0.0,0.0,0.0,0.0,0.0,0.0,0.0,0.0,0.0,0.0,0.0,0.0,0.0,0.0,0.0,0.0,0.0,0.0,0.0,0.0,0.0,0.0,-4.1093,-4.1056,-4.1006,-4.0936,-4.0903,-4.0903,-4.0896,-4.0906,-4.0894,-4.083,-4.0818,-4.087,-4.2387,-4.3103,-4.3172,-4.3181,-4.3172,-4.3178,-4.3243,-4.3253,-4.3253,-4.3253,-4.3253,-4.3253,-4.3253,-4.3253,-4.3161,0.0,0.0,0.0,0.0,0.0,0.0,0.0,0.0,0.0,0.0,0.0,0.0,0.0,0.0,0.0,0.0,0.0,0.0,0.0,0.0,-4.5504,-4.5513,-4.5577,-4.5594,-4.5594,-4.5594,-4.5594,-4.5594,-4.5472,-4.5425,-4.5426,-4.4558,-4.4112,-4.3975,-4.2614,-4.1905,-4.1699,-4.1067,-4.0797,-4.0797,-4.0797,-4.0797,-4.0797,-4.0797,-4.0797,0.0,0.0,0.0,0.0,0.0,0.0,0.0,-4.0797,-4.0797,-4.0797,-4.0797,-4.0797,-4.0797,0.0,0.0,0.0,0.0,0.0,0.0,0.0,0.0,0.0,0.0,0.0,0.0,0.0,0.0,0.0,0.0,0.0,0.0,0.0,0.0,0.0,0.0,0.0,0.0,0.0,0.0,0.0,0.0,0.0,0.0,-4.1094,-4.1051,-4.1005,-4.0999,-4.0935,-4.0898,-4.0898,-4.0911,-4.0899,-4.0894,-4.0898,-4.0878,-4.0892,-4.12,-4.1374,-4.1435,-4.1445,-4.1441,-4.1442,-4.1446,-4.1451,-4.1451,-4.1451,-4.1451,-4.1451,-4.1451,-4.1451,-4.1432,0.0,0.0,0.0,0.0,0.0,0.0,0.0,0.0,0.0,0.0,0.0,0.0,0.0,0.0,0.0,0.0,0.0,0.0,0.0,0.0,-4.5467,-4.5495,-4.5568,-4.5594,-4.5594,-4.5594,-4.555,-4.541,-4.5438,-4.5549,-4.5695,-4.5101,-4.4677,-4.4357,-4.3319,-4.265,-4.2239,-4.1431,-4.1085,-4.1046,-4.0677,-4.0504,-4.0512,-4.0631,-4.066,-4.0666,-4.0771,0.0,0.0,0.0,0.0,0.0,0.0,0.0,-4.0797,-4.0797,-4.0797,-4.0797,0.0,0.0,0.0,0.0,0.0,0.0,0.0,0.0,0.0,0.0,0.0,0.0,0.0,0.0,0.0,0.0,0.0,0.0,0.0,0.0,0.0,0.0,0.0,0.0,0.0,0.0,0.0,0.0,0.0,-3.9901,-3.9901,-3.9863,-3.9844,-3.9844,-3.9822,-3.98,-3.98,-3.9774,-3.9741,-3.9759,-3.9752,-3.9731,-3.9738,-4.0505,-4.0873,-4.0903,-4.0903,-4.0893,-4.0907,-4.0907,-4.0907,-4.0907,-4.0907,-4.0907,-4.0849,-4.048,-4.0325,-4.0266,0.0,0.0,0.0,0.0,0.0,0.0,0.0,0.0,0.0,0.0,0.0,0.0,0.0,0.0,0.0,0.0,0.0,0.0,0.0,0.0,0.0,-4.5429,-4.5448,-4.5457,-4.5457,-4.5457,-4.5352,-4.5129,-4.5129,-4.5263,-4.5531,-4.5323,-4.4911,-4.4336,-4.3948,-4.3397,-4.2754,-4.1933,-4.1513,-4.1332,-4.0664,-4.032,-4.0223,-4.0381,-4.0449,-4.0473,-4.0639,-4.072,-4.0739,-4.0739,0.0,0.0,0.0,0.0,-4.0797,-4.0797,-4.0797,-4.0797,0.0,0.0,0.0,0.0,0.0,0.0,0.0,0.0,0.0,0.0,0.0,0.0,0.0,0.0,0.0,0.0,0.0,0.0,0.0,0.0,0.0,0.0,0.0,0.0,0.0,0.0,0.0,0.0,0.0,-3.8592,-3.8592,-3.8609,-3.8607,-3.8607,-3.8602,-3.8599,-3.8599,-3.8532,-3.8516,-3.8496,-3.8501,-3.8469,-3.8466,-3.984,-4.0474,-4.0461,-4.0461,-4.0461,-4.0461,-4.0461,-4.0461,-4.0461,-4.0461,-4.0461,-4.0383,-3.9723,-3.9474,-3.9362,0.0,0.0,0.0,0.0,0.0,0.0,0.0,0.0,0.0,0.0,0.0,0.0,0.0,0.0,0.0,0.0,0.0,0.0,-4.5317,0.0,0.0,-4.5159,-4.4996,-4.4915,-4.4915,-4.4915,-4.4884,-4.4849,-4.4849,-4.4891,0.0,0.0,-4.4909,-4.4949,-4.4034,-4.3623,-4.3579,-4.2711,-4.1949,-4.1311,-4.1265,-4.0817,-4.0205,-4.0233,-4.0242,-4.0251,-4.0269,-4.0381,-4.0546,-4.0546,-4.0653,0.0,0.0,0.0,-4.0797,-4.0797,-4.0797,0.0,0.0,0.0,0.0,0.0,0.0,0.0,0.0,0.0,0.0,0.0,0.0,0.0,0.0,0.0,0.0,0.0,0.0,0.0,0.0,0.0,0.0,0.0,0.0,0.0,0.0,0.0,0.0,0.0,-3.8593,-3.8591,-3.8608,-3.8604,-3.86,-3.8594,-3.8594,-3.8593,-3.8593,-3.8595,-3.8567,-3.8496,-3.8501,-3.8504,-3.8497,-3.8664,-3.8739,-3.8736,-3.8736,-3.8736,-3.8736,-3.8736,-3.8736,-3.8736,-3.8736,-3.8736,-3.8717,-3.862,-3.8563,-3.8552,0.0,0.0,0.0,0.0,0.0,0.0,0.0,0.0,0.0,0.0,0.0,0.0,0.0,0.0,0.0,-4.4572,-4.4707,-4.4801,-4.4801,-4.4777,-4.477,-4.4812,-4.4763,-4.4751,-4.4788,-4.4788,-4.4726,-4.4572,-4.4572,0.0,0.0,-4.4346,-4.4498,-4.4751,-4.4194,-4.399,-4.402,-4.3145,-4.2316,-4.1556,-4.1156,-4.053,-3.9826,-3.9969,-4.003,-4.005,-4.0167,-4.026,-4.033,-4.033,-4.0465,-4.0639,-4.0639,0.0,0.0,0.0,0.0,0.0,0.0,0.0,0.0,0.0,0.0,0.0,0.0,0.0,0.0,0.0,0.0,0.0,0.0,0.0,0.0,0.0,0.0,0.0,0.0,0.0,0.0,0.0,0.0,0.0,0.0,0.0,0.0,0.0,-3.7147,-3.7143,-3.714,-3.7133,-3.7148,-3.7145,-3.7145,-3.7145,-3.7145,-3.7145,-3.7132,-3.7103,-3.7069,-3.7045,-3.7044,-3.7015,-3.7507,-3.8408,-3.8404,-3.8406,-3.8406,-3.8406,-3.8406,-3.8406,-3.8406,-3.8406,-3.8328,-3.7848,-3.7669,-3.761,0.0,0.0,0.0,0.0,0.0,0.0,0.0,0.0,0.0,0.0,0.0,0.0,0.0,0.0,0.0,0.0,-4.436,-4.4397,-4.4397,-4.4397,-4.443,-4.4471,-4.4484,-4.4525,-4.4559,-4.4604,-4.4511,-4.4289,0.0,0.0,-4.4005,-4.4005,-4.4121,0.0,-4.4222,-4.4214,-4.4233,-4.3583,-4.271,-4.1736,-4.1215,-4.0413,-3.952,-3.9743,-3.9815,-3.9837,-3.9989,-4.008,-4.0129,-4.0129,-4.026,-4.0441,-4.0481,-4.0598,0.0,0.0,0.0,0.0,0.0,0.0,0.0,0.0,0.0,0.0,0.0,0.0,0.0,0.0,0.0,0.0,0.0,0.0,0.0,0.0,0.0,0.0,0.0,0.0,0.0,0.0,0.0,0.0,0.0,0.0,0.0,0.0,-3.5992,-3.6009,-3.6004,-3.5999,-3.5995,-3.5992,-3.5992,-3.5992,-3.5992,-3.5992,-3.5992,-3.5992,-3.5951,-3.5936,-3.5917,-3.5918,-3.6582,-3.7751,-3.7747,-3.7741,-3.7741,-3.7741,-3.7741,-3.7741,-3.7741,-3.775,-3.7689,-3.7035,-3.68,-3.6703,0.0,0.0,0.0,0.0,0.0,0.0,0.0,0.0,0.0,0.0,0.0,0.0,-4.3548,-4.3828,-4.4036,-4.4036,-4.4265,-4.4397,-4.4397,-4.4221,-4.4121,-4.4121,-4.402,0.0,-4.3945,-4.402,-4.4033,0.0,0.0,0.0,-4.4005,-4.4005,-4.402,-4.4036,-4.402,-4.4085,-4.4199,0.0,-4.3197,-4.1706,-4.18,-4.09,-3.9508,-3.9596,-3.9614,-3.9614,-3.9626,-3.9754,-3.9924,-3.9924,-4.005,-4.0251,-4.0449,0.0,0.0,0.0,0.0,0.0,0.0,0.0,0.0,0.0,0.0,0.0,0.0,0.0,0.0,0.0,0.0,0.0,0.0,0.0,0.0,0.0,0.0,0.0,0.0,0.0,0.0,0.0,0.0,0.0,0.0,0.0,0.0,0.0,-3.5991,-3.6009,-3.6004,-3.6004,-3.6001,-3.5992,-3.5992,-3.5992,-3.5992,-3.5992,-3.5992,-3.5992,-3.5994,-3.5995,-3.5995,-3.5936,-3.5952,-3.6025,-3.596,-3.5931,-3.5931,-3.5931,-3.5931,-3.5931,-3.5931,-3.5978,-3.6015,-3.5979,-3.5958,-3.5962,0.0,0.0,0.0,0.0,0.0,0.0,0.0,0.0,0.0,0.0,0.0,0.0,0.0,-4.3599,-4.3682,-4.3682,-4.3761,-4.3807,-4.3807,-4.3744,-4.373,-4.3779,-4.3732,-4.3751,-4.3818,-4.3897,-4.3945,0.0,0.0,-4.4005,-4.4005,-4.4005,-4.4005,-4.4005,-4.4005,-4.402,-4.407,-4.407,0.0,0.0,0.0,0.0,0.0,0.0,0.0,0.0,0.0,0.0,0.0,0.0,0.0,0.0,0.0,0.0,0.0,0.0,0.0,0.0,0.0,0.0,0.0,0.0,0.0,0.0,0.0,0.0,0.0,0.0,0.0,0.0,0.0,0.0,0.0,0.0,0.0,0.0,0.0,0.0,0.0,0.0,0.0,0.0,0.0,0.0,0.0,0.0,0.0,-3.6004,-3.5998,-3.5998,-3.5995,-3.5992,-3.5992,-3.5992,-3.5992,-3.5992,-3.5992,-3.5992,-3.5992,-3.5992,-3.5994,-3.5935,-3.5898,-3.5894,-3.5878,-3.5846,-3.5795,-3.5795,-3.5795,-3.5795,-3.5795,-3.5842,-3.5905,-3.5905,-3.5899,-3.5908,0.0,0.0,0.0,0.0,0.0,0.0,0.0,0.0,0.0,-4.3375,0.0,0.0,0.0,0.0,-4.3515,-4.3515,-4.3515,-4.3515,-4.3515,-4.3515,-4.3513,-4.3565,-4.3582,-4.3651,-4.3736,-4.3818,-4.3883,0.0,0.0,0.0,0.0,-4.4005,-4.4005,-4.3986,-4.386,-4.3876,0.0,0.0,0.0,-4.159,0.0,0.0,-3.921,0.0,0.0,0.0,0.0,0.0,0.0,0.0,0.0,0.0,0.0,0.0,0.0,0.0,0.0,0.0,0.0,0.0,0.0,0.0,0.0,0.0,0.0,0.0,0.0,0.0,0.0,0.0,0.0,0.0,0.0,0.0,0.0,0.0,0.0,0.0,0.0,0.0,0.0,0.0,0.0,0.0,0.0,0.0,0.0,0.0,-3.5992,-3.5992,-3.5992,-3.5992,-3.5992,-3.5992,-3.5992,-3.5992,-3.5992,-3.5992,-3.5992,-3.5992,-3.5992,-3.595,-3.5917,-3.5898,-3.5893,-3.5873,-3.5838,-3.5838,-3.5823,-3.5795,-3.5811,-3.5864,-3.5901,-3.5894,-3.5919,-3.5939,0.0,0.0,0.0,0.0,0.0,0.0,0.0,0.0,-4.3178,-4.3196,0.0,0.0,0.0,0.0,0.0,-4.348,-4.348,-4.3479,-4.3515,-4.3515,-4.3515,-4.3515,-4.3565,-4.3582,-4.3582,-4.3719,-4.3802,-4.3849,-4.3865,-4.3878,-4.3955,0.0,-4.3955,-4.3939,-4.356,-4.3592,-4.3902,0.0,-4.267,-4.1546,0.0,-4.0307,-3.9197,0.0,0.0,0.0,-3.9386,-3.9386,0.0,-3.9386,0.0,0.0,0.0,0.0,0.0,0.0,0.0,0.0,0.0,0.0,0.0,0.0,0.0,0.0,0.0,0.0,0.0,0.0,0.0,0.0,0.0,0.0,0.0,0.0,0.0,0.0,0.0,0.0,0.0,0.0,0.0,0.0,0.0,0.0,0.0,0.0,-3.5992,-3.5992,-3.5992,-3.5992,-3.5992,-3.5992,-3.5992,-3.5992,-3.5992,-3.5992,-3.5992,-3.5992,-3.5992,-3.5992,-3.5992,-3.5992,-3.5967,-3.5898,-3.5898,-3.5907,-3.5894,-3.5892,-3.5856,-3.5807,-3.5872,-3.5905,-3.5897,-3.5899,-3.5939,-3.5992,0.0,0.0,0.0,0.0,0.0,0.0,-4.236,-4.2458,-4.2635,0.0,0.0,0.0,-4.3251,-4.2976,-4.2809,-4.292,-4.292,-4.3105,-4.3462,-4.3515,-4.3515,-4.3515,-4.3532,-4.3392,-4.3087,-4.3178,-4.3051,-4.2736,-4.2829,-4.2922,-4.2978,-4.2978,-4.3032,0.0,-4.3014,-4.2741,-4.2337,-4.2231,0.0,0.0,-4.0308,-3.959,0.0,0.0,0.0,0.0,0.0,-3.9256,-3.9256,0.0,-3.9341,-3.9514,0.0,0.0,0.0,0.0,0.0,0.0,-3.9578,0.0,0.0,0.0,0.0,0.0,0.0,0.0,0.0,0.0,0.0,0.0,0.0,0.0,0.0,0.0,0.0,0.0,0.0,0.0,0.0,0.0,0.0,0.0,0.0,0.0,0.0,0.0,-3.5992,-3.5992,-3.5992,-3.5992,-3.5992,-3.5992,-3.5992,-3.5992,-3.5992,-3.5992,-3.5992,-3.5992,-3.5992,-3.5992,-3.5992,-3.5992,-3.5996,-3.5964,-3.5964,-3.5935,-3.5894,-3.5895,-3.59,-3.5877,-3.5897,-3.5908,-3.5892,-3.5894,-3.5939,-3.5992,0.0,0.0,0.0,0.0,0.0,-4.1321,-4.1674,-4.1825,-4.2056,0.0,0.0,0.0,-4.2617,-4.2364,-4.2244,-4.2322,-4.238,-4.2541,-4.2865,-4.294,-4.2958,-4.2958,-4.2958,-4.2864,-4.2614,-4.2655,-4.256,-4.2306,-4.2366,-4.2465,-4.2602,-4.2602,-4.2659,-4.2792,0.0,0.0,0.0,0.0,0.0,0.0,-3.9662,0.0,0.0,-3.9013,-3.9129,0.0,0.0,0.0,-3.9156,-3.9156,-3.9301,0.0,0.0,0.0,0.0,0.0,0.0,0.0,0.0,0.0,0.0,0.0,0.0,0.0,-3.64,-3.6043,0.0,0.0,0.0,0.0,0.0,0.0,0.0,0.0,0.0,0.0,0.0,0.0,0.0,0.0,0.0,0.0,0.0,-3.5995,-3.5992,-3.5992,-3.5992,-3.5992,-3.5992,-3.598,-3.5951,-3.5951,-3.5951,-3.5951,-3.5951,-3.5986,-3.5992,-3.5992,-3.5992,-3.5992,-3.5992,-3.5992,-3.5991,-3.6007,-3.6007,-3.5974,-3.5946,-3.5936,-3.5936,-3.5909,-3.5903,-3.5908,-3.5894,-3.5929,-3.5966,-3.6005,0.0,0.0,0.0,-4.002,-4.041,-4.0707,-4.0778,-4.1139,-4.1437,0.0,-4.1587,-4.1692,-4.1682,-4.1703,-4.1686,-4.1703,-4.181,-4.1916,-4.1979,-4.2118,-4.2177,-4.2198,-4.2198,-4.2177,-4.2115,-4.2115,-4.2118,-4.2144,-4.2144,-4.2246,-4.2426,-4.2356,-4.2379,-4.2457,0.0,0.0,0.0,0.0,0.0,-3.9099,-3.908,-3.8866,0.0,0.0,-3.9101,-3.9101,-3.9101,-3.9101,-3.9101,-3.9115,-3.9229,0.0,0.0,0.0,0.0,0.0,-3.9171,0.0,0.0,0.0,0.0,0.0,0.0,0.0,-3.5704,-3.5706,-3.5697,0.0,0.0,0.0,0.0,0.0,0.0,0.0,0.0,0.0,0.0,0.0,0.0,0.0,0.0,0.0,-3.5987,-3.5996,-3.5992,-3.5992,-3.5992,-3.5992,-3.5992,-3.5936,-3.5908,-3.5908,-3.5883,-3.5883,-3.5908,-3.5951,-3.5989,-3.5992,-3.5991,-3.5991,-3.5991,-3.6009,-3.6006,-3.5997,-3.5997,-3.5994,-3.5984,-3.5984,-3.5941,-3.5897,-3.5918,-3.5918,-3.5917,-3.5973,-3.5995,-3.5995,0.0,0.0,0.0,-3.9781,-3.9935,-4.0204,-4.057,-4.0808,-4.1088,-4.1437,-4.1503,-4.141,-4.1024,-4.0995,-4.1042,-4.1157,-4.1127,-4.138,-4.1958,-4.2021,-4.2098,-4.2216,-4.2198,-4.2011,-4.1648,-4.1626,-4.149,-4.1186,-4.1186,-4.1255,-4.1368,-4.0828,-4.0656,-4.075,0.0,0.0,0.0,0.0,0.0,-3.7882,-3.8181,0.0,-3.8265,-3.8869,-3.9101,-3.9101,-3.9101,-3.9101,-3.9115,-3.917,-3.9215,-3.9269,0.0,0.0,0.0,-3.8889,0.0,0.0,0.0,0.0,0.0,0.0,0.0,0.0,-3.5704,-3.569,-3.5701,0.0,0.0,0.0,0.0,0.0,0.0,0.0,0.0,0.0,0.0,0.0,0.0,0.0,0.0,0.0,-3.5998,-3.5994,-3.5992,-3.5992,-3.5992,-3.5992,-3.5992,-3.5936,-3.5908,-3.5908,-3.5797,-3.5794,-3.5908,-3.5919,-3.5945,-3.5992,-3.6006,-3.6002,-3.6002,-3.5995,-3.6009,-3.6007,-3.6007,-3.5962,-3.5912,-3.5912,-3.5903,-3.5901,-3.5956,-3.5958,-3.5917,-3.5987,-3.5992,-3.5993,0.0,0.0,0.0,-3.9677,-3.9807,-3.9986,-4.0212,-4.036,-4.0531,-4.0761,-4.0808,-4.0713,-4.0483,-4.0434,-4.0483,-4.0556,-4.0587,-4.0761,-4.1116,-4.1208,-4.1316,-4.1445,-4.1445,-4.1373,-4.1192,-4.1209,-4.0903,-4.0284,-4.0284,-4.0182,-3.995,-3.9663,-3.9621,-3.966,-3.8996,0.0,0.0,0.0,-3.7441,-3.73,-3.7879,0.0,-3.841,-3.8913,-3.9101,-3.9101,-3.9101,-3.9101,-3.9115,-3.9142,-3.917,0.0,0.0,-3.87,-3.8556,0.0,-3.7233,-3.6804,0.0,0.0,0.0,-3.5704,0.0,0.0,0.0,-3.5695,-3.5706,0.0,0.0,0.0,0.0,0.0,0.0,0.0,0.0,0.0,0.0,0.0,0.0,0.0,0.0,0.0,-3.5995,-3.5992,-3.5992,-3.5992,-3.5992,-3.5992,-3.5992,-3.5872,-3.5801,-3.5801,-3.57,-3.5674,-3.5741,-3.5811,-3.5875,-3.5899,-3.5968,-3.5992,-3.5992,-3.6007,-3.5981,-3.5958,-3.5958,-3.5931,-3.5899,-3.5899,-3.5899,-3.5902,-3.594,-3.5923,-3.5901,-3.5937,-3.595,-3.5958,-3.9448,0.0,0.0,0.0,-3.9729,-3.9824,-3.9849,-3.9986,-4.0087,-4.0113,-4.0096,-4.0096,-4.0096,-4.0096,-4.0096,-4.0096,-4.0188,-4.0263,-4.0305,-4.0387,-4.0534,-4.0697,-4.0697,-4.07,-4.0687,-4.067,-4.0267,-3.9491,-3.9491,-3.9226,-3.8767,-3.8782,-3.8802,-3.8835,0.0,0.0,0.0,0.0,0.0,-3.7261,0.0,-3.8216,-3.8421,-3.8851,-3.8998,-3.9013,-3.9087,-3.9101,-3.9101,-3.9101,-3.9031,-3.8848,-3.8197,-3.8089,0.0,0.0,0.0,0.0,0.0,0.0,0.0,0.0,0.0,-3.5704,0.0,0.0,0.0,0.0,0.0,0.0,0.0,0.0,0.0,0.0,0.0,0.0,0.0,0.0,0.0,0.0,0.0,0.0,0.0,-3.5992,-3.5989,-3.5983,-3.5983,-3.596,-3.5933,-3.5774,-3.5672,-3.5672,-3.5614,-3.5585,-3.5607,-3.5689,-3.5755,-3.5788,-3.588,-3.5914,-3.5914,-3.5911,-3.5883,-3.5833,-3.5864,-3.5864,-3.5852,-3.5883,-3.5908,-3.5908,-3.5908,-3.5908,-3.5908,-3.5908,-3.5907,-3.5906,-3.9325,-3.9325,0.0,0.0,0.0,-3.959,-3.9703,-3.9849,-3.9977,-4.007,-4.0096,0.0,0.0,0.0,0.0,0.0,0.0,0.0,-4.0288,0.0,-4.0453,-4.0697,-4.0697,-4.0418,-3.9853,-3.9836,-3.9457,-3.8715,-3.8715,-3.8703,-3.8599,-3.8144,-3.7937,0.0,-3.7381,0.0,0.0,0.0,-3.7374,0.0,-3.8068,-3.7913,0.0,-3.8389,-3.8673,-3.8703,-3.8984,-3.9101,-3.9101,0.0,-3.8618,-3.8037,0.0,-3.7214,-3.6358,-3.6169,0.0,0.0,0.0,0.0,0.0,0.0,-3.5668,0.0,0.0,0.0,-3.569,-3.5709,0.0,0.0,0.0,0.0,0.0,0.0,0.0,0.0,0.0,0.0,0.0,0.0,0.0,0.0,0.0,-3.5992,-3.598,-3.5921,-3.5919,-3.5855,-3.5749,-3.565,-3.5609,-3.5609,-3.554,-3.5547,-3.5607,-3.5568,-3.5596,-3.572,-3.5664,-3.565,-3.565,-3.5645,-3.5635,-3.5635,-3.5704,-3.5714,-3.5737,-3.5846,-3.5908,-3.5908,-3.5908,-3.5908,-3.5908,-3.5908,-3.5897,-3.5895,-3.9299,-3.9299,0.0,0.0,0.0,0.0,-3.9563,-3.9772,-3.9935,0.0,0.0,0.0,0.0,0.0,0.0,0.0,0.0,-4.0121,0.0,0.0,-3.9659,-3.9925,-3.948,-3.918,-3.906,-3.906,-3.8703,-3.7961,-3.7961,-3.7715,-3.7249,-3.7126,-3.7092,0.0,-3.6968,0.0,-3.7007,0.0,0.0,0.0,0.0,0.0,0.0,-3.8548,-3.8898,-3.8913,-3.9059,-3.9101,-3.9027,0.0,-3.8172,0.0,0.0,0.0,0.0,0.0,0.0,0.0,0.0,0.0,0.0,0.0,0.0,0.0,-3.5684,0.0,-3.5706,0.0,0.0,0.0,0.0,0.0,0.0,0.0,0.0,0.0,0.0,0.0,0.0,0.0,0.0,0.0,0.0,0.0,0.0,0.0,-3.5908,-3.584,-3.5702,-3.5645,-3.5607,-3.5607,-3.5541,-3.5482,-3.5483,-3.5495,-3.5537,-3.5585,-3.5593,-3.5604,-3.5604,-3.5593,-3.5607,-3.5593,-3.5635,-3.5636,-3.566,-3.5702,-3.5756,-3.5776,-3.5776,-3.5826,-3.5901,-3.5901,-3.5878,-3.5842,-3.843,0.0,0.0,0.0,0.0,0.0,-3.9537,-3.9746,-3.9935,-4.0087,0.0,0.0,-4.0113,-3.9926,0.0,0.0,-3.9622,-3.9503,0.0,0.0,-3.8781,0.0,0.0,0.0,0.0,-3.8284,-3.7944,-3.7163,-3.7163,-3.687,-3.6301,-3.6444,-3.6564,-3.6702,0.0,-3.6871,-3.7007,0.0,0.0,-3.7166,-3.7395,-3.7614,-3.7894,-3.867,-3.9013,-3.9101,-3.9101,-3.8952,-3.8674,-3.8098,-3.7649,0.0,-3.611,0.0,0.0,0.0,0.0,0.0,-3.5585,0.0,0.0,0.0,0.0,0.0,0.0,0.0,0.0,0.0,0.0,0.0,0.0,0.0,0.0,0.0,0.0,0.0,0.0,0.0,0.0,0.0,0.0,0.0,0.0,0.0,0.0,-3.5858,-3.5846,-3.5779,-3.5636,-3.5571,-3.5538,-3.5513,-3.5469,-3.542,-3.5372,-3.543,-3.545,-3.5449,-3.5477,-3.5483,-3.5483,-3.5483,-3.5483,-3.5489,-3.5525,-3.5537,-3.5512,-3.5566,-3.5593,-3.5625,-3.5625,-3.5684,-3.5767,-3.585,-3.5838,-3.5773,-3.6195,-3.7929,0.0,0.0,0.0,-3.9405,-3.9651,-3.9807,-3.9935,0.0,0.0,0.0,0.0,0.0,0.0,0.0,0.0,-3.7973,-3.7973,0.0,-3.8011,0.0,0.0,-3.7917,0.0,0.0,-3.715,-3.6335,-3.6335,-3.6335,-3.6301,-3.6444,-3.6564,-3.6702,-3.6768,-3.6871,-3.7007,-3.7007,-3.7204,-3.7487,-3.7505,-3.7929,-3.8563,0.0,-3.8822,-3.9101,-3.9101,0.0,0.0,-3.7912,-3.6982,0.0,0.0,0.0,0.0,0.0,0.0,0.0,0.0,0.0,0.0,-3.5595,0.0,0.0,0.0,0.0,-3.5718,0.0,0.0,0.0,0.0,0.0,0.0,0.0,0.0,0.0,0.0,0.0,0.0,0.0,0.0,0.0,0.0,0.0,0.0,-3.5712,-3.5718,-3.5626,-3.5422,-3.542,-3.5379,-3.5304,-3.5315,-3.5308,-3.5289,-3.5316,-3.5319,-3.5319,-3.5242,-3.5207,-3.5207,-3.5207,-3.5207,-3.5215,-3.5362,-3.5365,-3.5325,-3.5456,-3.5473,-3.5405,-3.5405,-3.5412,-3.5451,-3.5713,-3.5769,-3.5708,0.0,0.0,0.0,0.0,0.0,-3.7908,-3.8095,-3.7926,0.0,0.0,0.0,0.0,0.0,-3.8413,-3.8278,0.0,0.0,-3.7905,-3.7905,-3.7432,0.0,0.0,0.0,-3.6691,0.0,0.0,0.0,-3.6301,-3.6301,-3.6301,-3.6301,-3.636,-3.6444,-3.6564,0.0,-3.6768,0.0,0.0,0.0,0.0,0.0,-3.7808,-3.8314,0.0,-3.8998,-3.9027,-3.8488,-3.8135,0.0,-3.6681,-3.608,-3.5732,-3.5335,-3.5191,-3.5234,-3.535,-3.5455,-3.5489,0.0,0.0,-3.5604,-3.5595,0.0,0.0,0.0,0.0,0.0,0.0,0.0,0.0,0.0,0.0,0.0,0.0,0.0,0.0,0.0,0.0,0.0,0.0,0.0,0.0,0.0,0.0,0.0,-3.5725,-3.5709,-3.56,-3.54,-3.5364,-3.5323,-3.5308,-3.5308,-3.5293,-3.5308,-3.5293,-3.5277,-3.5226,-3.5209,-3.5209,-3.5209,-3.5209,-3.5209,-3.5209,-3.5242,-3.525,-3.5234,-3.5227,-3.5239,-3.5277,-3.5277,-3.5292,-3.5355,-3.5483,-3.5489,-3.5444,-3.4297,0.0,0.0,0.0,0.0,0.0,0.0,0.0,0.0,0.0,-3.7178,0.0,-3.7834,0.0,-3.7499,0.0,-3.7263,-3.707,-3.707,-3.6637,0.0,-3.6446,-3.6166,0.0,0.0,0.0,0.0,0.0,0.0,-3.6301,-3.6301,-3.6301,-3.6364,-3.6502,0.0,-3.6705,-3.6809,0.0,-3.6968,0.0,0.0,-3.7681,0.0,0.0,-3.8605,-3.8428,0.0,-3.7522,-3.6904,-3.5863,-3.5486,-3.5399,-3.5012,-3.5098,-3.5339,-3.5488,-3.5521,-3.5515,-3.5534,-3.5564,0.0,-3.5629,-3.565,0.0,-3.5762,0.0,-3.5791,0.0,0.0,0.0,0.0,0.0,0.0,0.0,0.0,0.0,0.0,-3.5996,0.0,0.0,0.0,0.0,0.0,0.0,-3.5917,-3.5714,-3.5696,-3.5604,0.0,0.0,-3.5285,-3.527,-3.527,-3.5254,-3.5269,-3.5269,-3.5234,-3.5209,-3.5209,-3.5209,-3.5209,-3.5193,-3.5204,-3.5204,-3.5172,-3.5147,-3.5129,-3.5084,-3.5073,-3.5089,-3.5089,-3.5124,-3.5179,-3.5307,-3.534,-3.5308,0.0,0.0,0.0,0.0,-3.5351,0.0,0.0,0.0,-3.5894,0.0,-3.6701,-3.6978,-3.7627,-3.7074,-3.6675,-3.6675,-3.5977,-3.5515,-3.5515,-3.5554,0.0,0.0,-3.5844,-3.5997,-3.5997,0.0,0.0,0.0,0.0,0.0,-3.6301,-3.6301,-3.6381,-3.6502,-3.6502,0.0,-3.6809,-3.6809,-3.6853,-3.6995,-3.7702,-3.7473,-3.6796,-3.7505,-3.7581,-3.7327,-3.7655,-3.6811,-3.5491,-3.5454,-3.5195,-3.4898,-3.4907,-3.5179,-3.5514,-3.5573,-3.5547,-3.5508,-3.5577,-3.5609,-3.5621,-3.5685,-3.5742,0.0,0.0,0.0,-3.5922,0.0,0.0,0.0,0.0,0.0,0.0,0.0,0.0,0.0,0.0,0.0,0.0,0.0,0.0,0.0,0.0,-3.5987,-3.5916,-3.5718,-3.5691,0.0,0.0,0.0,-3.5269,-3.5209,-3.5209,-3.5209,-3.5209,-3.5209,-3.5209,-3.5209,-3.5209,-3.5201,-3.5201,-3.5198,-3.52,-3.5191,-3.5129,-3.5066,-3.5001,-3.5001,-3.4955,-3.4908,-3.4908,-3.4908,-3.4926,-3.5187,-3.5274,-3.5274,-3.1697,-3.171,-3.1902,0.0,-3.322,-3.3826,0.0,0.0,0.0,0.0,-3.4272,-3.4365,-3.4939,-3.4824,-3.471,-3.471,-3.453,0.0,0.0,0.0,0.0,-3.4998,-3.5633,-3.5997,-3.5997,-3.6195,-3.6301,-3.6301,0.0,0.0,-3.6301,-3.6301,-3.6322,-3.636,0.0,0.0,-3.6725,-3.6788,-3.6519,-3.6129,-3.6319,-3.6043,0.0,0.0,-3.5974,-3.5591,-3.5988,-3.5863,-3.5398,-3.4748,-3.47,-3.4889,-3.4908,-3.5174,-3.5494,-3.5528,-3.5547,-3.5579,-3.5589,-3.5635,-3.5681,-3.5693,-3.5742,-3.5824,0.0,0.0,0.0,0.0,0.0,0.0,0.0,0.0,0.0,0.0,0.0,0.0,0.0,0.0,0.0,-3.5992,0.0,0.0,-3.6005,-3.5901,-3.5803,-3.5704,-3.5565,0.0,0.0,0.0,0.0,-3.5209,-3.5209,-3.5209,-3.5209,-3.5209,-3.5209,-3.5209,-3.5209,-3.5212,-3.5198,-3.5208,-3.5164,-3.5129,-3.5038,-3.5011,-3.5001,-3.4945,-3.4917,-3.4908,-3.4908,-3.4908,-3.4917,-3.4973,-3.5,-3.5,-3.1511,0.0,0.0,-3.1511,0.0,0.0,-3.2602,0.0,0.0,-3.3261,-3.3261,0.0,-3.3944,-3.4011,-3.4011,-3.4011,-3.4011,0.0,-3.4011,0.0,0.0,-3.4793,-3.5566,-3.5997,-3.5997,-3.6195,0.0,-3.6301,0.0,0.0,-3.6301,0.0,0.0,0.0,0.0,-3.6502,0.0,-3.6399,-3.5985,-3.5507,-3.5687,0.0,0.0,-3.5455,-3.5193,-3.4624,-3.4853,-3.4922,-3.486,-3.4364,-3.4446,-3.4772,-3.487,-3.5122,-3.5393,-3.5502,-3.5566,-3.5616,-3.5637,-3.5687,-3.5751,-3.5788,-3.5841,-3.5895,-3.5948,-3.5949,-3.5952,0.0,-3.5996,-3.5996,0.0,0.0,0.0,0.0,0.0,0.0,0.0,0.0,0.0,0.0,-3.5971,0.0,-3.5999,-3.586,-3.5748,-3.5745,-3.5582,0.0,0.0,0.0,0.0,-3.5209,-3.5209,-3.5209,-3.5209,-3.5209,-3.5209,-3.5209,-3.5209,-3.5204,-3.52,-3.5164,-3.5129,-3.5057,-3.4992,-3.4955,-3.4945,-3.4917,-3.4908,-3.4908,-3.4908,-3.4908,-3.4898,-3.4811,-3.4812,-3.4908,0.0,0.0,0.0,0.0,0.0,0.0,0.0,-3.194,0.0,-3.2815,0.0,-3.3277,-3.3742,-3.3793,-3.3793,-3.3793,0.0,-3.3793,-3.3793,-3.4358,-3.4673,-3.4625,-3.5453,-3.5871,-3.5805,-3.6088,-3.6216,0.0,0.0,0.0,0.0,0.0,0.0,0.0,0.0,0.0,0.0,-3.5774,-3.5308,-3.4921,-3.5274,-3.5105,-3.4672,-3.5056,-3.4772,-3.4161,-3.4185,-3.4197,-3.4197,-3.4197,-3.4393,-3.4636,-3.4841,-3.503,-3.5255,-3.5515,-3.5604,-3.562,-3.5674,-3.5753,-3.5828,-3.5885,-3.5951,-3.5996,-3.5996,-3.5996,-3.5996,-3.5996,-3.5996,-3.5996,0.0,0.0,0.0,0.0,0.0,0.0,0.0,0.0,0.0,0.0,0.0,0.0,-3.5986,-3.5814,-3.5729,0.0,0.0,0.0,0.0,0.0,0.0,-3.519,-3.5209,-3.5209,-3.5209,-3.5209,-3.5209,-3.5209,-3.5209,-3.5204,-3.5172,-3.5129,-3.5066,-3.4973,-3.4927,-3.4908,-3.4908,-3.486,-3.4831,-3.4812,-3.4812,-3.4812,-3.4782,-3.4586,-3.4639,-3.4783,0.0,0.0,0.0,0.0,0.0,-3.1841,-3.194,-3.2066,-3.2219,-3.2315,-3.2465,-3.2574,-3.2668,-3.2683,-3.2683,-3.2683,-3.2683,0.0,0.0,0.0,0.0,-3.3656,-3.4721,-3.5184,-3.484,-3.5436,-3.5705,0.0,0.0,0.0,0.0,0.0,0.0,0.0,0.0,0.0,-3.477,-3.4839,0.0,-3.3794,-3.3864,-3.3591,-3.3214,-3.3546,-3.3762,-3.3895,-3.4124,-3.4197,-3.4197,-3.4197,-3.4393,-3.4636,-3.4841,-3.503,-3.5255,-3.5521,-3.5595,-3.561,-3.5678,-3.5755,-3.5821,-3.5885,-3.5951,-3.5996,-3.5996,-3.5996,-3.5996,-3.5996,-3.5996,-3.5973,-3.5936,0.0,0.0,0.0,0.0,0.0,0.0,0.0,0.0,0.0,0.0,-3.5807,0.0,0.0,0.0,0.0,0.0,0.0,0.0,0.0,0.0,0.0,-3.5209,0.0,0.0,0.0,-3.5209,-3.5209,-3.5209,-3.5168,-3.512,-3.512,-3.5029,-3.4917,-3.4908,-3.4908,-3.4898,-3.472,-3.452,-3.4309,-3.4309,-3.4309,-3.4298,-3.4165,-3.4135,-3.4195,0.0,0.0,0.0,0.0,0.0,0.0,0.0,-3.2219,0.0,-3.2287,-3.237,-3.2398,-3.2398,-3.2398,-3.2398,-3.2398,-3.2398,-3.2398,-3.2398,-3.3214,-3.3604,-3.3413,-3.4625,-3.5224,-3.5021,-3.5638,-3.5775,-3.5399,0.0,0.0,0.0,0.0,0.0,0.0,0.0,-3.401,0.0,0.0,0.0,-3.3154,-3.332,-3.3376,-3.3361,-3.3657,-3.3876,-3.4036,-3.4197,-3.4257,-3.4257,-3.4257,-3.442,-3.4641,-3.4879,-3.5089,-3.5302,-3.554,-3.5612,-3.5667,-3.5729,-3.5788,-3.5812,-3.5925,-3.5975,-3.5996,-3.5996,-3.5996,-3.5996,-3.597,-3.5946,-3.5916,-3.5812,-3.5746,0.0,0.0,0.0,0.0,0.0,0.0,0.0,0.0,0.0,0.0,0.0,0.0,0.0,0.0,0.0,0.0,0.0,0.0,0.0,0.0,0.0,0.0,-3.4841,0.0,-3.4841,-3.4841,-3.4794,-3.4754,-3.4684,-3.4653,-3.4591,-3.4534,-3.4534,-3.4534,-3.4524,-3.4431,-3.4316,-3.4197,-3.4123,-3.4111,-3.4068,-3.3834,-3.3742,-3.3781,0.0,-3.1539,0.0,0.0,-3.194,0.0,-3.2191,-3.2315,-3.2398,-3.2398,-3.2398,-3.2398,-3.2398,-3.2398,-3.2398,-3.2398,-3.2398,-3.2398,-3.2398,-3.3018,-3.3397,-3.3449,-3.4601,-3.518,-3.5052,-3.5598,-3.5517,0.0,0.0,0.0,0.0,0.0,0.0,0.0,0.0,0.0,0.0,0.0,-3.3036,-3.2811,-3.3093,-3.3375,-3.3721,-3.4011,-3.4111,-3.4136,-3.4257,-3.4293,-3.4305,-3.4328,-3.4469,-3.4674,-3.4916,-3.5146,-3.5332,-3.5558,-3.5668,-3.5718,-3.5775,-3.5791,-3.5836,-3.5974,-3.5996,-3.5996,-3.5996,-3.5996,-3.5975,-3.5908,-3.5862,-3.5814,-3.5723,-3.5671,0.0,0.0,0.0,0.0,0.0,0.0,0.0,0.0,0.0,0.0,-3.5654,0.0,0.0,0.0,0.0,0.0,0.0,0.0,0.0,0.0,0.0,-3.4561,-3.4561,0.0,-3.4464,-3.4464,-3.4401,-3.4345,-3.4288,-3.4211,-3.4201,-3.4197,-3.4197,-3.4173,-3.4111,-3.4111,-3.4086,-3.4023,-3.3891,-3.3847,-3.3808,-3.35,-3.339,-3.3415,0.0,0.0,0.0,0.0,0.0,0.0,-3.2191,-3.2315,-3.2398,-3.2398,-3.2398,-3.2398,-3.2398,-3.2398,-3.2398,-3.2398,-3.2398,-3.2398,-3.2398,-3.3018,-3.3449,-3.3572,-3.4292,-3.4424,-3.3872,-3.432,-3.421,0.0,0.0,-3.4182,0.0,0.0,0.0,0.0,0.0,0.0,0.0,-3.2441,-3.261,-3.2795,-3.2827,-3.3063,-3.3379,-3.3721,-3.3847,-3.3868,-3.4185,-3.4293,-3.4316,-3.445,-3.4567,-3.4734,-3.4923,-3.5143,-3.5339,-3.5601,-3.5704,-3.5718,-3.5775,-3.5791,-3.5836,-3.5974,-3.5996,-3.5996,-3.5995,-3.5995,-3.5972,-3.5919,-3.5755,-3.5645,-3.5693,-3.5607,-3.5534,0.0,0.0,0.0,0.0,0.0,0.0,0.0,0.0,0.0,0.0,-3.5525,0.0,0.0,-3.5266,0.0,0.0,0.0,0.0,-3.486,-3.4793,-3.4773,-3.4773,-3.4456,-3.4323,-3.4323,-3.4304,-3.4258,-3.42,-3.42,-3.4201,-3.4197,-3.4197,-3.4061,-3.3847,-3.3847,-3.3684,-3.3466,-3.3393,-3.3382,-3.3334,-3.3119,-3.3057,-3.3042,0.0,0.0,0.0,0.0,0.0,0.0,0.0,-3.1796,-3.1782,-3.1782,-3.2136,-3.2398,-3.2398,-3.2398,-3.2398,-3.2398,-3.2453,-3.2672,-3.2986,-3.299,-3.3157,-3.3502,-3.3723,-3.3712,-3.3471,-3.396,-3.385,0.0,0.0,0.0,0.0,0.0,0.0,0.0,0.0,-3.2161,-3.2214,-3.2505,-3.2702,-3.2827,-3.3243,-3.3494,-3.362,-3.3934,-3.4074,-3.4124,-3.4293,-3.4393,-3.4443,-3.466,-3.4793,-3.4906,-3.502,-3.5288,-3.5552,-3.5668,-3.5693,-3.5711,-3.5788,-3.5834,-3.5887,-3.5975,-3.5996,-3.5996,-3.5996,-3.5971,-3.5911,-3.5797,-3.5645,-3.5559,-3.5575,-3.5534,-3.5501,-3.5541,0.0,0.0,0.0,0.0,0.0,0.0,0.0,0.0,0.0,0.0,0.0,0.0,0.0,0.0,0.0,0.0,0.0,-3.4663,0.0,-3.4172,-3.4379,-3.4049,-3.3871,-3.3871,-3.3831,-3.381,-3.3784,-3.3743,-3.3734,-3.3726,-3.3726,-3.3657,-3.3563,-3.3563,-3.3481,-3.3322,-3.3229,-3.3168,-3.3106,-3.2979,-3.2932,-3.2932,-2.9062,0.0,-2.9467,0.0,-3.0221,-3.0783,-3.0911,-3.1046,-3.1105,-3.1105,-3.152,-3.1813,-3.1813,-3.184,-3.1867,-3.1867,-3.199,-3.2242,-3.2613,-3.2349,-3.2482,-3.3162,-3.3117,0.0,-3.3182,-3.3539,-3.3352,-3.2576,-3.2576,0.0,0.0,0.0,0.0,0.0,-3.2179,-3.2266,-3.2386,-3.2684,-3.2905,-3.3154,-3.3606,-3.3855,-3.3972,-3.4161,-3.4269,-3.4328,-3.4416,-3.4506,-3.4618,-3.4821,-3.4997,-3.5127,-3.5178,-3.5431,-3.5704,-3.5704,-3.5704,-3.5718,-3.5774,-3.5847,-3.5921,-3.5976,-3.5996,-3.5996,-3.5996,-3.5945,-3.5858,-3.5698,-3.5577,-3.55,-3.55,-3.55,-3.55,-3.55,0.0,0.0,0.0,-3.5467,0.0,0.0,-3.5369,-3.532,-3.5187,-3.5179,0.0,0.0,0.0,0.0,0.0,0.0,0.0,0.0,0.0,0.0,-3.3999,-3.3712,-3.3534,-3.3534,-3.3477,-3.3466,-3.3466,-3.3408,-3.3393,-3.3393,-3.3393,-3.3393,-3.3393,-3.3382,-3.3337,-3.3277,-3.3119,-3.3042,-3.2979,-3.2916,-3.2836,-3.2721,-2.8025,-2.8297,-2.8539,-2.8539,-2.9125,-2.9604,-2.9604,-3.0072,-3.0402,-3.0402,-3.0417,-3.0417,-3.0417,-3.0531,-3.0634,-3.0634,-3.0752,-3.0818,-3.0844,-3.0955,-3.1437,0.0,0.0,-3.2693,-3.2902,-3.2921,-3.2559,-3.18,0.0,0.0,-3.1894,0.0,-3.2126,-3.2197,-3.2197,-3.242,-3.2795,-3.2795,-3.3181,-3.3793,-3.3807,-3.3998,-3.4293,-3.4293,-3.434,-3.4416,-3.4473,-3.4628,-3.4821,-3.487,-3.5127,-3.5398,-3.5398,-3.5547,-3.5704,-3.5704,-3.5704,-3.5718,-3.5774,-3.5847,-3.5921,-3.5976,-3.5996,-3.5996,-3.5992,-3.5955,-3.5833,-3.565,-3.5547,-3.55,-3.55,-3.55,-3.55,-3.55,0.0,0.0,0.0,0.0,0.0,-3.5319,-3.5312,-3.5204,-3.4936,-3.4898,0.0,0.0,0.0,0.0,0.0,0.0,0.0,-3.4011,-3.3878,0.0,-3.3789,-3.3545,-3.3393,-3.3393,-3.3393,-3.3393,-3.3393,-3.3393,-3.3393,-3.3393,-3.3393,-3.3393,-3.3378,-3.3322,-3.331,-3.3277,-3.3075,-3.2995,-3.2979,-3.2916,-3.2655,-3.2301,-2.6634,-2.6906,-2.7264,-2.7677,-2.8397,-2.904,-2.9409,-2.9609,-2.971,-2.971,-2.931,-2.9058,-2.9058,-2.9884,-3.049,0.0,-3.0705,-3.0992,0.0,-3.1392,-3.1637,-3.2303,-3.2144,-3.2066,-3.2145,-3.2145,-3.2041,-3.18,0.0,0.0,0.0,-3.2144,-3.2335,-3.2586,-3.2422,-3.2506,-3.2811,-3.3029,-3.3258,-3.3494,-3.3902,-3.4136,-3.4233,-3.4281,-3.434,-3.4416,-3.4484,-3.4649,-3.4889,-3.4997,-3.5205,-3.5418,-3.5565,-3.5656,-3.5701,-3.5694,-3.5737,-3.5774,-3.5847,-3.5922,-3.5975,-3.5996,-3.5995,-3.5993,-3.5934,-3.5816,-3.565,-3.5559,-3.5515,-3.55,-3.55,-3.55,-3.55,-3.55,-3.546,0.0,-3.5405,0.0,-3.5102,-3.5043,-3.4917,-3.4764,-3.4643,-3.4632,0.0,0.0,0.0,0.0,0.0,0.0,0.0,0.0,-3.3752,0.0,-3.3808,-3.3526,-3.3393,-3.3393,-3.3393,-3.3393,-3.3393,-3.3393,-3.3393,-3.3393,-3.3393,-3.3382,-3.3322,-3.3307,-3.3057,-3.2669,-3.262,-3.2403,-3.2109,-3.2092,-3.1985,-3.1895,-2.5535,-2.5761,-2.6147,-2.6716,-2.7426,-2.8073,-2.8595,-2.888,-2.9002,-2.9002,-2.8673,-2.842,-2.8468,-2.9225,0.0,-2.9909,-3.0067,-3.0425,-3.1006,-3.0946,-3.1156,-3.1813,-3.1647,-3.1617,-3.18,-3.18,0.0,-3.18,-3.1929,-3.2055,-3.2197,-3.2249,-3.2422,-3.2654,-3.2573,-3.2719,-3.3016,-3.335,-3.355,-3.3671,-3.4043,-3.4221,-3.4245,-3.4305,-3.4374,-3.4461,-3.4596,-3.4783,-3.5008,-3.5154,-3.5357,-3.5527,-3.5662,-3.5702,-3.5698,-3.5704,-3.5742,-3.5812,-3.5872,-3.5954,-3.5995,-3.5994,-3.597,-3.5935,-3.5803,-3.5685,-3.5577,-3.5515,-3.55,-3.55,-3.55,-3.5486,-3.5439,-3.5361,-3.5285,-3.5211,-3.5111,0.0,-3.4823,0.0,0.0,0.0,0.0,-3.4353,-3.4307,0.0,0.0,0.0,0.0,0.0,0.0,-3.3968,-3.3601,-3.3491,-3.3643,-3.3473,-3.3393,-3.3393,-3.3393,-3.3393,-3.3393,-3.3382,-3.3289,-3.315,-3.3119,-3.2977,-3.2818,-3.2768,-3.2503,-3.2179,-3.2162,-3.1967,-3.1695,-3.1695,-3.1603,-3.1471,-2.4778,-2.492,-2.5202,0.0,-2.6363,-2.6886,-2.7464,-2.8048,-2.8411,-2.8411,-2.8411,-2.8468,-2.8589,-2.8597,-2.8684,-2.8794,0.0,0.0,-2.9705,-2.9815,-3.0208,-3.1024,-3.1123,-3.1353,-3.18,-3.18,-3.1818,-3.1818,-3.2001,-3.2144,-3.2214,-3.2353,-3.244,-3.2474,-3.2718,-3.3032,-3.3364,-3.3666,-3.3947,-3.4185,-3.4197,-3.4245,-3.4305,-3.4374,-3.4443,-3.4542,-3.4802,-3.4999,-3.5154,-3.535,-3.5527,-3.5704,-3.5704,-3.5703,-3.569,-3.5714,-3.5759,-3.5828,-3.5884,-3.5957,-3.5991,-3.5991,-3.5932,-3.583,-3.564,-3.5599,-3.5581,-3.5508,-3.55,-3.5493,-3.5467,-3.5412,-3.5312,-3.5105,-3.5016,-3.4889,-3.4643,-3.4572,-3.454,0.0,0.0,0.0,-3.4166,-3.4111,-3.3972,0.0,0.0,0.0,0.0,0.0,-3.3734,-3.3408,-3.3393,-3.3393,-3.3393,-3.3393,-3.3396,-3.3364,-3.3364,-3.3349,-3.3319,-3.3262,-3.3008,-3.2653,-3.2588,-3.2335,-3.1985,-3.1843,-3.1789,-3.1752,-3.1678,-3.164,-3.1621,-3.1621,-3.1376,-3.1064,0.0,0.0,-2.5328,-2.6322,-2.6613,-2.703,-2.8024,-2.8323,-2.8411,-2.8411,-2.8493,-2.8549,-2.8612,-2.8748,-2.885,-2.8873,-2.892,-2.9036,-2.9243,-2.9924,-3.0435,-3.0642,-3.1276,-3.169,-3.18,-3.18,-3.1892,-3.2019,-3.2126,-3.2249,-3.2354,-3.2588,-3.2846,-3.3081,-3.3139,-3.3379,-3.3694,-3.378,-3.3855,-3.3985,-3.4197,-3.4316,-3.4374,-3.445,-3.4575,-3.4733,-3.4851,-3.5075,-3.535,-3.5385,-3.5527,-3.5704,-3.5704,-3.5704,-3.5702,-3.5768,-3.5812,-3.589,-3.5957,-3.5993,-3.5991,-3.6007,-3.5875,-3.5714,-3.5611,-3.5558,-3.5521,-3.5507,-3.546,-3.5383,-3.5223,-3.5147,-3.5034,-3.4841,-3.4744,-3.4665,-3.4603,-3.4416,-3.4286,0.0,-3.4093,-3.3915,-3.3815,-3.3788,-3.3753,0.0,0.0,0.0,-3.3132,-3.2908,-3.297,-3.3378,-3.3393,-3.3393,-3.3393,-3.3393,-3.3256,-3.2939,-3.2939,-3.2747,-3.2401,-3.2401,-3.2299,-3.2144,-3.2144,-3.2021,-3.1843,-3.1825,-3.1587,-3.1261,-3.1242,-3.1064,-3.0781,-3.0781,-3.072,-3.0576,-2.523,-2.537,-2.5756,-2.686,-2.7067,-2.7363,-2.8259,-2.8444,-2.8493,-2.8493,-2.8612,-2.8692,-2.8724,-2.8826,-2.902,-2.9296,-2.9113,-2.9205,-2.9722,-3.0225,-3.0683,-3.1081,-3.1559,-3.18,-3.18,-3.1838,-3.1947,-3.2144,-3.2179,-3.2336,-3.2589,-3.2732,-3.2986,-3.3306,-3.3451,-3.3652,-3.3842,-3.3972,-3.4074,-3.4136,-3.4281,-3.4381,-3.4427,-3.4575,-3.4693,-3.4822,-3.506,-3.5255,-3.5412,-3.5509,-3.5614,-3.5695,-3.5703,-3.5721,-3.5755,-3.5836,-3.5863,-3.5916,-3.5973,-3.6006,-3.5978,-3.5882,-3.5767,-3.5645,-3.557,-3.5509,-3.5453,-3.5453,-3.5405,-3.5293,-3.5086,-3.4988,-3.4851,-3.4521,-3.4431,-3.4371,-3.4237,-3.4117,-3.4011,-3.3972,-3.3842,-3.3684,-3.3455,-3.3397,-3.3294,-3.3081,-3.2844,0.0,-3.2685,-3.2469,-3.2519,-3.2896,-3.2896,-3.2896,-3.2896,-3.2896,-3.2782,-3.2568,-3.2501,-3.235,-3.2109,-3.2004,-3.1843,-3.1694,-3.1621,-3.1435,-3.1206,-3.1206,-3.1067,-3.0821,-3.0781,-3.0654,-3.0422,-3.0194,-3.0049,-2.9946,-2.5647,-2.5839,-2.619,-2.721,-2.7464,-2.7705,-2.8323,-2.8517,-2.8597,-2.8597,-2.8732,-2.885,-2.8881,-2.8904,-2.9136,-2.9655,-2.9403,-2.9566,-3.0456,-3.0559,-3.0925,-3.1671,-3.1764,-3.1837,-3.1837,-3.1893,-3.2055,-3.2284,-3.2301,-3.2487,-3.2874,-3.2937,-3.3105,-3.3408,-3.373,-3.3921,-3.3985,-3.4221,-3.4351,-3.4427,-3.4427,-3.4431,-3.4498,-3.4742,-3.4841,-3.4944,-3.5273,-3.5412,-3.547,-3.5637,-3.5706,-3.5698,-3.5704,-3.5752,-3.5825,-3.587,-3.5896,-3.5918,-3.5965,-3.5968,-3.5919,-3.5737,-3.5631,-3.5568,-3.5508,-3.5427,-3.5379,-3.5379,-3.5308,-3.5176,-3.4971,-3.486,-3.4656,-3.42,-3.4136,-3.4049,-3.3748,0.0,-3.3666,-3.3522,-3.3526,-3.3379,-3.3034,-3.2941,-3.2766,-3.2419,-3.2283,-3.2214,-3.2214,-3.2162,-3.2127,-3.2127,-3.2248,-3.23,-3.23,-3.23,-3.2266,-3.2179,-3.2074,-3.1986,-3.188,-3.1716,-3.1454,-3.1179,-3.1064,-3.0821,-3.0506,-3.0506,-3.0489,-3.0485,-3.0338,-3.0274,-3.0194,-2.9677,-2.94,-2.9225,-2.509,-2.5564,-2.6096,-2.6718,-2.7195,-2.7705,-2.8323,-2.8517,-2.8597,-2.8597,-2.8771,-2.8897,-2.8904,-2.899,-2.9098,-2.9213,-2.9499,-2.9924,-3.0456,-3.0825,-3.1064,-3.1201,-3.1637,-3.1876,-3.1876,-3.2055,-3.2318,-3.262,-3.2668,-3.2874,-3.3229,-3.356,-3.3757,-3.3829,-3.4161,-3.4305,-3.4328,-3.4381,-3.4409,-3.4484,-3.4484,-3.4618,-3.4821,-3.486,-3.5069,-3.5328,-3.5378,-3.5515,-3.5668,-3.5687,-3.5703,-3.5718,-3.5767,-3.5836,-3.5891,-3.5896,-3.5892,-3.589,-3.5912,-3.5827,-3.5733,-3.5645,-3.5563,-3.55,-3.5429,-3.5364,-3.5315,-3.5315,-3.5136,-3.4897,-3.4695,-3.4472,-3.4215,-3.3902,-3.3868,-3.3734,-3.3346,0.0,-3.3136,-3.2729,-3.2681,-3.2632,-3.2519,-3.2503,-3.2436,-3.2334,-3.2003,-3.1787,-3.1787,-3.1524,-3.1368,-3.1368,-3.1985,-3.23,-3.23,-3.23,-3.2109,-3.1714,-3.1695,-3.1414,-3.0922,-3.0882,-3.0777,-3.0613,-3.0593,-3.0551,-3.0506,-3.0506,-3.0464,-3.0359,-2.9903,-2.9651,-2.9512,-2.9012,-2.8826,-2.8646,-2.6215,-2.6561,-2.6941,-2.7519,-2.7835,-2.8073,-2.8348,-2.8517,-2.8636,-2.8684,-2.8818,-2.8943,-2.899,-2.9289,-2.9566,-2.9815,-3.0251,-3.0686,-3.1179,-3.1142,-3.1201,-3.1485,-3.1748,-3.2038,-3.2318,-3.242,-3.2653,-3.3016,-3.3063,-3.3243,-3.3564,-3.3762,-3.3947,-3.4124,-3.4281,-3.4393,-3.4461,-3.4461,-3.4561,-3.473,-3.473,-3.4832,-3.5015,-3.5136,-3.5277,-3.5412,-3.552,-3.5623,-3.5702,-3.5745,-3.5761,-3.5768,-3.5838,-3.588,-3.5898,-3.5891,-3.5898,-3.5872,-3.5807,-3.5685,-3.5591,-3.5557,-3.547,-3.5385,-3.5352,-3.5219,-3.5083,-3.5083,-3.4879,-3.4615,-3.4416,-3.4274,-3.4043,-3.3606,-3.3494,-3.3346,-3.2986,-3.2874,-3.2729,-3.2485,-3.2452,-3.2334,-3.2056,-3.2003,-3.1932,-3.1712,-3.1543,-3.1428,-3.1428,-3.1271,-3.119,-3.119,-3.1468,-3.1601,-3.1601,-3.1564,-3.1449,-3.1235,-3.1159,-3.0978,-3.0692,-3.063,-3.0568,-3.0506,-3.0506,-3.0363,-3.0113,-3.0054,-2.9837,-2.9544,-2.915,-2.8779,-2.8363,-2.7871,-2.7425,-2.6979,-2.7144,-2.7414,-2.7655,-2.8162,-2.8348,-2.846,-2.8484,-2.8597,-2.874,-2.8967,-2.9059,-2.9182,-2.9403,-2.9766,-3.0118,-3.0477,-3.0865,-3.1276,-3.1653,-3.143,-3.1449,-3.1801,-3.1984,-3.2317,-3.283,-3.2829,-3.3016,-3.3422,-3.3422,-3.3578,-3.3895,-3.3921,-3.4074,-3.4316,-3.4351,-3.4443,-3.4586,-3.4586,-3.4732,-3.4954,-3.4954,-3.5032,-3.5185,-3.5345,-3.5432,-3.5496,-3.5637,-3.5713,-3.5732,-3.5783,-3.581,-3.5829,-3.5887,-3.5917,-3.5915,-3.5886,-3.5833,-3.5779,-3.5672,-3.556,-3.5438,-3.5412,-3.5283,-3.5192,-3.5152,-3.498,-3.4813,-3.4813,-3.4614,-3.4383,-3.4221,-3.4055,-3.3805,-3.3317,0.0,-3.2905,-3.2535,-3.2401,-3.2282,-3.2144,-3.2127,-3.1985,-3.162,-3.1582,-3.1468,-3.121,-3.119,-3.119,-3.1151,-3.1151,-3.1151,-3.1131,-3.1052,-3.0995,-3.0992,-3.0932,-3.0892,-3.0851,-3.0651,-3.0589,-3.0651,-3.0321,-3.022,-3.0342,-3.022,-2.9962,-2.9572,-2.9345,-2.8988,-2.8551,-2.8088,-2.76,-2.7102,-2.655,-2.6023,-2.5466,-2.673,-2.717,-2.754,-2.7705,-2.8204,-2.8636,-2.8747,-2.8834,-2.9044,-2.9477,-2.9639,-2.9903,-3.0351,-3.0435,-3.0456,-3.0497,-3.0865,-3.1162,-3.1315,-3.1656,-3.1858,-3.1894,-3.2369,-3.2829,-3.3262,-3.3262,-3.3422,-3.3762,-3.3762,-3.3908,-3.4173,-3.4293,-3.4363,-3.4404,-3.4517,-3.4689,-3.486,-3.486,-3.4954,-3.5089,-3.5089,-3.5193,-3.5385,-3.5393,-3.5519,-3.5678,-3.5694,-3.5743,-3.5797,-3.5801,-3.5834,-3.5895,-3.5898,-3.5931,-3.5978,-3.583,-3.5676,-3.5531,-3.5519,-3.5412,-3.5274,-3.5083,-3.4978,-3.4879,-3.4695,-3.4593,-3.454,-3.454,-3.4371,-3.4209,-3.4124,-3.3657,-3.3243,-3.3142,0.0,0.0,-3.1915,-3.1861,-3.1715,-3.1329,-3.1288,-3.1271,-3.1249,-3.1249,-3.123,-3.119,-3.119,-3.1151,-3.1015,-3.1015,-3.0975,-3.0932,-3.0955,-3.0955,-3.0912,-3.0892,-3.0851,-3.0712,-3.0262,-3.022,-3.0468,-2.9595,-2.9438,-2.9832,-2.9393,-2.9097,-2.8912,-2.8355,-2.7948,-2.7579,-2.6521,-2.598,-2.5793,-2.5315,-2.5119,-2.4979,-2.767,-2.791,-2.8097,-2.8229,-2.8453,-2.8724,-2.9113,-2.9189,-2.94,-2.9951,-3.0097,-3.0225,-3.0477,-3.0707,-3.0868,-3.0868,-3.1317,-3.1637,-3.1674,-3.1893,-3.2037,-3.2073,-3.2668,-3.3093,-3.3306,-3.3494,-3.377,-3.4111,-3.4111,-3.4185,-3.4328,-3.4502,-3.4609,-3.4651,-3.4784,-3.4916,-3.5024,-3.5024,-3.513,-3.5285,-3.5285,-3.5406,-3.5596,-3.5588,-3.5639,-3.5704,-3.5749,-3.5774,-3.5813,-3.5848,-3.5873,-3.5918,-3.5951,-3.5924,-3.5839,-3.5626,-3.5476,-3.5345,-3.5176,-3.5092,-3.4987,-3.4794,-3.4705,-3.4626,-3.4561,-3.4409,-3.4237,-3.3938,-3.3718,-3.3486,-3.3174,-3.2916,-3.2681,-3.2452,0.0,-3.1933,-3.1547,-3.1451,-3.137,-3.121,-3.119,-3.119,-3.119,-3.119,-3.1171,-3.1092,-3.1092,-3.1052,-3.0952,-3.0617,-3.0251,-2.987,-2.9876,-3.0166,-3.0773,-3.0389,-3.0199,-3.0135,-2.9661,-2.9506,-2.9617,-2.9257,-2.9143,-2.9212,-2.8646,-2.8139,-2.7665,-2.6986,-2.6483,-2.6049,-2.5549,-2.5078,-2.4697,-2.4509,-2.4192,-2.3725,-2.8323,-2.8411,-2.8493,-2.8803,-2.885,-2.9044,-2.9651,-2.9739,-2.9935,-3.0481,-3.0543,-3.0645,-3.0885,-3.1142,-3.1334,-3.1355,-3.1693,-3.1966,-3.2144,-3.2436,-3.2603,-3.2521,-3.3078,-3.3447,-3.3574,-3.3823,-3.4074,-3.4293,-3.4379,-3.4446,-3.4509,-3.4695,-3.4813,-3.487,-3.4977,-3.5095,-3.5189,-3.5189,-3.5306,-3.5486,-3.5486,-3.5588,-3.5694,-3.5711,-3.5724,-3.5741,-3.5816,-3.5834,-3.5838,-3.5876,-3.5897,-3.5907,-3.5923,-3.5816,-3.5648,-3.5443,-3.5292,-3.5126,-3.486,-3.4734,-3.4655,-3.4516,-3.445,-3.4375,-3.4272,-3.4056,-3.3787,-3.3441,-3.3156,-3.289,-3.2535,-3.2367,-3.2196,-3.195,-3.175,-3.1528,-3.1312,-3.1232,-3.119,-3.119,-3.119,-3.1131,-3.0955,-3.0918,-3.0797,-3.0518,-3.0497,-3.0456,-3.0372,-2.9995,-2.9585,-2.9187,-2.8972,-2.9223,-2.9919,-2.9689,-2.9572,-2.9572,-2.8904,-2.867,-2.8795,-2.8258,-2.8024,-2.8058,-2.7445,-2.6887,-2.6369,-2.5685,-2.5162,-2.4809,-2.4538,-2.4005,-2.3475,-2.3475,-2.304,-2.2414,-2.8411,-2.8411,-2.8605,-2.9287,-2.9406,-2.9651,-3.0377,-3.0497,-3.0662,-3.1064,-3.1103,-3.1278,-3.1746,-3.18,-3.1838,-3.1894,-3.1912,-3.2127,-3.2669,-3.3375,-3.362,-3.3229,-3.3578,-3.3921,-3.4185,-3.4269,-3.4305,-3.4305,-3.4559,-3.4694,-3.4704,-3.4915,-3.5001,-3.5009,-3.507,-3.5212,-3.5393,-3.5393,-3.5523,-3.5708,-3.5708,-3.5708,-3.5703,-3.5774,-3.581,-3.5819,-3.588,-3.5891,-3.5898,-3.5898,-3.59,-3.5886,-3.5813,-3.5606,-3.5406,-3.5405,-3.5168,-3.4841,-3.4561,-3.4348,-3.4197,-3.4197,-3.4197,-3.4111,-3.378,-3.3437,-3.3184,-3.3111,-3.2763,-3.2467,-3.2384,-3.2057,-3.1771,-3.1714,-3.1428,-3.119,-3.119,-3.119,-3.119,-3.119,-3.119,-3.0938,-3.0372,-3.0309,-3.0043,-2.9451,-2.9384,-2.9323,-2.9178,-2.9111,-2.9074,-2.9074,-2.8489,-2.8181,-2.8181,-2.8771,-2.9074,-2.9074,-2.7991,-2.7739,-2.8108,-2.6383,-2.5848,-2.6256,-2.5645,-2.5315,-2.5147,-2.4538,-2.4205,-2.4002,-2.3335,-2.2689,-2.2082,-2.2082,-2.1678,-2.106,-2.8676,-2.8676,-2.8755,-2.902,-2.9325,-2.9772,-3.0414,-3.0744,-3.1083,-3.1542,-3.1618,-3.1694,-3.1857,-3.2162,-3.237,-3.2386,-3.2651,-3.289,-3.3111,-3.3536,-3.381,-3.3828,-3.3986,-3.4036,-3.3921,-3.4302,-3.4526,-3.4569,-3.4794,-3.4933,-3.4996,-3.5185,-3.5276,-3.5295,-3.5451,-3.5546,-3.5612,-3.561,-3.5653,-3.5708,-3.5747,-3.5803,-3.585,-3.5855,-3.5868,-3.5861,-3.5891,-3.5898,-3.5896,-3.5845,-3.5838,-3.5797,-3.5573,-3.5448,-3.5347,-3.5117,-3.4982,-3.4802,-3.4337,-3.4166,-3.4086,-3.3895,-3.3842,-3.3748,-3.3364,-3.3202,-3.2937,-3.2333,-3.2092,-3.1915,-3.1618,-3.1449,-3.137,-3.1351,-3.1269,-3.119,-3.119,-3.0838,-3.0679,-3.1015,-3.0393,-2.9995,-3.0145,-2.9848,-2.9546,-2.9284,-2.8818,-2.8403,-2.8048,-2.76,-2.7172,-2.6805,-2.6608,-2.6529,-2.6529,-2.7056,-2.736,-2.7335,-2.6634,-2.6332,-2.6371,-2.585,-2.5563,-2.548,-2.4881,-2.4538,-2.4379,-2.3738,-2.316,-2.2695,-2.2482,-2.199,-2.1408,-2.1408,-2.1164,-2.0803,-2.8794,-2.8944,-2.9129,-2.9416,-2.9827,-3.0318,-3.0925,-3.1218,-3.1485,-3.1746,-3.1948,-3.2073,-3.2091,-3.2469,-3.275,-3.283,-3.3217,-3.3486,-3.3611,-3.3924,-3.4225,-3.4449,-3.4478,-3.442,-3.423,-3.4566,-3.4775,-3.4823,-3.5045,-3.5185,-3.5216,-3.5412,-3.5521,-3.5521,-3.5648,-3.5711,-3.5702,-3.5728,-3.5756,-3.5772,-3.5823,-3.5859,-3.5901,-3.59,-3.5899,-3.5895,-3.5873,-3.5857,-3.5843,-3.5756,-3.5698,-3.5621,-3.5419,-3.5288,-3.5162,-3.4926,-3.4723,-3.4513,-3.4173,-3.3985,-3.3829,-3.3498,-3.3441,-3.3397,-3.3111,-3.2795,-3.2434,-3.1861,-3.1641,-3.1488,-3.1232,-3.119,-3.1171,-3.1131,-3.0975,-3.0838,-3.076,-3.0293,-3.0059,-3.033,-2.9783,-2.9323,-2.9139,-2.8841,-2.8466,-2.7905,-2.7485,-2.7121,-2.6857,-2.6477,-2.6131,-2.581,-2.5577,-2.5481,-2.5481,-2.5522,-2.5767,-2.6197,-2.5618,-2.5287,-2.5147,-2.4879,-2.4652,-2.4452,-2.3741,-2.3386,-2.3267,-2.2586,-2.2063,-2.171,-2.171,-2.1239,-2.0581,-2.0581,-2.0279,-1.9781,-2.8944,-2.925,-2.9673,-3.023,-3.0633,-3.1111,-3.1691,-3.1819,-3.1856,-3.1893,-3.2162,-3.2403,-3.2469,-3.2777,-3.306,-3.3258,-3.3648,-3.3955,-3.4137,-3.4459,-3.4745,-3.5025,-3.5024,-3.5015,-3.4969,-3.4992,-3.5026,-3.5026,-3.5302,-3.5438,-3.5425,-3.5601,-3.569,-3.5695,-3.5713,-3.5718,-3.5703,-3.5773,-3.5841,-3.5897,-3.5883,-3.5894,-3.5886,-3.5879,-3.5876,-3.5868,-3.5799,-3.5785,-3.5756,-3.5611,-3.5454,-3.5299,-3.5246,-3.5054,-3.4831,-3.4753,-3.4405,-3.4018,-3.3928,-3.3707,-3.3397,-3.3037,-3.2957,-3.2972,-3.2912,-3.2317,-3.177,-3.1677,-3.1389,-3.1151,-3.1151,-3.1095,-3.1015,-3.0878,-3.0514,-3.0187,-3.0059,-2.9629,-2.9316,-2.93,-2.921,-2.8717,-2.7625,-2.7475,-2.6983,-2.5892,-2.5728,-2.5701,-2.5701,-2.566,-2.5632,-2.5632,-2.509,-2.4793,-2.4793,-2.407,-2.4276,-2.5439,-2.4809,-2.4439,-2.4279,-2.3543,-2.321,-2.315,-2.2372,-2.2009,-2.1947,-2.1345,-2.106,-2.0996,-2.0996,-2.0452,-1.9715,-1.9606,-1.9088,-1.8236,-3.0118,-3.0187,-3.0293,-3.0418,-3.0788,-3.1186,-3.1571,-3.1967,-3.23,-3.2634,-3.2829,-3.2939,-3.3032,-3.3375,-3.3648,-3.373,-3.4201,-3.4518,-3.4563,-3.4784,-3.5006,-3.5227,-3.5235,-3.529,-3.5457,-3.5304,-3.5234,-3.5234,-3.5496,-3.5623,-3.5646,-3.5687,-3.5688,-3.5694,-3.576,-3.5776,-3.5783,-3.585,-3.5882,-3.5896,-3.5848,-3.582,-3.5805,-3.5713,-3.5677,-3.5663,-3.5646,-3.5635,-3.5601,-3.5308,-3.4937,-3.4608,-3.4605,-3.451,-3.4409,-3.422,-3.3867,-3.3497,-3.3273,-3.2939,-3.2635,-3.2486,-3.2231,-3.2003,-3.1985,-3.186,-3.164,-3.137,-3.0958,-3.0642,-3.0642,-3.0272,-2.9935,-2.9913,-2.9739,-2.9585,-2.9563,-2.9058,-2.8693,-2.8623,-2.7828,-2.7155,-2.685,-2.6436,-2.6094,-2.581,-2.5259,-2.4922,-2.4922,-2.4536,-2.4303,-2.4303,-2.3623,-2.3272,-2.3272,-2.25,-2.2829,-2.4274,-2.3446,-2.2985,-2.2816,-2.2156,-2.1765,-2.1596,-2.1408,-2.1313,-2.1313,-2.1155,-2.0773,-2.0291,-2.0128,-1.9649,-1.8931,-1.8186,-1.7687,-1.7251,-3.0497,-3.0645,-3.0804,-3.0804,-3.1164,-3.1547,-3.1716,-3.202,-3.2335,-3.2716,-3.2972,-3.3169,-3.3372,-3.3711,-3.4018,-3.422,-3.4526,-3.4774,-3.4968,-3.507,-3.5243,-3.5489,-3.5494,-3.5535,-3.5645,-3.5582,-3.5512,-3.5489,-3.5629,-3.5728,-3.5739,-3.5739,-3.5749,-3.5758,-3.5822,-3.5858,-3.5844,-3.5821,-3.5817,-3.584,-3.5746,-3.5702,-3.5697,-3.564,-3.5599,-3.5582,-3.553,-3.5387,-3.5178,-3.4831,-3.4566,-3.4357,-3.4357,-3.4134,-3.3837,-3.371,-3.3313,-3.2898,-3.2699,-3.2503,-3.23,-3.2074,-3.1679,-3.142,-3.1658,-3.1414,-3.1067,-3.0821,-3.0414,-3.0043,-2.9995,-2.9717,-2.9413,-2.9094,-2.8732,-2.8426,-2.8108,-2.7565,-2.7202,-2.7157,-2.6622,-2.6162,-2.5876,-2.5245,-2.4893,-2.4893,-2.415,-2.3699,-2.3699,-2.313,-2.2811,-2.2811,-2.2421,-2.2224,-2.2224,-2.1741,-2.192,-2.2702,-2.2249,-2.1928,-2.1784,-2.142,-2.1187,-2.1092,-2.0773,-2.0613,-2.0549,-1.9781,-1.9255,-1.89,-1.8345,-1.7872,-1.7404,-1.6913,-1.6393,-1.5842,-3.0723,-3.0985,-3.124,-3.1298,-3.1675,-3.202,-3.2144,-3.2266,-3.2454,-3.2814,-3.3093,-3.339,-3.368,-3.4012,-3.4314,-3.4612,-3.4754,-3.4968,-3.5313,-3.5354,-3.5476,-3.5718,-3.572,-3.5714,-3.5716,-3.5769,-3.5765,-3.5727,-3.5727,-3.5741,-3.5824,-3.5824,-3.5799,-3.5788,-3.5858,-3.5867,-3.5833,-3.5739,-3.5715,-3.5756,-3.5626,-3.5579,-3.5553,-3.5551,-3.5513,-3.5449,-3.5341,-3.5018,-3.4612,-3.4334,-3.4206,-3.4159,-3.4092,-3.3708,-3.3295,-3.3161,-3.2741,-3.2283,-3.2196,-3.2162,-3.2021,-3.1658,-3.123,-3.0962,-3.1342,-3.0871,-3.0314,-3.0208,-2.9783,-2.9368,-2.9171,-2.9034,-2.8763,-2.8093,-2.7595,-2.7096,-2.6538,-2.6092,-2.5769,-2.5687,-2.555,-2.5245,-2.4666,-2.4057,-2.3628,-2.3509,-2.2811,-2.2378,-2.2378,-2.1865,-2.1553,-2.1553,-2.1428,-2.1396,-2.1396,-2.1123,-2.1008,-2.0996,-2.0837,-2.0826,-2.0933,-2.0773,-2.0709,-2.0677,-1.9955,-1.9628,-1.9529,-1.8061,-1.7457,-1.7389,-1.6585,-1.6158,-1.5965,-1.5825,-1.5199,-1.4394,-3.1615,-3.1671,-3.1801,-3.2091,-3.2197,-3.247,-3.3105,-3.3211,-3.3386,-3.3831,-3.3941,-3.4005,-3.4105,-3.4416,-3.4653,-3.4763,-3.5089,-3.5353,-3.5471,-3.5587,-3.5682,-3.5781,-3.5794,-3.5786,-3.578,-3.5807,-3.579,-3.5788,-3.5788,-3.5817,-3.5892,-3.5892,-3.5821,-3.5723,-3.5772,-3.5744,-3.5633,-3.5613,-3.5627,-3.5624,-3.554,-3.5486,-3.5412,-3.5355,-3.5171,-3.4916,-3.4889,-3.454,-3.4093,-3.4055,-3.3855,-3.3559,-3.3276,-3.3029,-3.2825,-3.2517,-3.2127,-3.1787,-3.1787,-3.1581,-3.131,-3.1154,-3.0744,-3.0381,-3.0318,-3.0,-2.9717,-2.9695,-2.9225,-2.8654,-2.8124,-2.759,-2.7052,-2.6409,-2.6172,-2.6013,-2.5932,-2.5837,-2.5632,-2.516,-2.4563,-2.3868,-2.3165,-2.2895,-2.2543,-2.1959,-2.169,-2.1565,-2.1565,-2.1482,-2.142,-2.142,-2.0826,-2.0494,-2.0494,-1.977,-1.9429,-1.9396,-1.8576,-1.89,-2.0193,-1.9452,-1.9098,-1.9065,-1.8162,-1.777,-1.7702,-1.6853,-1.6481,-1.6446,-1.6149,-1.6,-1.5895,-1.5092,-1.4294,-1.3637,-3.1856,-3.2002,-3.2214,-3.242,-3.2653,-3.2923,-3.3243,-3.3361,-3.3546,-3.3947,-3.4093,-3.4253,-3.445,-3.4756,-3.4983,-3.5113,-3.5373,-3.5563,-3.5652,-3.5719,-3.5774,-3.5802,-3.5836,-3.5854,-3.5861,-3.5859,-3.5858,-3.5855,-3.5865,-3.5841,-3.584,-3.584,-3.579,-3.5697,-3.5729,-3.5686,-3.5607,-3.5512,-3.5496,-3.5479,-3.5364,-3.5216,-3.5064,-3.499,-3.4774,-3.4508,-3.4311,-3.4086,-3.3826,-3.3472,-3.3243,-3.305,-3.27,-3.2401,-3.2109,-3.17,-3.1251,-3.0854,-3.0595,-3.0365,-3.0187,-3.0123,-2.9761,-2.9384,-2.9339,-2.8686,-2.817,-2.8426,-2.8048,-2.7485,-2.6802,-2.6479,-2.6108,-2.5536,-2.5384,-2.5231,-2.4907,-2.4637,-2.4179,-2.3463,-2.295,-2.2494,-2.2163,-2.2021,-2.1815,-2.1502,-2.0965,-2.0677,-2.0677,-2.0323,-2.0139,-2.0139,-1.9802,-1.9507,-1.9177,-1.8831,-1.8395,-1.7867,-1.7457,-1.7789,-1.8744,-1.7823,-1.7413,-1.7379,-1.6966,-1.6784,-1.6715,-1.5877,-1.5534,-1.5463,-1.4824,-1.4386,-1.4055,-1.3637,-1.3062,-1.2489]},{"header":{"parameterUnit":"m.s-1","parameterCategory":1,"la1":30.6,"la2":28.766,"lo1":-90.7593,"lo2":-88.6598,"dy":0.0162,"dx":0.0183,"nx":116,"ny":114,"refTime":"2023-08-18T12:00:00:Z","depth":0,"parameterNumber":3,"parameterNumberName":"V-component_of_WINDS"},"data":[0.0,0.0,0.0,0.0,0.0,0.0,0.0,0.0,0.0,0.0,0.0,0.0,0.0,0.0,0.0,0.0,0.0,0.0,0.0,0.0,0.0,0.0,0.0,0.0,0.0,0.0,0.0,0.0,0.0,0.0,0.0,0.0,0.0,0.0,0.0,0.0,0.0,0.0,0.0,0.0,0.0,0.0,0.0,0.0,0.0,0.0,0.0,0.0,0.0,0.0,0.0,0.0,0.0,0.0,0.0,0.0,0.0,0.0,0.0,0.0,0.0,0.0,0.0,0.0,0.0,0.0,0.0,0.0,0.0,0.0,0.0,0.0,0.0,0.0,0.0,0.0,0.0,0.0,0.0,0.0,0.0,0.0,0.0,0.0,0.0,0.0,0.0,0.0,0.0,0.0,0.0,0.0,0.0,0.0,0.0,0.0,0.0,0.0,0.0,0.0,0.0,0.0,0.0,0.0,0.0,0.0,0.0,0.0,0.0,0.0,0.0,0.0,0.0,0.0,0.0,0.0,0.0,0.0,0.0,0.0,0.0,0.0,0.0,0.0,0.0,0.0,0.0,0.0,0.0,0.0,0.0,0.0,0.0,0.0,0.0,0.0,0.0,0.0,0.0,0.0,0.0,0.0,0.0,0.0,0.0,0.0,0.0,0.0,0.0,0.0,0.0,0.0,0.0,0.0,0.0,0.0,0.0,0.0,0.0,0.0,0.0,0.0,0.0,0.0,0.0,0.0,0.0,0.0,0.0,0.0,0.0,0.0,0.0,0.0,0.0,0.0,0.0,0.0,0.0,0.0,0.0,0.0,0.0,0.0,0.0,0.0,0.0,0.0,0.0,0.0,0.0,0.0,0.0,0.0,0.0,0.0,0.0,0.0,0.0,0.0,0.0,0.0,0.0,0.0,0.0,0.0,0.0,0.0,0.0,0.0,0.0,0.0,0.0,0.0,0.0,0.0,0.0,0.0,0.0,0.0,0.0,0.0,0.0,0.0,0.0,0.0,0.0,0.0,0.0,0.0,0.0,0.0,0.0,0.0,0.0,0.0,0.0,0.0,0.0,0.0,0.0,0.0,0.0,0.0,0.0,0.0,0.0,0.0,0.0,0.0,0.0,0.0,0.0,0.0,0.0,0.0,0.0,0.0,0.0,0.0,0.0,0.0,0.0,0.0,0.0,0.0,0.0,0.0,0.0,0.0,0.0,0.0,0.0,0.0,0.0,0.0,0.0,0.0,0.0,0.0,0.0,0.0,0.0,0.0,0.0,0.0,0.0,0.0,0.0,0.0,0.0,0.0,0.0,0.0,0.0,0.0,0.0,0.0,0.0,0.0,0.0,0.0,0.0,0.0,0.0,0.0,0.0,0.0,0.0,0.0,0.0,0.0,0.0,0.0,0.0,0.0,0.0,0.0,0.0,0.0,0.0,0.0,0.0,0.0,0.0,0.0,0.0,0.0,0.0,0.0,0.0,0.0,0.0,0.0,0.0,0.0,0.0,0.0,0.0,0.0,0.0,0.0,0.0,0.0,0.0,0.0,0.0,0.0,0.0,0.0,0.0,0.0,0.0,0.0,0.0,0.0,0.0,0.0,0.0,0.0,0.0,0.0,0.0,0.0,0.0,0.0,0.0,0.0,0.0,0.0,0.0,0.0,0.0,0.0,0.0,0.0,0.0,0.0,0.0,0.0,0.0,0.0,0.0,0.0,0.0,0.0,0.0,0.0,0.0,0.0,0.0,0.0,0.0,0.0,0.0,0.0,0.0,0.0,0.0,0.0,0.0,0.0,0.0,0.0,0.0,0.0,0.0,0.0,0.0,0.0,0.0,0.0,0.0,0.0,0.0,0.0,0.0,0.0,0.0,0.0,0.0,0.0,0.0,0.0,0.0,0.0,0.0,0.0,0.0,0.0,0.0,0.0,0.0,0.0,0.0,0.0,0.0,0.0,0.0,0.0,0.0,0.0,0.0,0.0,0.0,0.0,0.0,0.0,0.0,0.0,0.0,0.0,0.0,0.0,0.0,0.0,0.0,0.0,0.0,0.0,0.0,0.0,0.0,0.0,0.0,0.0,0.0,0.0,0.0,0.0,0.0,0.0,0.0,0.0,0.0,0.0,0.0,0.0,0.0,0.0,0.0,0.0,0.0,0.0,0.0,0.0,0.0,0.0,0.0,0.0,0.0,0.0,0.0,0.0,0.0,0.0,0.0,0.0,0.0,0.0,0.0,0.0,0.0,0.0,0.0,0.0,0.0,0.0,0.0,0.0,0.0,0.0,0.0,0.0,0.0,0.0,0.0,0.0,0.0,0.0,0.0,0.0,0.0,0.0,0.0,0.0,0.0,0.0,0.0,0.0,0.0,0.0,0.0,0.0,0.0,0.0,0.0,0.0,0.0,0.0,0.0,0.0,0.0,0.0,0.0,0.0,0.0,0.0,0.0,0.0,0.0,0.0,0.0,0.0,0.0,0.0,0.0,0.0,0.0,0.0,0.0,0.0,0.0,0.0,0.0,0.0,0.0,0.0,0.0,0.0,0.0,0.0,0.0,0.0,0.0,0.0,0.0,0.0,0.0,0.0,0.0,0.0,0.0,0.0,0.0,0.0,0.0,0.0,0.0,0.0,0.0,0.0,0.0,0.0,0.0,0.0,0.0,0.0,0.0,0.0,0.0,0.0,0.0,0.0,0.0,0.0,0.0,0.0,0.0,0.0,0.0,0.0,0.0,0.0,0.0,0.0,0.0,0.0,0.0,0.0,0.0,0.0,0.0,0.0,0.0,0.0,0.0,0.0,0.0,0.0,0.0,0.0,0.0,0.0,0.0,0.0,0.0,0.0,0.0,0.0,0.0,0.0,0.0,0.0,0.0,0.0,0.0,0.0,0.0,0.0,0.0,0.0,0.0,0.0,0.0,0.0,0.0,0.0,0.0,0.0,0.0,0.0,0.0,0.0,0.0,0.0,0.0,0.0,0.0,0.0,0.0,0.0,0.0,0.0,0.0,0.0,0.0,0.0,0.0,0.0,0.0,0.0,0.0,0.0,0.0,0.0,0.0,0.0,0.0,0.0,0.0,0.0,0.0,0.0,0.0,0.0,0.0,0.0,0.0,0.0,0.0,0.0,0.0,0.0,0.0,0.0,0.0,0.0,0.0,0.0,0.0,0.0,0.0,0.0,0.0,0.0,0.0,0.0,0.0,0.0,0.0,0.0,0.0,0.0,0.0,0.0,0.0,0.0,0.0,0.0,0.0,0.0,0.0,0.0,0.0,0.0,0.0,0.0,0.0,0.0,0.0,0.0,0.0,0.0,0.0,0.0,0.0,0.0,0.0,0.0,0.0,0.0,0.0,0.0,0.0,0.0,0.0,0.0,0.0,0.0,0.0,0.0,0.0,0.0,0.0,0.0,0.0,0.0,0.0,0.0,0.0,0.0,0.0,0.0,0.0,0.0,0.0,0.0,0.0,0.0,0.0,0.0,0.0,0.0,0.0,0.0,0.0,0.0,0.0,0.0,0.0,0.0,0.0,0.0,0.0,0.0,0.0,0.0,0.0,0.0,0.0,0.0,0.0,0.0,0.0,0.0,0.0,0.0,0.0,0.0,0.0,0.0,0.0,0.0,0.0,0.0,0.0,0.0,0.0,0.0,0.0,0.0,0.0,0.0,0.0,0.0,0.0,0.0,0.0,0.0,0.0,0.0,0.0,0.0,0.0,0.0,0.0,0.0,0.0,0.0,0.0,0.0,0.0,0.0,0.0,0.0,0.0,0.0,0.0,0.0,0.0,0.0,0.0,0.0,0.0,0.0,0.0,0.0,0.0,0.0,0.0,0.0,0.0,0.0,0.0,0.0,0.0,0.0,0.0,0.0,0.0,0.0,0.0,0.0,0.0,0.0,0.0,0.0,0.0,0.0,0.0,0.0,0.0,0.0,0.0,0.0,0.0,0.0,0.0,0.0,0.0,0.0,0.0,0.0,0.0,0.0,0.0,0.0,0.0,0.0,0.0,0.0,0.0,0.0,0.0,0.0,0.0,0.0,0.0,0.0,0.0,0.0,0.0,0.0,0.0,0.0,0.0,0.0,0.0,0.0,0.0,0.0,0.0,0.0,0.0,0.0,0.0,0.0,0.0,0.0,0.0,0.0,0.0,0.0,0.0,0.0,0.0,0.0,0.0,0.0,0.0,0.0,0.0,0.0,0.0,0.0,0.0,0.0,0.0,0.0,0.0,0.0,0.0,0.0,0.0,0.0,0.0,0.0,0.0,0.0,0.0,0.0,0.0,0.0,0.0,0.0,0.0,0.0,0.0,0.0,0.0,0.0,0.0,0.0,0.0,0.0,0.0,0.0,0.0,0.0,0.0,0.0,0.0,0.0,0.0,0.0,0.0,0.0,0.0,0.0,0.0,0.0,0.0,0.0,0.0,0.0,0.0,0.0,0.0,0.0,0.0,0.0,0.0,0.0,0.0,0.0,0.0,0.0,0.0,0.0,0.0,0.0,0.0,0.0,0.0,0.0,0.0,0.0,0.0,0.0,0.0,0.0,0.0,0.0,0.0,0.0,0.0,0.0,0.0,0.0,0.0,0.0,0.0,0.0,0.0,0.0,0.0,0.0,0.0,0.0,0.0,0.0,0.0,0.0,0.0,0.0,0.0,0.0,0.0,0.0,0.0,0.0,0.0,0.0,0.0,0.0,0.0,0.0,0.0,0.0,0.0,0.0,0.0,0.0,0.0,0.0,0.0,0.0,0.0,0.0,0.0,0.0,0.0,0.0,0.0,0.0,0.0,0.0,0.0,0.0,0.0,0.0,0.0,0.0,0.0,0.0,0.0,0.0,0.0,0.0,0.0,0.0,0.0,0.0,0.0,0.0,0.0,0.0,0.0,0.0,0.0,0.0,0.0,0.0,0.0,0.0,0.0,0.0,0.0,0.0,0.0,0.0,0.0,0.0,0.0,0.0,0.0,0.0,0.0,0.0,0.0,0.0,0.0,0.0,0.0,0.0,0.0,0.0,0.0,0.0,0.0,0.0,0.0,0.0,0.0,0.0,0.0,0.0,0.0,0.0,0.0,0.0,0.0,0.0,0.0,0.0,0.0,0.0,0.0,0.0,0.0,0.0,0.0,0.0,0.0,0.0,0.0,0.0,0.0,0.0,0.0,0.0,0.0,0.0,0.0,0.0,0.0,0.0,0.0,0.0,0.0,0.0,0.0,0.0,0.0,0.0,0.0,0.0,0.0,0.0,0.0,0.0,0.0,0.0,0.0,0.0,0.0,0.0,0.0,0.0,0.0,0.0,0.0,0.0,0.0,0.0,0.0,0.0,0.0,0.0,0.0,0.0,0.0,0.0,0.0,0.0,0.0,0.0,0.0,0.0,0.0,0.0,0.0,0.0,0.0,0.0,0.0,0.0,0.0,0.0,0.0,0.0,0.0,0.0,0.0,0.0,0.0,0.0,0.0,0.0,0.0,0.0,0.0,0.0,0.0,0.0,0.0,0.0,0.0,0.0,0.0,0.0,0.0,0.0,0.0,0.0,0.0,0.0,0.0,0.0,0.0,0.0,0.0,0.0,0.0,0.0,0.0,0.0,0.0,0.0,0.0,0.0,0.0,0.0,0.0,0.0,0.0,0.0,0.0,0.0,0.0,0.0,0.0,0.0,0.0,0.0,0.0,0.0,0.0,0.0,0.0,0.0,0.0,0.0,0.0,0.0,0.0,0.0,0.0,0.0,0.0,0.0,0.0,0.0,0.0,0.0,0.0,0.0,0.0,0.0,0.0,0.0,0.0,0.0,0.0,0.0,0.0,0.0,0.0,0.0,0.0,0.0,0.0,0.0,0.0,0.0,0.0,0.0,0.0,0.0,0.0,0.0,0.0,0.0,0.0,0.0,0.0,0.0,0.0,0.0,0.0,0.0,0.0,0.0,0.0,0.0,0.0,0.0,0.0,0.0,0.0,0.0,0.0,0.0,0.0,0.0,0.0,0.0,0.0,0.0,0.0,0.0,0.0,0.0,0.0,0.0,0.0,0.0,0.0,0.0,0.0,0.0,0.0,0.0,0.0,0.0,0.0,0.0,0.0,0.0,0.0,0.0,0.0,0.0,0.0,0.0,0.0,0.0,0.0,0.0,-1.3001,0.0,0.0,0.0,0.0,0.0,0.0,0.0,0.0,0.0,0.0,0.0,0.0,0.0,0.0,0.0,0.0,0.0,0.0,0.0,0.0,0.0,0.0,0.0,0.0,0.0,0.0,0.0,0.0,0.0,0.0,0.0,0.0,0.0,0.0,0.0,0.0,0.0,0.0,0.0,0.7138,0.7487,0.7988,0.8137,0.8187,0.8187,0.0,0.0,0.0,0.0,0.0,0.0,0.0,0.0,0.0,0.0,0.0,0.0,0.0,0.0,0.0,0.0,0.0,0.0,0.0,0.0,0.0,0.0,0.0,0.0,0.0,0.0,0.0,0.0,0.0,0.0,0.0,0.0,0.0,0.0,0.0,0.0,0.0,0.0,0.0,0.0,0.0,0.0,0.0,0.0,0.0,0.0,0.0,0.0,0.0,0.0,0.0,0.0,0.0,0.0,0.0,0.0,0.0,0.0,0.0,0.0,0.0,0.0,0.0,0.0,0.0,0.0,0.0,0.0,0.0,0.0,0.0,-1.3165,0.0,0.0,0.0,0.0,0.0,0.0,0.0,0.0,0.0,0.0,0.0,0.0,0.0,0.0,0.0,0.0,0.0,0.0,0.0,0.0,0.0,0.0,0.0,0.0,1.1194,1.1194,1.1194,0.0,0.0,0.0,0.0,0.0,0.0,0.0,0.0,0.0,0.0,0.7138,0.7288,0.7587,0.8088,0.8287,0.8432,0.8432,0.7335,0.0,0.0,0.0,0.0,0.0,0.0,0.0,0.0,0.0,0.0,0.0,0.0,0.0,0.0,0.0,0.0,0.0,0.0,0.0,0.0,0.0,0.0,0.0,0.0,0.0,0.0,0.0,0.0,0.0,0.0,0.0,0.0,0.0,0.0,0.0,0.0,0.0,0.0,0.0,0.0,0.0,0.0,0.0,0.0,0.0,0.0,0.0,0.0,0.0,0.0,0.0,0.0,0.0,0.0,0.0,0.0,0.0,0.0,0.0,0.0,0.0,0.0,0.0,-1.3064,-1.3064,-1.348,-1.348,-1.348,-1.3453,-1.311,-1.3193,-1.3607,-1.3794,0.0,0.0,0.0,0.0,0.0,0.0,0.0,0.0,0.0,0.0,0.0,0.0,0.0,0.0,0.0,0.0,0.0,0.0,0.0,0.0,0.0,1.1194,1.1194,1.1194,1.1194,1.1194,0.0,0.0,0.0,0.0,0.0,0.0,0.0,0.6833,0.6539,0.6845,0.754,0.8038,0.8333,0.8382,0.8531,0.8726,0.8574,0.7975,0.7074,0.0,0.0,0.0,0.0,0.0,0.0,0.0,0.0,0.0,0.0,0.0,0.0,0.0,0.0,0.0,0.0,0.0,0.0,0.0,0.0,0.0,0.0,0.0,0.0,0.0,0.0,0.0,0.0,0.0,0.0,0.0,0.0,0.0,0.0,0.0,0.0,0.0,0.0,0.0,0.0,0.0,-0.2599,-0.2333,0.0,0.0,0.0,0.0,0.0,0.0,0.0,0.0,0.0,0.0,0.0,0.0,0.0,-1.2861,-1.3427,-1.3381,-1.3392,-1.348,-1.3429,-1.3429,-1.348,-1.348,-1.348,-1.3475,-1.341,0.0,-1.384,-1.3909,0.0,0.0,0.0,0.0,0.0,0.0,0.0,0.0,0.0,0.0,0.0,0.0,0.0,0.0,0.0,0.0,0.0,0.0,0.0,0.0,0.0,1.1487,1.1639,1.1639,1.1932,1.198,1.1683,0.0,0.0,0.0,0.0,0.0,0.6933,0.7185,0.7291,0.7244,0.7743,0.8038,0.8187,0.8333,0.8482,0.8577,0.8882,0.8676,0.8074,0.7975,0.0,0.0,0.0,0.0,0.0,0.0,0.0,0.0,0.0,0.0,0.0,0.0,0.0,0.0,0.0,0.0,0.0,0.0,0.0,0.0,0.0,0.0,0.0,0.0,0.0,0.0,0.0,0.0,0.0,0.0,0.0,0.0,0.0,0.0,0.0,0.0,0.0,0.0,0.0,-0.2807,-0.2951,-0.2964,-0.3432,-0.4014,0.0,0.0,0.0,0.0,0.0,0.0,0.0,0.0,0.0,-1.2554,-1.2743,-1.304,-1.3526,-1.3604,-1.3739,-1.3884,-1.3884,-1.3884,-1.3884,-1.3884,-1.3884,-1.3884,-1.3884,-1.3937,-1.4073,-1.4099,-1.4503,-1.5239,0.0,0.0,0.0,0.0,-2.1128,-2.217,0.0,0.0,0.0,0.0,0.0,0.0,0.0,0.0,0.0,0.0,0.0,0.0,1.1389,1.1883,1.2175,1.2029,1.237,1.237,1.1829,1.1585,0.0,0.0,0.0,0.8524,0.6734,0.7437,0.7743,0.7596,0.7892,0.7988,0.7988,0.8187,0.8333,0.8432,0.8832,0.8981,0.8928,0.8928,0.8329,0.7381,0.0,0.0,0.0,0.0,0.0,0.0,0.0,0.0,0.0,0.0,0.0,0.0,0.0,0.0,0.0,0.0,0.0,0.0,0.0,0.0,0.0,0.0,0.0,0.0,0.0,0.0,0.0,0.0,0.0,0.0,0.0,0.0,0.0,0.0,0.0,0.0,0.0,-0.3229,-0.3475,-0.365,-0.3926,-0.4491,0.0,0.0,0.0,0.0,0.0,0.0,-1.1389,-1.1765,-1.2181,-1.2581,-1.2759,-1.3082,-1.3561,-1.3733,-1.3943,-1.4196,-1.4196,-1.4196,-1.4196,-1.4196,-1.4196,-1.4196,-1.4196,-1.4196,-1.4218,-1.427,-1.4498,-1.5012,-1.6151,-1.7401,-1.8607,-1.966,-2.0855,-2.1844,0.0,0.0,0.0,0.0,0.0,0.0,0.0,0.0,0.0,0.0,0.0,1.198,1.198,1.2419,1.2565,1.2029,1.2024,1.1834,1.1292,1.0511,1.0068,0.992,0.8528,0.768,0.7531,0.7335,0.7341,0.7596,0.7892,0.7988,0.7988,0.7992,0.8137,0.8382,0.8432,0.8733,0.9187,0.9187,0.9137,0.8935,0.7428,0.0,0.0,0.0,0.0,0.0,0.0,0.0,0.0,0.0,0.0,0.0,0.0,0.0,0.0,0.0,0.0,0.0,0.0,0.0,0.0,0.0,0.0,0.0,0.0,0.0,0.0,0.0,0.0,0.0,0.0,0.0,0.0,0.0,0.0,0.0,0.0,0.0,0.0,-0.3938,-0.4279,0.0,0.0,0.0,0.0,-0.8738,-0.9963,-1.0986,-1.1654,-1.1711,-1.2107,-1.3055,-1.3082,-1.3313,-1.3798,-1.3814,-1.3943,-1.4196,-1.4196,-1.4196,-1.4196,-1.4196,-1.4196,-1.4196,-1.4196,-1.4196,-1.4191,-1.4223,-1.4752,-1.5689,-1.6407,-1.7328,-1.8296,-1.8978,-1.9981,-2.0963,0.0,0.0,0.0,0.0,0.0,0.0,0.0,0.0,0.0,1.082,1.1554,1.1878,1.1536,1.2273,1.2565,1.2029,1.2322,1.2273,1.1731,1.1438,1.09,1.0019,0.9472,0.9167,0.916,0.9061,0.8913,0.8758,0.8855,0.8802,0.8648,0.8648,0.9029,0.9694,0.9884,1.0026,1.019,0.9478,0.9187,0.9137,0.8584,0.8076,0.0,0.0,0.0,0.0,0.0,0.0,0.0,0.0,0.0,0.0,0.0,0.0,0.0,0.0,0.0,0.0,0.0,0.0,0.0,0.0,0.0,0.0,0.0,0.0,0.0,0.0,0.0,0.0,0.0,0.0,0.0,0.0,0.0,0.0,0.0,0.0,0.0,-0.4387,-0.4574,0.0,-0.6008,-0.7463,-0.8631,-0.9268,-1.101,-1.2018,-1.1902,-1.224,-1.2565,-1.2877,-1.3028,-1.3184,-1.3357,-1.3663,-1.3868,-1.3954,-1.4116,-1.4196,-1.4196,-1.4196,-1.4196,-1.4196,-1.4196,-1.4196,-1.4196,-1.4196,-1.4508,-1.5058,-1.5464,-1.6389,-1.7513,-1.7777,-1.9117,-2.0885,0.0,0.0,0.0,0.0,0.0,0.0,0.0,0.0,0.9494,1.0758,1.1301,1.1574,1.1579,1.2323,1.2565,1.2029,1.2322,1.2322,1.1785,1.1385,1.0846,1.0019,0.9916,0.9686,0.9278,0.9514,0.9328,0.8676,0.9056,0.9185,0.9025,0.9304,0.982,1.0422,1.0607,1.0699,1.0764,1.0053,0.9829,0.9925,0.9542,0.9136,0.8695,0.0,0.0,0.0,0.0,0.0,0.0,0.0,0.0,0.0,0.0,0.0,0.0,0.0,0.0,0.0,0.0,0.0,0.0,0.0,0.0,0.0,0.0,0.0,0.0,0.0,0.0,0.0,0.0,0.0,0.0,0.0,0.0,0.0,0.0,0.0,-0.4728,-0.4814,-0.4812,-0.5259,-0.6374,-0.7861,-0.9103,-0.9801,-1.1678,-1.2613,-1.2273,-1.2619,-1.2813,-1.2813,-1.2985,-1.3147,-1.3233,-1.362,-1.3863,-1.3949,-1.4116,-1.4196,-1.4196,-1.4196,-1.4196,-1.4196,-1.4196,-1.4196,-1.4196,-1.4196,-1.4299,-1.4504,-1.4767,-1.5452,-1.6293,-1.6346,-1.8014,-2.0305,0.0,0.0,0.0,0.0,0.0,0.0,0.0,0.7979,0.8812,1.0671,1.071,1.1015,1.2225,1.2614,1.2559,1.2024,1.1932,1.1731,1.1194,1.0154,0.9661,0.9912,0.9752,0.9078,0.7956,0.866,0.8434,0.7252,0.8415,0.9013,0.9056,0.9936,1.0403,1.0449,1.0449,1.0634,1.0864,1.0864,1.114,1.1461,1.0237,0.987,0.9912,0.0,0.0,0.0,0.0,0.0,0.0,0.0,0.0,0.0,0.0,0.0,0.0,0.0,0.0,0.0,0.0,0.0,0.0,0.0,0.0,0.0,0.0,0.0,0.0,0.0,0.0,0.0,0.0,0.0,0.0,0.0,0.0,0.0,-0.4784,-0.4784,-0.4887,-0.514,-0.4987,-0.5336,-0.6642,-0.7971,-0.9201,-1.0288,-1.1873,-1.2764,-1.2813,-1.2813,-1.2813,-1.2813,-1.298,-1.3211,-1.3505,-1.3685,-1.3922,-1.4159,-1.4169,-1.4169,-1.4169,-1.4169,-1.4169,-1.4169,-1.4169,-1.4175,-1.4186,-1.4175,-1.4175,-1.4234,-1.4498,-1.46,-1.4654,-1.4928,-1.6605,-1.9154,0.0,0.0,0.0,0.0,0.0,0.0,0.0,0.7037,0.7815,0.9038,0.9883,1.0613,1.1257,1.1713,1.1857,1.1424,1.0904,1.0306,0.9797,0.9312,0.8769,0.8209,0.9711,0.9766,0.8063,0.9281,0.9381,0.82,0.8566,0.9038,0.9655,0.9921,1.0759,1.2089,1.2089,1.2089,1.2177,1.2177,1.2351,1.256,1.1439,1.0471,0.9659,0.0,0.0,0.0,0.0,0.0,0.0,0.0,0.0,0.0,0.0,0.0,0.0,0.0,0.0,0.0,0.0,0.0,0.0,0.0,0.0,0.0,0.0,0.0,0.0,0.0,0.0,0.0,0.0,0.0,0.0,0.0,0.0,-0.4684,-0.4284,-0.4533,-0.4834,-0.4887,-0.5037,-0.5288,-0.5887,-0.7129,-0.8467,-0.9702,-1.093,-1.1965,-1.2764,-1.2813,-1.2813,-1.2813,-1.2872,-1.2937,-1.3007,-1.319,-1.3335,-1.3405,-1.3588,-1.3674,-1.3674,-1.3674,-1.3674,-1.3674,-1.3674,-1.3771,-1.3911,-1.3744,-1.3771,-1.3943,-1.4223,-1.445,-1.4708,-1.541,-1.7087,-1.9332,0.0,0.0,0.0,0.0,0.0,0.0,0.0,0.6045,0.7043,0.8467,0.8844,0.9464,1.0803,1.0847,1.0801,1.0924,1.029,0.9746,0.9441,0.9254,0.8888,0.8189,0.9755,0.9712,0.7713,0.8816,0.8869,0.7669,0.8203,0.8726,0.9318,1.0101,1.1058,1.2143,1.2528,1.2705,1.2705,1.2705,1.279,1.2906,1.2378,1.1339,1.0077,0.9717,0.8597,0.7213,0.7127,0.6487,0.5582,0.4939,0.0,0.0,0.0,0.0,0.0,0.0,0.0,0.0,0.0,0.0,0.0,0.0,0.0,0.0,0.0,0.0,0.0,0.0,0.0,0.0,0.0,0.0,0.0,0.0,-0.4784,-0.4684,-0.4383,-0.4583,-0.4885,-0.5085,-0.5188,-0.5388,-0.5887,-0.6933,-0.8173,-0.9509,-1.0583,-1.1668,-1.2759,-1.2813,-1.2813,-1.2813,-1.3007,-1.3116,-1.3116,-1.3394,-1.3561,-1.3561,-1.3712,-1.3776,-1.3776,-1.3776,-1.3776,-1.3771,-1.3669,-1.3696,-1.3803,-1.3572,-1.3556,0.0,0.0,0.0,0.0,0.0,-1.7246,-1.8833,0.0,0.0,0.0,0.0,0.0,0.0,0.0,0.5006,0.6207,0.8257,0.7647,0.7974,1.0437,0.9871,0.9612,1.0292,0.9811,0.9444,0.9444,0.9423,0.9282,0.887,0.9646,0.9096,0.6979,0.7688,0.7531,0.6384,0.7482,0.8185,0.8544,1.0323,1.1192,1.1327,1.2272,1.2705,1.2705,1.2705,1.2705,1.2705,1.2966,1.2277,1.0939,0.9845,0.8978,0.8332,0.8072,0.7444,0.6736,0.6566,0.0,0.0,0.0,0.0,0.0,0.0,0.0,0.0,0.0,0.0,0.0,0.0,0.0,0.0,0.0,0.0,0.0,0.0,0.0,0.0,0.0,0.0,0.0,0.0,-0.4784,-0.4784,-0.4784,-0.4784,-0.4985,-0.5486,-0.5388,-0.5589,-0.6287,-0.7033,-0.8024,-0.9308,-1.0386,-1.1482,-1.2602,0.0,0.0,0.0,0.0,-1.348,-1.348,-1.39,-1.4116,-1.4116,-1.4116,-1.4116,-1.4116,-1.4116,-1.4116,-1.4105,-1.3879,-1.3798,-1.3803,-1.3572,-1.3561,-1.3642,-1.4321,-1.4282,-1.4032,-1.5978,-1.7236,-1.8136,0.0,0.0,0.0,0.0,0.0,0.0,0.0,0.3799,0.4688,0.593,0.6532,0.7358,0.8615,0.8572,0.8555,0.8877,0.8284,0.7901,0.7762,0.7872,0.778,0.7407,0.8177,0.7789,0.5992,0.6872,0.7033,0.6384,0.6833,0.758,0.8544,0.9666,1.0577,1.1327,1.2272,1.2705,1.2705,1.2705,1.2705,1.2705,1.2747,1.2272,1.1499,1.0895,1.0115,0.9253,0.8696,0.8364,0.8053,0.7089,0.6639,0.6129,0.4034,0.0,0.0,0.0,0.0,0.0,0.0,0.0,0.0,0.0,0.0,0.0,0.0,0.0,0.0,0.0,0.0,0.0,0.0,0.0,0.0,-0.4784,-0.4784,-0.4784,-0.4784,-0.4784,-0.4937,-0.5238,-0.5591,-0.5892,-0.6039,-0.6437,-0.708,-0.8219,-0.9308,-1.0461,-1.168,-1.2587,-1.313,-1.3386,-1.3432,-1.348,-1.348,-1.3572,-1.3615,-1.3615,0.0,0.0,-1.3615,-1.3615,-1.3615,-1.3615,-1.3566,-1.3647,-1.3803,-1.3572,-1.3763,-1.4184,-1.45,-1.4931,-1.5582,-1.6543,-1.7505,-1.8249,0.0,0.0,0.0,0.0,0.0,0.0,0.0,0.2684,0.3749,0.5223,0.5267,0.5822,0.7458,0.7151,0.6953,0.743,0.7071,0.6829,0.6738,0.7041,0.7168,0.6892,0.7293,0.6949,0.5733,0.6174,0.639,0.6384,0.652,0.7007,0.7797,0.8755,0.971,1.0621,1.158,1.2272,1.2705,1.2705,1.2705,1.2705,1.2705,1.2491,1.2149,1.1585,1.0549,0.9375,0.903,0.86,0.8176,0.767,0.7427,0.7001,0.4972,0.421,0.3712,0.0,0.0,0.0,0.0,0.0,0.0,0.0,0.0,0.0,0.0,0.0,0.0,0.0,0.0,-0.4784,0.0,0.0,-0.4784,-0.4784,-0.4784,-0.4784,-0.4784,-0.5035,-0.5236,-0.5388,-0.5639,-0.5889,-0.6189,-0.6337,-0.6859,-0.8029,-0.9137,-1.0322,-1.1541,-1.2679,-1.3351,-1.3475,-1.3588,-1.3647,-1.3647,-1.3771,-1.3836,-1.3836,-1.3836,-1.3836,-1.3836,-1.3836,-1.3836,-1.383,-1.3706,-1.3717,-1.3803,-1.3572,-1.3654,-1.3942,-1.4288,-1.4898,-1.5562,-1.5918,-1.6551,-1.7278,0.0,0.0,0.0,0.0,0.0,0.0,0.0,0.0,0.2948,0.4421,0.42,0.4512,0.6148,0.5667,0.5411,0.5964,0.613,0.6187,0.6213,0.6694,0.6898,0.6782,0.6647,0.6299,0.5733,0.5733,0.5952,0.6343,0.6387,0.6605,0.7007,0.7969,0.893,0.9879,1.0842,1.1843,1.2705,1.2705,1.2705,1.2705,1.2705,1.2705,1.2619,1.21,1.0842,0.941,0.9235,0.8632,0.794,0.8072,0.8028,0.7609,0.6057,0.5127,0.432,0.2589,0.187,0.0,0.0,0.0,0.0,0.0,0.0,0.0,0.0,0.0,-0.3274,-0.4533,-0.4784,-0.4784,-0.4784,-0.4784,-0.4784,-0.4784,-0.4784,-0.4834,-0.4885,-0.5236,-0.5586,-0.5687,-0.5737,-0.5937,-0.6337,-0.6408,-0.6864,-0.7833,-0.8987,-1.0207,-1.1388,-1.2605,-1.3355,-1.3615,-1.3793,-1.389,-1.389,-1.4094,-1.4196,-1.4196,-1.4196,-1.4196,-1.4196,-1.4196,-1.4196,-1.4186,-1.3981,-1.389,-1.3879,-1.369,-1.3588,-1.3626,-1.397,-1.4404,-1.4743,-1.4975,-1.548,-1.6048,0.0,0.0,0.0,0.0,0.0,0.0,0.0,0.0,0.0,0.1878,0.3576,0.4516,0.3708,0.4115,0.451,0.4686,0.5565,0.6138,0.6207,0.6604,0.6795,0.6823,0.6169,0.5777,0.5688,0.5952,0.6083,0.6127,0.6299,0.6432,0.6517,0.7702,0.875,0.9666,1.0804,1.1843,1.2705,1.2705,1.2705,1.2705,1.2705,1.2705,1.2705,1.2619,1.1585,1.0072,0.9453,0.8632,0.79,0.794,0.7896,0.768,0.6399,0.5377,0.4369,0.3134,0.0,0.1497,0.1524,0.1553,0.1583,0.161,0.1515,0.0908,0.0,0.0,-0.2368,-0.4381,-0.4784,-0.4784,-0.4784,-0.4784,-0.4784,-0.4784,-0.4784,-0.4885,-0.514,-0.519,-0.5441,-0.5892,-0.6189,-0.6337,-0.6387,-0.6484,-0.6657,-0.677,-0.791,-0.9197,-1.0572,-1.1654,-1.2815,-1.4105,-1.4137,-1.4153,-1.4153,-1.418,-1.4196,-1.4196,-1.4196,-1.4196,-1.4196,-1.4196,-1.4196,-1.4191,-1.4164,-1.4153,-1.4153,-1.4126,-1.3981,-1.3755,-1.3632,-1.3483,-1.3479,-1.466,-1.5146,-1.5242,0.0,0.0,0.0,0.0,0.0,0.0,0.0,0.0,0.0,0.0,0.2462,0.291,0.3358,0.3451,0.351,0.3542,0.4499,0.5072,0.507,0.5749,0.6169,0.6169,0.5863,0.5688,0.5688,0.5952,0.6171,0.6254,0.6523,0.67,0.683,0.7312,0.8057,0.9017,1.0014,1.1015,1.1929,1.2491,1.2705,1.2705,1.2705,1.2705,1.2705,1.2705,1.1929,1.0766,0.9927,0.9017,0.0,0.0,0.7544,0.7272,0.6381,0.5312,0.4208,0.3213,0.2107,0.0,0.1328,0.1439,0.1552,0.0,0.159,0.1196,-0.0302,-0.1159,-0.2016,-0.3575,-0.4381,-0.4784,-0.4784,-0.4784,-0.4784,0.0,-0.4784,-0.4885,-0.514,-0.5338,-0.5589,-0.5942,-0.6239,-0.6387,-0.6387,-0.6497,-0.6649,-0.6719,-0.789,-0.9147,-1.055,-1.1693,-1.2881,-1.4137,-1.4196,-1.4196,-1.4196,-1.4196,-1.4196,-1.4196,-1.4196,-1.4196,-1.4196,-1.4196,-1.4196,-1.4196,-1.4196,-1.4196,-1.4196,-1.4196,-1.4132,-1.4013,-1.3771,-1.3529,-1.3427,-1.4158,-1.4382,-1.4478,0.0,0.0,0.0,0.0,0.0,0.0,0.0,0.0,0.0,0.0,0.1568,0.1973,0.3274,0.3097,0.292,0.292,0.3765,0.4342,0.4387,0.5282,0.5819,0.5908,0.5819,0.5822,0.5822,0.5908,0.6083,0.6213,0.6482,0.6704,0.683,0.6966,0.7533,0.8452,0.9444,1.0404,1.1365,1.2314,1.2705,1.2705,1.2705,1.2705,1.2705,1.2705,1.2272,1.158,1.0621,0.9497,0.0,0.794,0.7496,0.7007,0.6514,0.5578,0.4423,0.3444,0.2173,0.1106,0.1176,0.0,0.0,0.1551,0.1565,0.133,0.0249,-0.0603,-0.1562,-0.2922,-0.3827,-0.4431,-0.4734,-0.4784,-0.4784,-0.4784,-0.4885,-0.4987,-0.529,-0.5539,-0.5787,-0.6089,-0.6287,-0.6398,-0.6433,-0.6597,-0.6706,-0.6796,-0.7741,-0.8856,-1.012,-1.1328,-1.2476,-1.3694,-1.4029,-1.4196,-1.4196,-1.4196,-1.4196,-1.4196,-1.4196,-1.4196,-1.4196,-1.4196,-1.4196,-1.4196,-1.4196,-1.4196,-1.4196,-1.4196,-1.4196,-1.4169,-1.3916,-1.368,-1.3529,-1.3643,-1.3628,-1.3667,0.0,0.0,0.0,0.0,0.0,0.0,0.0,0.0,0.0,0.0,0.0,0.0,0.0,0.0,0.292,0.292,0.3765,0.4431,0.465,0.5544,0.6169,0.6387,0.6213,0.6083,0.6083,0.5819,0.5733,0.5733,0.5997,0.6127,0.6127,0.6615,0.7316,0.8269,0.9401,1.0404,1.1365,1.2314,1.2705,1.2705,1.2705,1.2705,1.2705,1.2705,1.2662,1.2534,1.158,0.0,0.85,0.8456,0.7841,0.7095,0.7095,0.6293,0.0,0.4152,0.255,0.1082,0.0,0.0,0.1489,0.152,0.1549,0.1325,0.0245,-0.005,-0.0655,-0.277,-0.3224,-0.3575,-0.4632,-0.4784,-0.4784,-0.4784,-0.5037,-0.529,-0.5536,-0.5839,-0.6092,-0.6337,-0.6387,-0.6433,0.0,-0.6725,-0.6798,-0.6801,-0.707,-0.7759,-0.8865,-1.0123,-1.1273,-1.2417,-1.3581,-1.4196,-1.4196,-1.4196,-1.4196,-1.4196,-1.4196,-1.4196,-1.4196,-1.4196,-1.4196,-1.4196,-1.4196,-1.4196,-1.4196,-1.4196,-1.4196,-1.4169,-1.3916,-1.368,-1.3448,-1.324,-1.3002,-1.2861,0.0,0.0,0.0,0.0,0.0,0.0,0.0,0.0,0.0,0.0,0.0,0.0,0.0,0.0,0.0,0.0,0.0,0.0,0.4387,0.501,0.5547,0.5905,0.6038,0.6083,0.6083,0.6308,0.6441,0.6441,0.6656,0.6745,0.6789,0.6922,0.7183,0.7529,0.8536,0.9148,0.9501,1.0448,1.1187,1.1757,1.1757,1.2143,1.2705,1.2705,1.2491,1.2143,0.0,1.0274,0.9148,0.8675,0.7801,0.6881,0.6881,0.6207,0.5045,0.3307,0.197,0.1078,0.1085,0.0,0.1458,0.1488,0.1504,0.1474,0.1122,0.0493,-0.0199,-0.0904,-0.2216,-0.3324,-0.3676,-0.4331,-0.4784,-0.4784,-0.5037,-0.524,-0.5338,-0.5741,-0.6042,-0.6139,-0.6289,0.0,0.0,0.0,0.0,-0.6918,-0.7122,-0.7706,-0.8865,-0.9302,-1.0398,-1.2358,-1.2802,-1.3413,-1.4191,-1.4196,-1.4196,-1.4196,-1.4196,-1.4196,-1.4196,-1.4196,-1.4196,-1.4196,-1.4196,-1.4196,-1.4196,-1.4196,-1.4196,-1.4186,-1.4099,-1.3825,-1.347,-1.3383,-1.3153,-1.2813,0.0,0.0,0.0,0.0,0.0,0.0,0.0,0.0,0.0,0.0,0.0,0.0,0.0,0.0,0.0,0.0,0.0,0.0,0.4656,0.5144,0.5547,0.5949,0.6038,0.6083,0.6083,0.6308,0.6396,0.6396,0.67,0.683,0.6874,0.7007,0.7095,0.7139,0.8061,0.85,0.854,0.9492,1.0231,1.0712,1.0755,1.1101,1.1574,1.1574,1.1402,0.0,1.0567,0.9701,0.8798,0.8492,0.7669,0.6795,0.6881,0.5983,0.4554,0.2996,0.1881,0.1121,0.1121,0.1256,0.1395,0.1459,0.1472,0.1491,0.153,0.1069,0.0443,0.01,-0.1153,-0.2417,-0.3224,-0.3929,-0.4483,-0.4885,-0.509,-0.519,-0.519,-0.5641,-0.5992,-0.5992,-0.6239,-0.6452,0.0,0.0,0.0,-0.6975,-0.7147,-0.754,-0.826,-0.8702,-0.9798,-1.171,-1.22,-1.297,-1.4191,-1.4196,-1.4196,-1.4196,-1.4196,-1.4196,-1.4196,-1.4196,-1.4196,-1.4196,-1.4196,-1.4196,-1.4196,-1.4196,-1.4196,-1.4196,-1.4196,-1.39,-1.348,-1.348,-1.3173,-1.2813,0.0,0.0,0.0,0.0,0.0,0.0,0.0,0.0,0.0,0.0,0.0,0.0,0.0,0.0,0.0,0.0,0.0,0.0,0.5371,0.5816,0.6124,0.6343,0.6213,0.6083,0.6083,0.5863,0.5733,0.5733,0.6169,0.6384,0.6428,0.6874,0.7051,0.7095,0.7973,0.8412,0.8452,0.9362,0.9618,0.9536,0.9705,0.9705,0.9579,0.9579,0.9579,0.9492,0.9218,0.8392,0.7573,0.8049,0.0,0.0,0.701,0.5622,0.3796,0.3352,0.2238,0.1121,0.1121,0.1256,0.1391,0.1391,0.1457,0.1479,0.148,0.1525,0.1322,0.0293,-0.0198,-0.1106,0.0,0.0,-0.4026,-0.5037,-0.524,-0.524,-0.524,-0.5691,-0.5992,0.0,0.0,0.0,0.0,0.0,0.0,-0.6983,0.0,-0.721,-0.721,-0.8205,-0.9357,-1.0562,-1.1705,-1.2916,-1.4083,-1.4196,-1.4196,-1.4196,-1.4196,-1.4196,-1.4196,-1.4196,-1.4196,-1.4196,-1.4196,-1.4196,-1.4196,-1.4196,-1.4196,-1.4196,-1.4196,-1.39,-1.348,-1.348,-1.3173,-1.2813,0.0,0.0,0.0,0.0,0.0,0.0,0.0,0.0,0.0,0.0,0.0,0.0,0.0,0.0,0.0,0.0,0.0,0.0,0.0,0.5233,0.5458,0.5863,0.6041,0.6083,0.0,0.0,0.0,0.6213,0.6343,0.6384,0.6384,0.6517,0.6561,0.6605,0.6827,0.6915,0.6956,0.7177,0.7654,0.8269,0.8313,0.8742,0.9305,0.9305,0.9087,0.0,0.0,0.0,0.0,0.0,0.0,0.0,0.0,0.5406,0.3667,0.3712,0.2463,0.1121,0.13,0.1345,0.1391,0.1391,0.1396,0.1453,0.1476,0.1493,0.1463,0.1197,-0.0289,-0.1698,0.0,0.0,0.0,-0.5425,-0.5486,0.0,-0.5486,-0.5789,0.0,-0.5992,0.0,-0.6481,-0.6779,-0.6801,0.0,0.0,-0.7193,-0.721,-0.721,-0.7487,-0.8146,-0.9302,-1.0507,-1.171,-1.2861,-1.3748,-1.4196,-1.4196,-1.4196,-1.4196,-1.4196,-1.4196,-1.4196,-1.4196,-1.4196,-1.4196,-1.4196,-1.4196,-1.4196,-1.4196,-1.4196,-1.39,-1.348,-1.348,-1.3173,-1.2813,0.0,0.0,0.0,0.0,0.0,0.0,0.0,0.0,0.0,0.0,0.0,0.0,0.0,0.0,0.0,0.0,0.0,0.0,0.0,0.5191,0.5416,0.5688,0.5863,0.5908,0.0,0.0,0.0,0.0,0.0,0.0,0.6254,0.6343,0.6384,0.6384,0.6384,0.6384,0.6384,0.6384,0.665,0.0,0.0,0.7434,0.787,0.7954,0.7822,0.0,0.0,0.0,0.0,0.0,0.0,0.6925,0.6836,0.5453,0.389,0.3892,0.0,0.1256,0.139,0.1391,0.1391,0.1391,0.1391,0.1395,0.132,0.1333,0.13,0.1221,0.0095,0.0,0.0,0.0,0.0,0.0,0.0,0.0,-0.5584,-0.5737,-0.5889,0.0,-0.6239,0.0,-0.6779,-0.6801,-0.6902,0.0,-0.721,-0.721,-0.721,-0.721,-0.7706,-0.8868,-0.9578,-1.0726,-1.2358,-1.3581,-1.4196,-1.4196,-1.4196,-1.4196,-1.4196,-1.4196,-1.4196,-1.4196,0.0,-1.4196,-1.4196,-1.4196,-1.4196,-1.4186,-1.4073,-1.3803,-1.3464,-1.3357,-1.3082,-1.2813,0.0,0.0,0.0,0.0,0.0,0.0,0.0,0.0,0.0,0.0,0.0,0.0,0.0,0.0,0.0,0.0,0.0,0.0,0.0,0.0,0.0,0.0,0.5688,0.5688,0.0,0.0,0.0,0.0,0.0,0.0,0.0,0.0,0.0,0.0,0.0,0.0,0.6299,0.6299,0.6213,0.6083,0.6257,0.6213,0.6083,0.0,0.0,0.0,0.0,0.0,0.0,0.0,0.6966,0.7051,0.6881,0.5672,0.4245,0.4026,0.2731,0.1391,0.1391,0.1391,0.1391,0.1391,0.1391,0.1345,0.1166,0.1092,0.106,0.0829,0.0,-0.0095,-0.1042,0.0,-0.3366,-0.4304,0.0,-0.5338,-0.5687,-0.5634,-0.5737,-0.6042,-0.6239,-0.6476,-0.6755,-0.6793,-0.6893,-0.7172,-0.7202,-0.721,-0.721,-0.721,-0.7706,-0.8868,-0.892,-0.9959,-1.2146,-1.3359,-1.397,-1.397,-1.4137,-1.4196,-1.4196,-1.4196,-1.4196,-1.4196,-1.4196,-1.4196,-1.4196,-1.4196,-1.4196,-1.4169,-1.3916,-1.368,-1.3448,-1.3195,-1.2958,-1.2813,0.0,0.0,0.0,0.0,0.0,0.0,0.0,0.0,0.0,0.0,0.1614,0.2018,0.0,0.0,0.0,0.0,0.0,0.0,0.0,0.0,0.0,0.0,0.0,0.0,0.0,0.0,0.0,0.0,0.0,0.0,0.0,0.0,0.0,0.0,0.0,0.0,0.5822,0.5822,0.5819,0.5777,0.5819,0.5819,0.5777,0.0,0.0,0.0,0.0,0.0,0.0,0.0,0.7051,0.7095,0.7051,0.5802,0.4287,0.4245,0.2908,0.1391,0.1391,0.1391,0.1391,0.1391,0.1391,0.1345,0.1166,0.1079,0.0,0.0,0.0,-0.091,-0.1249,-0.2969,0.0,-0.4685,0.0,0.0,0.0,0.0,-0.5787,0.0,0.0,0.0,0.0,0.0,0.0,0.0,0.0,-0.721,-0.721,-0.721,-0.7706,-0.8868,-0.892,-0.9578,-1.1,-1.2146,-1.2694,-1.2694,-1.3694,-1.4196,-1.4196,-1.4196,-1.4196,-1.4196,-1.4196,0.0,-1.4196,-1.4196,-1.4196,-1.4169,-1.3916,-1.368,-1.3448,-1.3195,-1.2958,-1.2813,0.0,0.0,0.0,0.0,0.0,0.0,0.0,0.1256,0.1525,0.2289,0.2379,0.2513,0.2873,0.332,0.3676,0.0,0.0,0.0,0.0,0.0,0.0,0.0,0.0,0.0,0.0,0.0,0.0,0.0,0.0,0.0,0.0,0.0,0.0,0.0,0.0,0.0,0.0,0.0,0.0,0.0,0.0,0.0,0.0,0.0,0.0,0.0,0.0,0.0,0.0,0.0,0.7095,0.7095,0.7095,0.5802,0.4289,0.4289,0.2907,0.1391,0.1391,0.1391,0.1391,0.1391,0.1391,0.13,0.0987,0.0,0.0,0.0,-0.0135,-0.054,-0.0591,0.0,0.0,0.0,0.0,0.0,0.0,0.0,0.0,0.0,0.0,0.0,0.0,0.0,0.0,0.0,0.0,-0.721,-0.721,-0.721,-0.7432,-0.7983,-0.8589,-0.9196,-0.9743,-1.0941,-1.1814,-1.2417,-1.297,-1.3581,-1.4196,-1.4196,-1.4196,-1.4196,-1.4196,0.0,-1.4196,-1.4196,-1.4116,-1.3976,-1.3733,-1.3497,-1.3254,-1.3012,-1.2856,-1.2813,0.0,0.0,0.0,0.0,0.0,0.0,0.0,0.2025,0.2243,0.2829,0.292,0.292,0.292,0.323,0.3542,0.0,0.0,0.0,0.0,0.0,0.0,0.0,0.0,0.0,0.0,0.0,0.0,0.0,0.0,0.0,0.0,0.0,0.0,0.0,0.0,0.0,0.0,0.0,0.0,0.0,0.0,0.0,0.0,0.0,0.0,0.0,0.0,0.0,0.0,0.0,0.7054,0.701,0.6962,0.5714,0.4289,0.4289,0.2907,0.1391,0.1391,0.1391,0.1391,0.1391,0.1391,0.1256,0.0807,0.0718,0.0,0.0,0.0,0.0,0.0,0.0,0.0,0.0,0.0,0.0,0.0,0.0,0.0,0.0,0.0,0.0,0.0,0.0,0.0,0.0,0.0,0.0,-0.721,-0.721,-0.721,-0.721,-0.8094,-0.8533,-0.8533,-0.9743,-1.0781,-1.1651,-1.1923,-1.2639,-1.3802,-1.3802,-1.397,-1.4196,-1.4196,0.0,0.0,-1.4137,-1.3997,-1.3793,-1.3507,-1.3276,-1.3077,-1.285,-1.2813,-1.2813,0.0,0.0,0.0,0.0,0.0,0.0,0.0,0.2815,0.2829,0.2875,0.292,0.292,0.292,0.2918,0.332,0.0,0.0,0.0,0.0,0.0,0.0,0.0,0.0,0.0,0.0,0.0,0.0,0.0,0.0,0.0,0.0,0.0,0.0,0.0,0.0,0.0,0.0,0.0,0.0,0.0,0.0,0.0,0.0,0.0,0.0,0.0,0.0,0.0,0.0,0.0,0.0,0.6792,0.652,0.5447,0.4289,0.4289,0.0,0.0,0.1391,0.1391,0.1391,0.1391,0.1391,0.1256,0.0807,0.0,0.0,0.009,0.0,0.0,0.0,-0.1595,-0.2925,0.0,0.0,0.0,0.0,0.0,0.0,0.0,0.0,0.0,0.0,0.0,0.0,0.0,0.0,0.0,-0.721,-0.721,-0.721,-0.721,-0.7321,-0.7376,-0.7376,-0.8478,-0.914,-0.9247,-1.0343,-1.1437,-1.258,-1.258,-1.3137,-1.4196,-1.4196,0.0,0.0,-1.3949,-1.3841,-1.3776,-1.3313,-1.3125,-1.3077,-1.285,-1.2813,-1.2813,0.0,0.0,0.0,0.0,0.0,0.0,0.144,0.1608,0.1592,0.1572,0.1974,0.2243,0.2243,0.2649,0.3187,0.381,0.0,0.0,0.0,0.0,0.0,0.0,0.0,0.0,0.0,0.0,0.0,0.5688,0.0,0.0,0.0,0.0,0.0,0.0,0.0,0.0,0.0,0.0,0.0,0.0,0.0,0.0,0.0,0.0,0.0,0.0,0.0,0.0,0.0,0.0,0.0,0.0,0.603,0.4914,0.0,0.0,0.2776,0.1391,0.1391,0.1391,0.1391,0.1391,0.13,0.1121,0.0762,0.0,0.0404,0.009,0.0,0.0,0.0,-0.1129,-0.2282,-0.2978,0.0,0.0,0.0,0.0,0.0,0.0,0.0,0.0,0.0,0.0,0.0,0.0,0.0,0.0,-0.721,-0.721,-0.721,-0.721,-0.721,-0.721,-0.721,-0.7651,-0.8205,-0.8923,-0.9412,-1.0233,-1.1383,-1.2087,-1.2639,-1.3127,-1.3704,0.0,0.0,-1.3712,-1.3523,-1.3373,-1.3179,-1.3017,-1.2888,-1.2845,-1.2813,-1.2813,0.0,0.0,0.0,0.0,0.0,-0.0243,0.0567,0.0699,0.069,0.068,0.117,0.148,0.148,0.193,0.2467,0.3004,0.3674,0.0,0.0,0.0,0.0,0.0,0.0,0.0,0.0,0.0,0.5688,0.5688,0.5688,0.5555,0.0,0.0,0.0,0.0,0.0,0.0,0.0,0.0,0.0,0.0,0.0,0.0,0.0,0.0,0.0,0.0,0.0,0.0,0.0,0.0,0.0,0.0,0.0,0.0,0.0,0.0,0.2463,0.13,0.13,0.1345,0.1391,0.1391,0.1256,0.1031,0.0,0.0,0.0314,0.0045,0.0,0.0,0.0,-0.1032,-0.2075,-0.2897,0.0,-0.5313,0.0,0.0,0.0,0.0,0.0,0.0,0.0,0.0,0.0,0.0,0.0,0.0,-0.721,-0.721,-0.721,-0.721,-0.721,-0.721,-0.721,-0.721,-0.7595,-0.8371,-0.8371,-0.903,-1.0178,-1.0941,-1.1508,-1.1877,-1.2856,0.0,0.0,-1.3203,-1.3058,-1.2644,-1.2929,-1.2904,-1.2813,-1.2813,-1.2813,-1.2813,0.0,0.0,0.0,0.0,0.0,0.0,0.0588,0.0711,0.0694,0.0694,0.0727,0.0718,0.0718,0.0718,0.1031,0.1749,0.2915,0.0,0.0,0.0,0.0,0.0,0.0,0.0,0.0,0.0,0.5688,0.5688,0.5688,0.524,0.43,0.43,0.0,0.0,0.0,0.0,0.0,0.0,0.0,0.0,0.0,0.0,0.0,0.0,0.0,0.0,0.0,0.0,0.0,0.0,0.0,0.0,0.0,0.0,0.0,0.0,0.1837,0.1121,0.1121,0.1256,0.1391,0.1391,0.1256,0.1031,0.0,0.0,0.0314,0.0045,0.0,0.0,0.0,-0.1569,-0.2931,-0.2987,-0.461,0.0,0.0,0.0,0.0,0.0,0.0,0.0,0.0,0.0,0.0,0.0,0.0,0.0,-0.7204,-0.721,-0.721,-0.721,-0.721,-0.721,-0.721,-0.721,-0.721,-0.721,-0.721,-0.7817,-0.8916,-0.8818,-0.9387,-1.0551,0.0,0.0,0.0,-1.2339,-1.2499,-1.1623,-1.2459,-1.2813,-1.2813,-1.2813,-1.2813,-1.2813,0.0,0.0,0.0,0.0,0.0,0.0,0.0,-0.0816,-0.0799,-0.0788,-0.0363,-0.0045,-0.0045,0.0403,0.0807,0.1031,0.1838,0.0,0.0,0.0,0.0,0.0,0.0,0.0,0.0,0.0,0.5374,0.4748,0.4748,0.4253,0.336,0.336,0.336,0.336,0.0,0.0,0.0,0.0,0.0,0.0,0.0,0.0,0.0,0.0,0.0,0.0,0.0,0.0,0.0,0.0,0.0,0.0,0.0,0.0,0.0,0.1165,0.0,0.0,0.0807,0.0852,0.0942,0.0942,0.0762,0.0583,0.0493,0.0314,0.009,0.0,0.0,0.0,0.0,-0.1032,-0.2111,-0.2801,-0.4068,0.0,0.0,0.0,0.0,0.0,0.0,0.0,0.0,0.0,0.0,0.0,0.0,0.0,-0.6912,-0.6912,-0.6989,-0.7204,-0.721,-0.721,-0.721,-0.721,-0.7169,-0.7037,-0.7037,-0.7211,-0.7499,-0.8299,-0.8857,0.0,0.0,0.0,0.0,-1.0562,-1.0533,-1.0231,-1.0516,-1.1082,-1.1717,-1.1717,-1.2165,-1.2764,0.0,0.0,0.0,0.0,0.0,0.0,0.0,-0.1563,-0.1532,-0.1502,-0.1103,-0.0814,-0.0763,-0.0359,0.0,0.0269,0.0718,0.0,0.0,0.0,0.0,0.0,0.0,0.0,0.4474,0.4743,0.452,0.3762,0.3762,0.3269,0.2331,0.2331,0.2331,0.2376,0.2956,0.0,0.0,0.0,0.0,0.0,0.0,0.0,0.5144,0.0,0.0,0.0,0.0,0.0,0.0,0.0,0.0,0.0,0.0,0.0,0.0,0.0,0.0359,0.0,0.0,0.0628,0.0718,0.0718,0.0538,0.0,0.0,0.018,0.0,0.0,0.0,0.0,0.0,-0.1077,-0.2152,-0.2778,-0.4072,0.0,0.0,0.0,0.0,0.0,0.0,0.0,0.0,0.0,0.0,0.0,0.0,0.0,-0.6798,-0.6801,-0.6869,-0.707,-0.7021,-0.7021,-0.7021,-0.7021,-0.6986,-0.6915,-0.6915,-0.6877,-0.6801,-0.7531,-0.7868,0.0,0.0,0.0,0.0,-0.9355,-0.9357,-0.9015,-0.946,-0.9998,-1.0583,-1.048,-1.1077,-1.1819,0.0,0.0,0.0,0.0,0.0,0.0,0.0,-0.1641,-0.1562,-0.1533,-0.1501,-0.147,-0.1397,-0.1392,-0.1166,-0.0538,0.0,0.0,0.0,0.0,0.0,0.0,0.0,0.0,0.3489,0.3534,0.3312,0.2778,0.2778,0.2285,0.1301,0.1301,0.1301,0.1301,0.139,0.1973,0.0,0.0,0.0,0.0,0.0,0.0,0.0,0.0,0.0,0.0,0.0,0.0,0.0,0.0,0.0,0.0,0.0,0.0,0.0,0.0,0.0,0.0,0.0,0.0,0.0,0.0,0.0,0.0,0.0,0.018,0.0,0.0,0.0,0.0,0.0,-0.148,-0.2732,-0.2867,-0.4344,0.0,0.0,0.0,0.0,0.0,0.0,0.0,0.0,0.0,0.0,0.0,0.0,0.0,-0.6771,-0.6777,-0.6777,-0.6777,-0.6777,-0.6785,-0.6801,-0.6801,-0.6798,-0.679,-0.679,-0.6785,-0.6774,-0.666,-0.6605,0.0,0.0,0.0,0.0,-0.8566,-0.8764,-0.7971,-0.8966,-0.941,-0.941,-0.9201,-0.9596,-1.0239,0.0,0.0,0.0,0.0,0.0,0.0,0.0,0.0,0.0,0.0,-0.1514,-0.1478,-0.1471,-0.1449,-0.1345,0.0,0.0,0.0,0.0,0.0,0.0,0.0,0.0,0.0,0.2462,0.2865,0.2643,0.1749,0.1749,0.1256,0.0314,0.0314,0.0314,0.0359,0.1077,0.2151,0.0,0.0,0.0,0.0,0.0,0.0,0.0,0.0,0.0,0.0,0.3314,0.3135,0.0,0.0,0.0,0.0,0.0,0.0,0.0,0.0,0.0,0.0,0.009,0.0,0.018,0.018,0.0135,0.009,0.0,0.0045,0.0,0.0,0.0,0.0,0.0,-0.0359,-0.1166,-0.2644,-0.3269,0.0,0.0,0.0,0.0,0.0,0.0,0.0,0.0,0.0,0.0,0.0,0.0,-0.6441,-0.647,-0.647,-0.647,-0.647,-0.647,-0.6611,-0.6801,-0.6801,-0.6755,-0.6662,-0.6662,-0.6613,-0.647,-0.6441,-0.643,0.0,0.0,0.0,-0.6437,-0.6933,-0.6983,-0.6783,-0.7033,-0.7528,-0.8074,-0.7975,-0.8464,-0.9083,0.0,0.0,0.0,0.0,0.0,0.0,0.0,0.0,0.0,0.0,0.0,0.0,0.0,0.0,0.0,0.0,0.0,0.0,0.0,0.0,0.0,0.0,0.0,0.1299,0.1299,0.1613,0.1435,0.0763,0.0763,0.0494,0.0,0.0,0.0,0.0045,0.0673,0.1434,0.0,0.0,0.0,0.0,0.2462,0.0,0.0,0.0,0.0,0.0,0.233,0.2196,0.0,0.1031,0.0718,0.0628,0.0,0.0,0.0,0.0,0.0,0.0,0.0,0.0,0.0,0.0,0.0,0.0,0.0,0.0,0.0,0.0,0.0,0.0,0.0,0.0,0.0,0.0,0.0,0.0,0.0,0.0,0.0,0.0,0.0,0.0,0.0,0.0,0.0,0.0,0.0,-0.6387,-0.6387,-0.6387,-0.6387,-0.6387,-0.6387,-0.6449,-0.6632,-0.6635,-0.66,-0.6484,-0.6484,-0.6452,-0.6387,-0.6387,-0.6387,0.0,0.0,-0.6387,-0.6387,-0.6387,-0.6387,-0.6387,-0.6387,-0.655,-0.6796,-0.67,-0.7049,-0.7559,0.0,0.0,0.0,0.0,0.0,0.0,0.0,0.0,0.0,0.0,0.0,0.0,0.0,0.0,0.0,0.0,0.0,0.0,0.0,0.0,0.0,0.0,0.0,0.0359,0.0269,0.0269,0.0179,0.0,0.0,0.0,0.0,0.0,0.0,0.0,0.0269,0.0493,0.0,0.0,0.0,0.0,0.1345,0.0,0.0,0.0,0.0,0.0,0.0,0.0,0.0,0.0852,0.0673,0.0583,0.0135,0.0,0.0,0.0,0.0,0.0,-0.0045,0.0,0.0,0.0,0.0,0.0,0.0,0.0,0.0,0.0,0.0,0.0,0.0,0.0,0.0,0.0,0.0,0.0,0.0,0.0,0.0,0.0,0.0,0.0,0.0,0.0,0.0,0.0,0.0,-0.6387,-0.6387,-0.6387,-0.6387,-0.6387,-0.6387,-0.6387,-0.6387,-0.6387,-0.6387,-0.6387,-0.6387,-0.6387,-0.6387,-0.6387,-0.6387,-0.6387,0.0,0.0,-0.6384,-0.6368,-0.636,-0.6307,-0.6289,-0.6075,-0.5749,-0.5511,-0.5643,-0.5931,0.0,0.0,0.0,0.0,0.0,0.0,0.0,0.0,0.0,0.0,0.0,0.0,0.0,0.0,0.0,0.0,0.0,0.0,0.0,0.0,0.0,-0.1076,-0.0897,-0.0673,-0.0269,-0.0269,-0.0179,0.0,0.0,0.0,0.0,0.0,0.0,0.0,0.0269,0.0493,0.0718,0.0987,0.1121,0.1166,0.1166,0.0,0.0,0.0,0.0,0.0,0.0,0.0,0.0,0.0807,0.0583,0.0404,0.009,0.0,0.0,0.0,0.0,0.0,-0.0225,0.0,0.0,0.0,0.0,0.0,0.0,0.0,0.0,0.0,0.0,0.0,0.0,0.0,0.0,0.0,0.0,0.0,0.0,0.0,0.0,0.0,0.0,0.0,0.0,0.0,0.0,0.0,0.0,-0.6387,-0.6387,-0.6387,-0.6387,-0.6387,-0.6387,-0.6387,-0.6387,-0.6387,-0.6387,-0.6387,-0.6387,-0.6387,-0.6387,-0.6387,-0.6387,-0.6387,0.0,-0.6387,-0.6379,-0.6333,-0.6192,-0.5984,-0.5838,-0.5551,-0.5111,-0.5111,-0.4961,-0.4937,0.0,0.0,0.0,0.0,0.0,0.0,0.0,0.0,0.0,0.0,0.0,0.0,0.0,0.0,0.0,0.0,0.0,0.0,0.0,0.0,0.0,-0.146,-0.1368,-0.1089,-0.0583,-0.0583,-0.0359,0.0,0.0,0.0,0.0,0.0,0.0,0.0,0.0269,0.0448,0.0583,0.0942,0.1121,0.1121,0.0,0.0,0.0,0.0,0.0,0.0,0.0,0.0,0.0,0.0,-0.0224,-0.0537,-0.1345,0.0,0.0,0.0,0.0,0.0,-0.1032,-0.0763,-0.0628,-0.0135,0.0,0.0,0.0,0.0,0.0,0.0,0.0,0.0,0.0,0.0,0.0,0.0,0.0,0.0,0.0,0.0,0.0,0.0,0.0,0.0,0.0,0.0,0.0,0.0,0.0,0.0,-0.6387,-0.6387,-0.6387,-0.6387,-0.6387,-0.6387,-0.6387,-0.6387,-0.6387,-0.6387,-0.6387,-0.6387,-0.6387,-0.6387,-0.6387,-0.6387,0.0,-0.6387,-0.6379,-0.6165,-0.602,-0.5861,-0.5653,-0.5294,-0.4864,-0.4671,-0.4562,-0.4464,0.0,0.0,0.0,0.0,0.0,0.0,0.0,0.0,0.0,0.0,0.0,0.0,0.0,0.0,0.0,0.0,0.0,0.0,0.0,0.0,-0.1515,-0.1492,-0.1491,-0.129,-0.0808,-0.0718,-0.0494,-0.009,-0.0045,0.0,0.0,0.0,0.0,0.0,0.0,0.0,0.0045,0.0179,0.0313,0.0448,0.0,0.0,0.0,0.0,0.0,0.0,0.0,0.0,0.0,0.0,0.0,0.0,0.0,0.0,0.0,-0.2957,-0.3047,-0.3001,-0.2017,-0.1749,-0.1524,-0.0584,0.0,0.0,0.0,0.0,0.0,0.0,0.0,0.0,0.0,0.0,0.0,0.0,0.0,0.0,0.0,0.0,0.0,0.0,0.0,0.0,0.0,0.0,0.0,0.0,0.0,0.0,-0.6387,-0.6387,-0.6387,-0.6387,-0.6387,-0.6387,-0.6387,-0.6387,-0.6387,-0.6387,-0.6387,-0.6387,-0.6387,-0.6387,-0.6387,-0.6387,-0.6337,-0.6287,-0.6279,-0.5969,-0.5776,-0.5667,-0.5415,-0.5045,-0.4739,-0.448,-0.4363,-0.4408,0.0,0.0,0.0,0.0,0.0,0.0,0.0,0.0,0.0,0.0,0.0,0.0,0.0,0.0,0.0,0.0,0.0,0.0,0.0,0.0,-0.1477,-0.1523,-0.1523,-0.1355,-0.1077,-0.0807,-0.0583,-0.0359,-0.0135,0.0,0.0,0.0,0.0,-0.0045,-0.0897,-0.1165,-0.1029,-0.1877,-0.2012,-0.1611,-0.1787,0.0,0.0,0.0,0.0,0.0,0.0,0.0,0.0,0.0,0.0,0.0,0.0,0.0,-0.403,-0.3135,-0.3539,-0.3985,-0.3045,-0.2778,-0.2553,-0.1569,0.0,0.0,0.0,0.0,0.0,0.0,0.0,0.0,0.0,0.0,0.0,0.0,0.0,0.0,0.0,0.0,0.0,0.0,0.0,0.0,0.0,0.0,0.0,0.0,0.0,0.0,-0.6387,-0.6387,-0.6387,-0.6387,-0.6387,-0.6387,-0.6387,-0.6387,-0.6387,-0.6387,-0.6387,-0.6387,-0.6387,-0.6387,-0.6387,-0.6387,-0.6139,-0.6042,-0.5984,-0.5677,-0.5389,-0.5132,-0.4984,-0.4802,-0.461,-0.4602,-0.46,-0.4647,0.0,0.0,0.0,0.0,0.0,0.0,0.0,0.0,0.0,0.0,0.0,0.0,0.0,0.0,0.0,0.0,0.0,0.0,0.0,-0.1589,-0.1574,-0.1555,-0.1554,-0.1821,-0.2326,-0.149,-0.0787,-0.0411,-0.0722,-0.1211,-0.1793,-0.1793,-0.1793,-0.1838,-0.2196,-0.2284,-0.2238,-0.2413,-0.2412,-0.2235,-0.2144,-0.2055,0.0,0.0,0.0,0.0,0.0,0.0,0.0,0.0,-0.3444,-0.3851,-0.4478,-0.4882,-0.5104,-0.4748,-0.4882,-0.4971,-0.403,-0.336,-0.2823,-0.2419,0.0,0.0,0.0,0.0,0.0,0.0,0.0,0.0,0.0,0.0,0.0,0.0,0.0,0.0,0.0,0.0,0.0,0.0,0.0,0.0,0.0,0.0,0.0,0.0,0.0,0.0,-0.6328,-0.6331,-0.6363,-0.6384,-0.6387,-0.6387,-0.6387,-0.6387,-0.6387,-0.6387,-0.6387,-0.6387,-0.6387,-0.6387,-0.6387,-0.6387,-0.6289,-0.6139,-0.5984,-0.563,-0.534,-0.5083,-0.4797,-0.4666,-0.4621,-0.4621,-0.4621,-0.4619,0.0,0.0,0.0,0.0,0.0,0.0,0.0,0.0,0.0,0.0,0.0,0.0,0.0,0.0,0.0,0.0,0.0,0.0,-0.2672,-0.2622,-0.2607,-0.2623,-0.262,-0.2947,-0.363,-0.2761,-0.2106,-0.1679,-0.1919,-0.2352,-0.2938,-0.2921,-0.2911,-0.2911,-0.3226,-0.336,-0.3358,-0.3444,-0.3486,-0.3396,-0.3306,-0.3217,0.0,0.0,0.0,0.0,0.0,0.0,0.0,0.0,-0.4516,-0.4837,-0.5508,-0.5688,-0.5688,-0.5688,-0.5688,-0.5555,-0.4926,-0.4253,-0.3717,0.0,0.0,0.0,0.0,0.0,0.0,0.0,0.0,0.0,0.0,0.0,0.0,0.0,0.0,0.0,0.0,0.0,0.0,0.0,0.0,0.0,0.0,0.0,0.0,0.0,0.0,0.0,0.0,-0.5772,-0.5953,-0.6273,-0.6325,-0.6325,-0.6325,-0.6325,-0.6325,-0.6325,-0.6325,-0.6314,-0.6387,-0.6387,-0.6387,-0.6387,-0.6287,-0.6139,-0.5834,-0.5516,-0.5239,-0.4984,-0.4774,-0.4655,-0.4655,-0.4655,-0.4655,-0.4651,0.0,0.0,0.0,0.0,0.0,0.0,0.0,0.0,0.0,0.0,0.0,0.0,0.0,0.0,0.0,0.0,0.0,0.0,-0.4824,-0.4824,-0.4824,-0.4824,-0.4824,-0.4824,-0.4824,-0.4824,-0.4689,-0.4419,-0.3728,-0.3276,-0.3043,-0.294,-0.2913,-0.2957,-0.3896,-0.43,-0.4389,-0.5285,-0.5597,-0.5416,-0.5599,-0.5597,-0.5416,0.0,0.0,0.0,0.0,0.0,0.0,0.0,-0.5552,-0.5688,-0.5688,-0.5688,-0.5688,-0.5688,-0.5688,-0.5688,-0.5688,-0.5688,0.0,0.0,0.0,0.0,0.0,0.0,0.0,0.0,0.0,0.0,0.0,0.0,0.0,0.0,0.0,0.0,0.0,0.0,0.0,0.0,0.0,0.0,0.0,0.0,0.0,0.0,0.0,0.0,0.0,-0.4705,-0.5131,-0.6039,-0.6086,-0.6086,-0.6086,-0.6086,-0.6086,-0.6086,-0.6086,-0.6208,-0.6384,-0.6384,-0.6384,-0.6384,-0.6137,-0.5837,-0.5582,-0.5286,-0.5035,-0.4782,-0.4782,-0.4782,-0.4782,-0.4782,-0.4782,-0.477,0.0,0.0,0.0,0.0,0.0,0.0,0.0,0.0,0.0,0.0,0.0,0.0,0.0,0.0,0.0,0.0,0.0,0.0,-0.5127,-0.4924,-0.4824,-0.4824,-0.4824,-0.5177,-0.5932,-0.6684,-0.6506,-0.5432,-0.4896,-0.4893,-0.5457,-0.5168,-0.5027,-0.5024,-0.5183,-0.5285,-0.5285,-0.5599,-0.5688,-0.5599,-0.5688,-0.5644,-0.5599,0.0,0.0,0.0,0.0,0.0,0.0,0.0,0.0,0.0,-0.5688,-0.5688,-0.5688,-0.5688,-0.5688,-0.5688,-0.5688,0.0,0.0,0.0,0.0,0.0,0.0,0.0,0.0,0.0,0.0,0.0,0.0,0.0,0.0,0.0,0.0,0.0,0.0,0.0,0.0,0.0,0.0,0.0,0.0,0.0,0.0,0.0,0.0,0.0,0.0,-0.4187,-0.4731,-0.5083,-0.575,-0.6086,-0.6086,-0.6086,-0.6086,-0.6086,-0.6086,-0.6121,-0.6189,-0.6189,-0.6189,-0.6189,-0.5898,-0.5658,-0.5372,-0.494,-0.4747,-0.4651,-0.4651,-0.4651,-0.4651,-0.4651,-0.4651,-0.4647,0.0,0.0,0.0,0.0,0.0,0.0,0.0,0.0,0.0,0.0,0.0,0.0,0.0,0.0,0.0,0.0,0.0,0.0,0.0,-0.6326,-0.6176,-0.6077,-0.6077,-0.6381,-0.7036,-0.769,-0.7598,-0.6726,-0.6155,-0.6146,-0.6581,-0.6172,-0.595,-0.5899,-0.5831,-0.5731,-0.5688,-0.5688,-0.5688,-0.5688,-0.5688,-0.5688,-0.5688,0.0,0.0,0.0,0.0,0.0,0.0,0.0,0.0,0.0,-0.5688,-0.5688,-0.5688,-0.5688,-0.5688,-0.5688,-0.5688,0.0,0.0,0.0,0.0,0.0,0.0,0.0,0.0,0.0,0.0,0.0,0.0,0.0,0.0,0.0,0.0,0.0,0.0,0.0,0.0,0.0,0.0,0.0,0.0,0.0,0.0,0.0,0.0,0.0,0.0,-0.2917,-0.3484,-0.3992,-0.4408,-0.4684,-0.4684,-0.4965,-0.5106,-0.5106,-0.5478,-0.5665,-0.5668,-0.5852,-0.5894,-0.5803,-0.5561,-0.5325,-0.5138,-0.4761,-0.4621,-0.4621,-0.4621,-0.4621,-0.4621,-0.4621,-0.4621,-0.4614,0.0,0.0,0.0,0.0,0.0,0.0,0.0,0.0,0.0,0.0,0.0,0.0,0.0,0.0,0.0,0.0,0.0,0.0,0.0,0.0,-0.8283,-0.8038,-0.7988,-0.7988,-0.7988,-0.7988,-0.7988,-0.7988,-0.741,-0.7006,-0.6714,-0.6348,-0.6089,-0.5934,-0.5958,-0.5844,-0.5702,-0.5694,-0.5688,-0.5688,-0.5688,-0.5688,-0.5688,-0.5688,0.0,0.0,0.0,0.0,0.0,0.0,0.0,0.0,-0.5688,-0.5688,-0.5688,-0.5688,-0.5688,-0.5688,0.0,0.0,0.0,0.0,0.0,0.0,0.0,0.0,0.0,0.0,0.0,0.0,0.0,0.0,0.0,0.0,0.0,0.0,0.0,0.0,0.0,0.0,0.0,0.0,0.0,0.0,0.0,0.0,0.0,0.0,0.0,-0.13,-0.1748,-0.2688,-0.2549,-0.2457,-0.2457,-0.3129,-0.3489,-0.3623,-0.4472,-0.4921,-0.4973,-0.5439,-0.5531,-0.5301,-0.5063,-0.4967,-0.4919,-0.4688,-0.4594,-0.4594,-0.4594,-0.4594,-0.4594,-0.4594,-0.4594,-0.4536,0.0,0.0,0.0,0.0,0.0,0.0,0.0,0.0,0.0,0.0,0.0,0.0,0.0,0.0,0.0,0.0,0.0,0.0,0.0,0.0,-0.8382,-0.8333,-0.8088,-0.7988,-0.7988,-0.7988,-0.7988,-0.7988,-0.766,-0.7347,-0.7093,-0.6958,-0.6642,-0.6229,-0.6226,-0.6076,-0.586,-0.5726,-0.5688,-0.5688,-0.5688,-0.5688,-0.5688,-0.5688,-0.5688,0.0,0.0,0.0,0.0,0.0,0.0,0.0,-0.5688,-0.5688,-0.5688,-0.5688,-0.5688,-0.5688,0.0,0.0,0.0,0.0,0.0,0.0,0.0,0.0,0.0,0.0,0.0,0.0,0.0,0.0,0.0,0.0,0.0,0.0,0.0,0.0,0.0,0.0,0.0,0.0,0.0,0.0,0.0,0.0,0.0,0.0,0.0045,-0.0537,-0.0939,-0.1163,-0.1832,-0.2188,-0.2188,-0.2323,-0.2815,-0.3623,-0.3803,-0.4206,-0.4795,-0.5013,-0.5034,-0.4858,-0.4768,-0.463,-0.4447,-0.4402,-0.4357,-0.4357,-0.4357,-0.4357,-0.4357,-0.4357,-0.4357,-0.4355,0.0,0.0,0.0,0.0,0.0,0.0,0.0,0.0,0.0,0.0,0.0,0.0,0.0,0.0,0.0,0.0,0.0,0.0,0.0,0.0,-0.8684,-0.8432,-0.8137,-0.7988,-0.7988,-0.7988,-0.8237,-0.8775,-0.8627,-0.8134,-0.7391,-0.775,-0.7677,-0.7224,-0.7736,-0.7809,-0.7448,-0.7305,-0.7244,-0.7238,-0.7081,-0.7051,-0.7007,-0.6526,-0.6349,-0.6305,-0.5866,0.0,0.0,0.0,0.0,0.0,0.0,0.0,-0.5688,-0.5688,-0.5688,-0.5688,0.0,0.0,0.0,0.0,0.0,0.0,0.0,0.0,0.0,0.0,0.0,0.0,0.0,0.0,0.0,0.0,0.0,0.0,0.0,0.0,0.0,0.0,0.0,0.0,0.0,0.0,0.0,0.0,0.0,0.0348,0.0348,0.0087,-0.0087,-0.0087,-0.0434,-0.0608,-0.0608,-0.0955,-0.1388,-0.191,-0.2388,-0.2996,-0.3826,-0.4391,-0.4612,-0.4525,-0.4525,-0.4433,-0.43,-0.43,-0.43,-0.43,-0.43,-0.43,-0.4293,-0.4255,-0.4238,-0.4232,0.0,0.0,0.0,0.0,0.0,0.0,0.0,0.0,0.0,0.0,0.0,0.0,0.0,0.0,0.0,0.0,0.0,0.0,0.0,0.0,0.0,-0.8676,-0.8577,-0.8528,-0.8528,-0.8528,-0.897,-0.985,-0.985,-0.9312,-0.8233,-0.8913,-0.8984,-0.8568,-0.9492,-0.972,-0.9283,-0.9105,-0.9013,-0.8927,-0.869,-0.8524,-0.8412,-0.7621,-0.736,-0.7228,-0.6482,-0.6086,-0.5952,-0.5952,0.0,0.0,0.0,0.0,-0.5688,-0.5688,-0.5688,-0.5688,0.0,0.0,0.0,0.0,0.0,0.0,0.0,0.0,0.0,0.0,0.0,0.0,0.0,0.0,0.0,0.0,0.0,0.0,0.0,0.0,0.0,0.0,0.0,0.0,0.0,0.0,0.0,0.0,0.0,0.0337,0.0379,0.0548,0.0674,0.0716,0.0927,0.1053,0.1053,0.0462,0.0042,-0.0126,-0.105,-0.189,-0.2606,-0.3573,-0.412,-0.4253,-0.4253,-0.4253,-0.4253,-0.4253,-0.4253,-0.4253,-0.4253,-0.4253,-0.4244,-0.4175,-0.4105,-0.405,0.0,0.0,0.0,0.0,0.0,0.0,0.0,0.0,0.0,0.0,0.0,0.0,0.0,0.0,0.0,0.0,0.0,0.0,-0.9529,0.0,0.0,-0.9805,-1.044,-1.0783,-1.0783,-1.0783,-1.0828,-1.0974,-1.0974,-1.0881,0.0,0.0,-1.0471,-0.9759,-1.0267,-1.0222,-0.9711,-0.9567,-0.9396,-0.9206,-0.896,-0.8722,-0.85,-0.8368,-0.8324,-0.8281,-0.8193,-0.7621,-0.6922,-0.6922,-0.6393,0.0,0.0,0.0,-0.5688,-0.5688,-0.5688,0.0,0.0,0.0,0.0,0.0,0.0,0.0,0.0,0.0,0.0,0.0,0.0,0.0,0.0,0.0,0.0,0.0,0.0,0.0,0.0,0.0,0.0,0.0,0.0,0.0,0.0,0.0,0.0,0.0,0.0253,0.0463,0.0632,0.0842,0.1011,0.1221,0.1221,0.1263,0.1263,0.1179,0.0715,-0.0126,-0.105,-0.1555,-0.1723,-0.2577,-0.3389,-0.4029,-0.4029,-0.4029,-0.4029,-0.4029,-0.4029,-0.4029,-0.4029,-0.4029,-0.4027,-0.4017,-0.3798,-0.35,0.0,0.0,0.0,0.0,0.0,0.0,0.0,0.0,0.0,0.0,0.0,0.0,0.0,0.0,0.0,-1.2047,-1.1614,-1.1326,-1.1326,-1.1424,-1.137,-1.1121,-1.1317,-1.1365,-1.1219,-1.1219,-1.1463,-1.2047,-1.2047,0.0,0.0,-1.2926,-1.2393,-1.1365,-1.21,-1.2251,-1.1847,-1.1712,-1.1487,-1.1232,-1.0835,-1.0529,-1.0207,-0.955,-0.9288,-0.92,-0.8675,-0.8237,-0.7885,-0.7885,-0.7272,-0.6482,-0.6482,0.0,0.0,0.0,0.0,0.0,0.0,0.0,0.0,0.0,0.0,0.0,0.0,0.0,0.0,0.0,0.0,0.0,0.0,0.0,0.0,0.0,0.0,0.0,0.0,0.0,0.0,0.0,0.0,0.0,0.0,0.0,0.0,0.0,0.0365,0.0608,0.081,0.1053,0.1216,0.1297,0.1297,0.1297,0.1297,0.1297,0.1094,0.0688,-0.0243,-0.0647,-0.0687,-0.2021,-0.287,-0.336,-0.3825,-0.3994,-0.3994,-0.3994,-0.3994,-0.3994,-0.3994,-0.3994,-0.3986,-0.3686,-0.3503,-0.329,0.0,0.0,0.0,0.0,0.0,0.0,0.0,0.0,0.0,0.0,0.0,0.0,0.0,0.0,0.0,0.0,-1.2877,-1.2678,-1.2678,-1.2678,-1.2635,-1.249,-1.2441,-1.2296,-1.2096,-1.2004,-1.2344,-1.3119,0.0,0.0,-1.4298,-1.4298,-1.3806,0.0,-1.3678,-1.3835,-1.3576,-1.3429,-1.3211,-1.2859,-1.2355,-1.1971,-1.1613,-1.0603,-1.025,-1.0164,-0.9462,-0.9069,-0.8851,-0.8851,-0.8237,-0.7404,-0.7183,-0.6612,0.0,0.0,0.0,0.0,0.0,0.0,0.0,0.0,0.0,0.0,0.0,0.0,0.0,0.0,0.0,0.0,0.0,0.0,0.0,0.0,0.0,0.0,0.0,0.0,0.0,0.0,0.0,0.0,0.0,0.0,0.0,0.0,0.051,0.0707,0.0904,0.11,0.1218,0.1296,0.1296,0.1296,0.1296,0.1296,0.1296,0.1296,0.0628,0.0314,0.0274,-0.1176,-0.2077,-0.2474,-0.351,-0.3967,-0.3967,-0.3967,-0.3967,-0.3967,-0.3967,-0.3884,-0.3712,-0.3362,-0.3139,-0.2889,0.0,0.0,0.0,0.0,0.0,0.0,0.0,0.0,0.0,0.0,0.0,0.0,-1.5635,-1.4771,-1.4202,-1.4202,-1.327,-1.2678,-1.2678,-1.3414,-1.3806,-1.3806,-1.425,0.0,-1.4544,-1.425,-1.4148,0.0,0.0,0.0,-1.4298,-1.4298,-1.425,-1.4202,-1.425,-1.4112,-1.3883,0.0,-1.362,-1.315,-1.258,-1.2115,-1.1656,-1.1354,-1.1219,-1.1219,-1.1176,-1.0559,-0.9816,-0.9816,-0.92,-0.8281,-0.736,0.0,0.0,0.0,0.0,0.0,0.0,0.0,0.0,0.0,0.0,0.0,0.0,0.0,0.0,0.0,0.0,0.0,0.0,0.0,0.0,0.0,0.0,0.0,0.0,0.0,0.0,0.0,0.0,0.0,0.0,0.0,0.0,0.0,0.0589,0.0707,0.0904,0.0904,0.1021,0.1296,0.1296,0.1296,0.1296,0.1296,0.1296,0.1296,0.1257,0.1218,0.1218,0.0274,-0.0588,-0.1455,-0.3107,-0.3816,-0.3816,-0.3816,-0.3816,-0.3816,-0.3816,-0.3544,-0.3151,-0.3108,-0.2633,-0.1963,0.0,0.0,0.0,0.0,0.0,0.0,0.0,0.0,0.0,0.0,0.0,0.0,0.0,-1.5493,-1.5255,-1.5255,-1.4908,-1.4711,-1.4711,-1.4956,-1.5057,-1.4914,-1.5112,-1.5118,-1.4981,-1.4688,-1.4544,0.0,0.0,-1.4298,-1.4298,-1.4298,-1.4298,-1.4298,-1.4298,-1.425,-1.416,-1.416,0.0,0.0,0.0,0.0,0.0,0.0,0.0,0.0,0.0,0.0,0.0,0.0,0.0,0.0,0.0,0.0,0.0,0.0,0.0,0.0,0.0,0.0,0.0,0.0,0.0,0.0,0.0,0.0,0.0,0.0,0.0,0.0,0.0,0.0,0.0,0.0,0.0,0.0,0.0,0.0,0.0,0.0,0.0,0.0,0.0,0.0,0.0,0.0,0.0,0.0904,0.1139,0.1139,0.1218,0.1296,0.1296,0.1296,0.1296,0.1296,0.1296,0.1296,0.1296,0.1296,0.1257,0.0392,-0.0157,-0.0548,-0.1684,-0.2821,-0.3802,-0.3802,-0.3802,-0.3802,-0.3802,-0.353,-0.3062,-0.2826,-0.2353,-0.1882,0.0,0.0,0.0,0.0,0.0,0.0,0.0,0.0,0.0,-1.6109,0.0,0.0,0.0,0.0,-1.5784,-1.5784,-1.5784,-1.5784,-1.5784,-1.5784,-1.573,-1.5588,-1.554,-1.5404,-1.522,-1.4981,-1.479,0.0,0.0,0.0,0.0,-1.4298,-1.4298,-1.4292,-1.4675,-1.4627,0.0,0.0,0.0,-1.3513,0.0,0.0,-1.2363,0.0,0.0,0.0,0.0,0.0,0.0,0.0,0.0,0.0,0.0,0.0,0.0,0.0,0.0,0.0,0.0,0.0,0.0,0.0,0.0,0.0,0.0,0.0,0.0,0.0,0.0,0.0,0.0,0.0,0.0,0.0,0.0,0.0,0.0,0.0,0.0,0.0,0.0,0.0,0.0,0.0,0.0,0.0,0.0,0.0,0.1296,0.1296,0.1296,0.1296,0.1296,0.1296,0.1296,0.1296,0.1296,0.1296,0.1296,0.1296,0.1296,0.0706,0.0274,-0.0039,-0.0627,-0.1802,-0.3372,-0.3372,-0.3528,-0.3802,-0.3645,-0.3295,-0.2865,-0.2431,-0.204,-0.1648,0.0,0.0,0.0,0.0,0.0,0.0,0.0,0.0,-1.6629,-1.6636,0.0,0.0,0.0,0.0,0.0,-1.5879,-1.5879,-1.5825,-1.5784,-1.5784,-1.5784,-1.5784,-1.5588,-1.554,-1.554,-1.5267,-1.5029,-1.4831,-1.4783,-1.4682,-1.4388,0.0,-1.4388,-1.4436,-1.5425,-1.5276,-1.4424,0.0,-1.4953,-1.3649,0.0,-1.3781,-1.2406,0.0,0.0,0.0,-1.1995,-1.1995,0.0,-1.1995,0.0,0.0,0.0,0.0,0.0,0.0,0.0,0.0,0.0,0.0,0.0,0.0,0.0,0.0,0.0,0.0,0.0,0.0,0.0,0.0,0.0,0.0,0.0,0.0,0.0,0.0,0.0,0.0,0.0,0.0,0.0,0.0,0.0,0.0,0.0,0.0,0.1296,0.1296,0.1296,0.1296,0.1296,0.1296,0.1296,0.1296,0.1296,0.1296,0.1296,0.1296,0.1296,0.1296,0.1296,0.1296,0.0824,0.0039,0.0039,-0.0901,-0.2431,-0.247,-0.294,-0.3684,-0.3217,-0.2826,-0.2392,-0.2038,-0.1648,-0.1296,0.0,0.0,0.0,0.0,0.0,0.0,-1.8419,-1.8241,-1.7824,0.0,0.0,0.0,-1.6494,-1.7037,-1.735,-1.7178,-1.7178,-1.6763,-1.5872,-1.5784,-1.5784,-1.5784,-1.5737,-1.6062,-1.681,-1.652,-1.6741,-1.7375,-1.7196,-1.6962,-1.6767,-1.6767,-1.668,0.0,-1.6781,-1.6567,-1.604,-1.6317,0.0,0.0,-1.4771,-1.4117,0.0,0.0,0.0,0.0,0.0,-1.2283,-1.2283,0.0,-1.2075,-1.1564,0.0,0.0,0.0,0.0,0.0,0.0,-0.5518,0.0,0.0,0.0,0.0,0.0,0.0,0.0,0.0,0.0,0.0,0.0,0.0,0.0,0.0,0.0,0.0,0.0,0.0,0.0,0.0,0.0,0.0,0.0,0.0,0.0,0.0,0.0,0.1296,0.1296,0.1296,0.1296,0.1296,0.1296,0.1296,0.1296,0.1296,0.1296,0.1296,0.1296,0.1296,0.1296,0.1296,0.1296,0.1178,0.0942,0.0942,0.0392,-0.0548,-0.1293,-0.1646,-0.1723,-0.2078,-0.1882,-0.1371,-0.1763,-0.1648,-0.1296,0.0,0.0,0.0,0.0,0.0,-2.0602,-1.9877,-1.9559,-1.9055,0.0,0.0,0.0,-1.7816,-1.8311,-1.8588,-1.8457,-1.8373,-1.7948,-1.721,-1.7077,-1.703,-1.703,-1.703,-1.7318,-1.7924,-1.7777,-1.7902,-1.8395,-1.8257,-1.8025,-1.7701,-1.7701,-1.7561,-1.7289,0.0,0.0,0.0,0.0,0.0,0.0,-1.5324,0.0,0.0,-1.2912,-1.2619,0.0,0.0,0.0,-1.2534,-1.2534,-1.2203,0.0,0.0,0.0,0.0,0.0,0.0,0.0,0.0,0.0,0.0,0.0,0.0,0.0,-0.5116,-0.4985,0.0,0.0,0.0,0.0,0.0,0.0,0.0,0.0,0.0,0.0,0.0,0.0,0.0,0.0,0.0,0.0,0.0,0.1218,0.1296,0.1296,0.1296,0.1296,0.1296,0.161,0.1805,0.1805,0.1805,0.1805,0.1805,0.1453,0.1296,0.1296,0.1296,0.1296,0.1296,0.1296,0.1335,0.1415,0.1415,0.1256,0.0902,0.0274,-0.0274,-0.0784,-0.1019,-0.0862,-0.0548,-0.0784,-0.0863,-0.0864,0.0,0.0,0.0,-2.3222,-2.2457,-2.1872,-2.1739,-2.0962,-2.0322,0.0,-2.0059,-1.9886,-1.977,-1.9724,-1.9716,-1.9724,-1.9497,-1.9268,-1.9131,-1.8918,-1.8834,-1.8788,-1.8788,-1.8834,-1.8972,-1.8972,-1.8918,-1.8764,-1.8764,-1.8534,-1.8118,-1.8034,-1.788,-1.7641,0.0,0.0,0.0,0.0,0.0,-1.5896,-1.5839,-1.5163,0.0,0.0,-1.2705,-1.2705,-1.2705,-1.2705,-1.2705,-1.2662,-1.2369,0.0,0.0,0.0,0.0,0.0,-0.6379,0.0,0.0,0.0,0.0,0.0,0.0,0.0,-0.5018,-0.4859,-0.4779,0.0,0.0,0.0,0.0,0.0,0.0,0.0,0.0,0.0,0.0,0.0,0.0,0.0,0.0,0.0,0.0825,0.1178,0.1296,0.1296,0.1296,0.1296,0.1296,0.208,0.2511,0.2511,0.2588,0.2588,0.2511,0.1805,0.1375,0.1296,0.1335,0.1335,0.1335,0.1375,0.1454,0.165,0.165,0.1729,0.1925,0.1925,0.1059,-0.0274,0.0039,0.0157,0.0196,0.051,0.0275,-0.0196,0.0,0.0,0.0,-2.3667,-2.3406,-2.2862,-2.2085,-2.1641,-2.1105,-2.0322,-2.0187,-2.0421,-2.1186,-2.1284,-2.1195,-2.097,-2.0899,-2.035,-1.9177,-1.9039,-1.8964,-1.8796,-1.8788,-1.9201,-1.9977,-2.0022,-2.0348,-2.1042,-2.1042,-2.0907,-2.0682,-2.0189,-1.9829,-1.9546,0.0,0.0,0.0,0.0,0.0,-1.6472,-1.5766,0.0,-1.4929,-1.3336,-1.2705,-1.2705,-1.2705,-1.2705,-1.2662,-1.2491,-1.2412,-1.224,0.0,0.0,0.0,-0.8488,0.0,0.0,0.0,0.0,0.0,0.0,0.0,0.0,-0.5018,-0.4976,-0.4898,0.0,0.0,0.0,0.0,0.0,0.0,0.0,0.0,0.0,0.0,0.0,0.0,0.0,0.0,0.0,0.1139,0.1257,0.1296,0.1296,0.1296,0.1296,0.1296,0.208,0.2511,0.2511,0.3171,0.321,0.2511,0.2354,0.1923,0.1296,0.1454,0.1533,0.1533,0.169,0.1808,0.1848,0.1848,0.1963,0.2157,0.2157,0.196,0.1607,0.1216,0.1138,0.1215,0.0785,0.051,0.0432,0.0,0.0,0.0,-2.3841,-2.3624,-2.3319,-2.2809,-2.2545,-2.2236,-2.173,-2.1641,-2.1819,-2.2325,-2.2413,-2.2325,-2.2192,-2.2094,-2.173,-2.1006,-2.0827,-2.0656,-2.0439,-2.0439,-2.0628,-2.0988,-2.0997,-2.1123,-2.142,-2.142,-2.1197,-2.0797,-2.0373,-2.0025,-1.9774,-1.9178,0.0,0.0,0.0,-1.7909,-1.7245,-1.5933,0.0,-1.4552,-1.3209,-1.2705,-1.2705,-1.2705,-1.2705,-1.2662,-1.2577,-1.2491,0.0,0.0,-1.0642,-0.8901,0.0,-0.7027,-0.5459,0.0,0.0,0.0,-0.5018,0.0,0.0,0.0,-0.4937,-0.4859,0.0,0.0,0.0,0.0,0.0,0.0,0.0,0.0,0.0,0.0,0.0,0.0,0.0,0.0,0.0,0.1218,0.1296,0.1296,0.1296,0.1296,0.1296,0.1296,0.2469,0.3132,0.3132,0.3949,0.4183,0.3756,0.3015,0.243,0.2038,0.1846,0.1768,0.1768,0.1848,0.1964,0.2042,0.2042,0.2158,0.2353,0.2353,0.2353,0.2314,0.2002,0.1961,0.1999,0.1687,0.1373,0.1138,-2.4292,0.0,0.0,0.0,-2.3754,-2.3634,-2.359,-2.3319,-2.3144,-2.3101,-2.3091,-2.3091,-2.3091,-2.3091,-2.3091,-2.3091,-2.2969,-2.2838,-2.2803,-2.2618,-2.2353,-2.2097,-2.2097,-2.1926,-2.1577,-2.1568,-2.141,-2.0998,-2.0998,-2.0747,-2.0235,-1.9867,-1.9611,-1.9415,0.0,0.0,0.0,0.0,0.0,-1.7375,0.0,-1.5054,-1.4413,-1.333,-1.2954,-1.2912,-1.2747,-1.2705,-1.2705,-1.2705,-1.2541,-1.2342,-1.2135,-1.0653,0.0,0.0,0.0,0.0,0.0,0.0,0.0,0.0,0.0,-0.5018,0.0,0.0,0.0,0.0,0.0,0.0,0.0,0.0,0.0,0.0,0.0,0.0,0.0,0.0,0.0,0.0,0.0,0.0,0.0,0.1296,0.1375,0.1532,0.1532,0.1609,0.1765,0.3209,0.4025,0.4025,0.4807,0.516,0.5004,0.3869,0.3207,0.3052,0.2627,0.2433,0.2433,0.2472,0.2588,0.2741,0.2586,0.2586,0.2743,0.2588,0.2511,0.2511,0.2511,0.2511,0.2511,0.2511,0.2235,0.1921,-2.4454,-2.4454,0.0,0.0,0.0,-2.4024,-2.3797,-2.359,-2.3373,-2.3135,-2.3091,0.0,0.0,0.0,0.0,0.0,0.0,0.0,-2.2794,0.0,-2.2539,-2.2097,-2.2097,-2.1831,-2.119,-2.1181,-2.0979,-2.0585,-2.0585,-2.0525,-2.047,-1.9698,-1.933,0.0,-1.8434,0.0,0.0,0.0,-1.7131,0.0,-1.5477,-1.5801,0.0,-1.4496,-1.3837,-1.3753,-1.2997,-1.2705,-1.2705,0.0,-1.2548,-1.2313,0.0,-1.0803,-0.9023,-0.8809,0.0,0.0,0.0,0.0,0.0,0.0,-0.5132,0.0,0.0,0.0,-0.4976,-0.4979,0.0,0.0,0.0,0.0,0.0,0.0,0.0,0.0,0.0,0.0,0.0,0.0,0.0,0.0,0.0,0.1296,0.161,0.2315,0.2354,0.2704,0.3482,0.4377,0.4846,0.4846,0.5709,0.5789,0.5004,0.4999,0.4647,0.3951,0.4261,0.4377,0.4377,0.4574,0.4652,0.4652,0.391,0.3636,0.3599,0.2821,0.2511,0.2511,0.2511,0.2511,0.2511,0.2511,0.2668,0.2943,-2.4497,-2.4497,0.0,0.0,0.0,0.0,-2.4067,-2.3721,-2.3406,0.0,0.0,0.0,0.0,0.0,0.0,0.0,0.0,-2.3047,0.0,0.0,-2.2438,-2.196,-2.1716,-2.1328,-2.0769,-2.0769,-2.0525,-2.0131,-2.0131,-2.0053,-1.9806,-1.9327,-1.9052,0.0,-1.8432,0.0,-1.8,0.0,0.0,0.0,0.0,0.0,0.0,-1.4126,-1.3252,-1.3209,-1.2833,-1.2705,-1.2681,0.0,-1.2403,0.0,0.0,0.0,0.0,0.0,0.0,0.0,0.0,0.0,0.0,0.0,0.0,0.0,-0.5015,0.0,-0.4859,0.0,0.0,0.0,0.0,0.0,0.0,0.0,0.0,0.0,0.0,0.0,0.0,0.0,0.0,0.0,0.0,0.0,0.0,0.0,0.2511,0.2899,0.3752,0.4574,0.5004,0.5004,0.5828,0.6177,0.5938,0.5622,0.5351,0.516,0.4963,0.4885,0.4885,0.4963,0.5004,0.4963,0.4652,0.4494,0.4457,0.4107,0.3798,0.3602,0.3602,0.3292,0.2865,0.2865,0.3139,0.353,-2.4483,0.0,0.0,0.0,0.0,0.0,-2.411,-2.3764,-2.3406,-2.3144,0.0,0.0,-2.3101,-2.2994,0.0,0.0,-2.2818,-2.275,0.0,0.0,-2.2165,0.0,0.0,0.0,0.0,-2.0356,-2.0122,-1.976,-1.976,-1.9604,-1.9301,-1.9073,-1.8882,-1.87,0.0,-1.8233,-1.8,0.0,0.0,-1.7578,-1.6944,-1.6404,-1.5745,-1.3789,-1.2912,-1.2705,-1.2705,-1.2656,-1.2566,-1.2379,-1.2052,0.0,-1.0611,0.0,0.0,0.0,0.0,0.0,-0.5676,0.0,0.0,0.0,0.0,0.0,0.0,0.0,0.0,0.0,0.0,0.0,0.0,0.0,0.0,0.0,0.0,0.0,0.0,0.0,0.0,0.0,0.0,0.0,0.0,0.0,0.0,0.2665,0.2821,0.3366,0.4494,0.5118,0.547,0.5506,0.6135,0.6525,0.6676,0.6247,0.6131,0.6251,0.5857,0.5699,0.5699,0.5699,0.5699,0.5661,0.5428,0.5351,0.5386,0.5157,0.4963,0.473,0.473,0.4421,0.3878,0.3452,0.3569,0.3997,-2.4471,-2.4397,0.0,0.0,0.0,-2.4325,-2.3884,-2.3624,-2.3406,0.0,0.0,0.0,0.0,0.0,0.0,0.0,0.0,-2.1924,-2.1924,0.0,-2.178,0.0,0.0,-2.091,0.0,0.0,-1.9701,-1.932,-1.932,-1.932,-1.9301,-1.9073,-1.8882,-1.87,-1.8482,-1.8233,-1.8,-1.8,-1.7497,-1.6739,-1.6698,-1.5662,-1.4084,0.0,-1.3415,-1.2705,-1.2705,0.0,0.0,-1.2318,-1.1439,0.0,0.0,0.0,0.0,0.0,0.0,0.0,0.0,0.0,0.0,-0.5359,0.0,0.0,0.0,0.0,-0.3597,0.0,0.0,0.0,0.0,0.0,0.0,0.0,0.0,0.0,0.0,0.0,0.0,0.0,0.0,0.0,0.0,0.0,0.0,0.3242,0.3597,0.4572,0.6405,0.6525,0.6637,0.6822,0.6865,0.6903,0.6899,0.7065,0.7146,0.7146,0.733,0.7403,0.7403,0.7403,0.7403,0.7365,0.6514,0.6276,0.6388,0.5616,0.5381,0.5568,0.5568,0.5767,0.5893,0.4345,0.4036,0.4384,0.0,0.0,0.0,0.0,0.0,-2.3515,-2.3174,-2.3412,0.0,0.0,0.0,0.0,0.0,-2.2178,-2.21,0.0,0.0,-2.1885,-2.1885,-2.1611,0.0,0.0,0.0,-2.0181,0.0,0.0,0.0,-1.9301,-1.9301,-1.9301,-1.9301,-1.9231,-1.9073,-1.8882,0.0,-1.8482,0.0,0.0,0.0,0.0,0.0,-1.6,-1.4803,0.0,-1.2954,-1.2681,-1.2506,-1.2391,0.0,-1.1874,-1.1117,-1.0162,-0.9468,-0.8449,-0.7369,-0.6791,-0.6331,-0.6018,0.0,0.0,-0.5559,-0.5359,0.0,0.0,0.0,0.0,0.0,0.0,0.0,0.0,0.0,0.0,0.0,0.0,0.0,0.0,0.0,0.0,0.0,0.0,0.0,0.0,0.0,0.0,0.0,0.3519,0.3871,0.4766,0.6521,0.6714,0.6826,0.6903,0.6903,0.698,0.7103,0.718,0.7257,0.7407,0.7484,0.7484,0.7484,0.7484,0.7484,0.7484,0.733,0.7292,0.7369,0.7207,0.7049,0.6857,0.6857,0.678,0.6553,0.5699,0.5661,0.6051,-2.5494,0.0,0.0,0.0,0.0,0.0,0.0,0.0,0.0,0.0,-2.295,0.0,-2.2009,0.0,-2.165,0.0,-2.1514,-2.1456,-2.1456,-2.1152,0.0,-2.0778,-2.0202,0.0,0.0,0.0,0.0,0.0,0.0,-1.9301,-1.9301,-1.9301,-1.9183,-1.9002,0.0,-1.8652,-1.8402,0.0,-1.808,0.0,0.0,-1.5849,0.0,0.0,-1.2777,-1.2998,0.0,-1.2192,-1.1946,-1.1609,-1.0722,-0.9609,-0.8851,-0.7902,-0.6949,-0.6257,-0.6064,-0.5983,-0.5747,-0.5434,0.0,-0.4849,-0.4535,0.0,-0.3129,0.0,-0.2503,0.0,0.0,0.0,0.0,0.0,0.0,0.0,0.0,0.0,0.0,0.0118,0.0,0.0,0.0,0.0,0.0,0.0,0.1686,0.3636,0.3988,0.4885,0.0,0.0,0.7019,0.7096,0.7096,0.7173,0.7296,0.7296,0.7369,0.7484,0.7484,0.7484,0.7484,0.7561,0.7603,0.7603,0.7838,0.7953,0.803,0.814,0.8097,0.794,0.794,0.7787,0.7437,0.6703,0.663,0.6903,0.0,0.0,0.0,0.0,-2.5274,0.0,0.0,0.0,-2.4497,0.0,-2.3381,-2.305,-2.2053,-2.1567,-2.1281,-2.1281,-2.0928,-2.0712,-2.0712,-2.0683,0.0,0.0,-2.0177,-1.9902,-1.9902,0.0,0.0,0.0,0.0,0.0,-1.9301,-1.9301,-1.9192,-1.9002,-1.9002,0.0,-1.8402,-1.8402,-1.8224,-1.7844,-1.615,-1.5331,-1.482,-1.3097,-1.294,-1.354,-1.2599,-1.1916,-1.1489,-1.1477,-1.0259,-0.8661,-0.8461,-0.7437,-0.6222,-0.5754,-0.5909,-0.6141,-0.5476,-0.4846,-0.4295,-0.3908,-0.3127,0.0,0.0,0.0,-0.1058,0.0,0.0,0.0,0.0,0.0,0.0,0.0,0.0,0.0,0.0,0.0,0.0,0.0,0.0,0.0,0.0,0.0825,0.1725,0.3597,0.4027,0.0,0.0,0.0,0.7296,0.7484,0.7484,0.7484,0.7484,0.7484,0.7484,0.7484,0.7484,0.7522,0.7522,0.7723,0.7804,0.7842,0.803,0.8217,0.8403,0.8403,0.8513,0.8703,0.8703,0.8703,0.8546,0.7399,0.6976,0.6976,-2.6245,-2.6198,-2.6181,0.0,-2.5204,-2.4351,0.0,0.0,0.0,0.0,-2.372,-2.3619,-2.2798,-2.2615,-2.2541,-2.2541,-2.2424,0.0,0.0,0.0,0.0,-2.1499,-2.0469,-1.9902,-1.9902,-1.9499,-1.9301,-1.9301,0.0,0.0,-1.9301,-1.9301,-1.9262,-1.9231,0.0,0.0,-1.8612,-1.8442,-1.8108,-1.7572,-1.7129,-1.6378,0.0,0.0,-1.354,-1.2998,-1.2041,-1.1609,-1.1459,-1.1248,-1.0073,-0.8699,-0.8623,-0.7557,-0.6219,-0.5906,-0.5789,-0.5715,-0.5398,-0.4652,-0.3947,-0.383,-0.3127,-0.2309,0.0,0.0,0.0,0.0,0.0,0.0,0.0,0.0,0.0,0.0,0.0,0.0,0.0,0.0,0.0,0.055,0.0,0.0,0.0864,0.1607,0.2621,0.391,0.488,0.0,0.0,0.0,0.0,0.7484,0.7484,0.7484,0.7484,0.7484,0.7484,0.7484,0.7484,0.7565,0.7723,0.7765,0.7876,0.803,0.825,0.8365,0.8403,0.8551,0.8665,0.8703,0.8703,0.8703,0.8665,0.8356,0.8241,0.8241,-2.6499,0.0,0.0,-2.6499,0.0,0.0,-2.5016,0.0,0.0,-2.4,-2.4,0.0,-2.3058,-2.2995,-2.2995,-2.2995,-2.2995,0.0,-2.2995,0.0,0.0,-2.1794,-2.0586,-1.9902,-1.9902,-1.9499,0.0,-1.9301,0.0,0.0,-1.9301,0.0,0.0,0.0,0.0,-1.9002,0.0,-1.8347,-1.76,-1.6699,-1.6311,0.0,0.0,-1.3477,-1.2722,-1.2049,-1.1493,-1.1347,-1.1285,-1.1166,-1.0244,-0.9155,-0.8694,-0.7706,-0.656,-0.5941,-0.5673,-0.5482,-0.4929,-0.4066,-0.3246,-0.2817,-0.2035,-0.1293,-0.0824,-0.0745,-0.0588,0.0,0.0,0.0039,0.0,0.0,0.0,0.0,0.0,0.0,0.0,0.0,0.0,0.0,0.1335,0.0,0.11,0.235,0.3285,0.3521,0.4606,0.0,0.0,0.0,0.0,0.7484,0.7484,0.7484,0.7484,0.7484,0.7484,0.7484,0.7484,0.7603,0.7804,0.7876,0.803,0.8255,0.8441,0.8513,0.8551,0.8665,0.8703,0.8703,0.8703,0.8703,0.8742,0.9084,0.9003,0.8703,0.0,0.0,0.0,0.0,0.0,0.0,0.0,-2.598,0.0,-2.4671,0.0,-2.4011,-2.3353,-2.3279,-2.3279,-2.3279,0.0,-2.3279,-2.3279,-2.2472,-2.1983,-2.2059,-2.0779,-2.0089,-2.0206,-1.9696,-1.946,0.0,0.0,0.0,0.0,0.0,0.0,0.0,0.0,0.0,0.0,-1.7982,-1.6936,-1.5731,-1.4973,-1.405,-1.3006,-1.2113,-1.155,-1.1223,-1.1149,-1.1111,-1.1111,-1.1111,-1.0556,-0.9728,-0.8727,-0.7846,-0.6973,-0.5864,-0.5559,-0.5323,-0.4341,-0.3443,-0.2545,-0.1528,-0.0628,0.0,0.0,0.0,0.0,0.0,0.0039,0.0118,0.0,0.0,0.0,0.0,0.0,0.0,0.0,0.0,0.0,0.0,0.0,0.0,0.1453,0.2976,0.3677,0.0,0.0,0.0,0.0,0.0,0.0,0.748,0.7484,0.7484,0.7484,0.7484,0.7484,0.7484,0.7484,0.7603,0.7838,0.803,0.8217,0.8437,0.8627,0.8703,0.8703,0.8813,0.8927,0.9003,0.9003,0.9003,0.9117,0.9836,0.9647,0.9036,0.0,0.0,0.0,0.0,0.0,-2.6131,-2.598,-2.5793,-2.5571,-2.5418,-2.5194,-2.5052,-2.4898,-2.4909,-2.4909,-2.4909,-2.4909,0.0,0.0,0.0,0.0,-2.3511,-2.1907,-2.1193,-2.1718,-2.0769,-2.0304,0.0,0.0,0.0,0.0,0.0,0.0,0.0,0.0,0.0,-1.7716,-1.7275,0.0,-1.6255,-1.6107,-1.5353,-1.4227,-1.3426,-1.2707,-1.2003,-1.1335,-1.1111,-1.1111,-1.1111,-1.0556,-0.9728,-0.8727,-0.7846,-0.6973,-0.5705,-0.5359,-0.5124,-0.4144,-0.3207,-0.2348,-0.1528,-0.0628,0.0,0.0,0.0,0.0,0.0,0.0118,0.0471,0.1216,0.0,0.0,0.0,0.0,0.0,0.0,0.0,0.0,0.0,0.0,0.2818,0.0,0.0,0.0,0.0,0.0,0.0,0.0,0.0,0.0,0.0,0.7484,0.0,0.0,0.0,0.7484,0.7484,0.7484,0.7676,0.8068,0.8068,0.8289,0.8665,0.8703,0.8703,0.8742,0.9425,1.0062,1.0694,1.0694,1.0694,1.0732,1.1019,1.105,1.0864,0.0,0.0,0.0,0.0,0.0,0.0,0.0,-2.5571,0.0,-2.5453,-2.5347,-2.5312,-2.5312,-2.5312,-2.5312,-2.5312,-2.5312,-2.5312,-2.5312,-2.4131,-2.3585,-2.3888,-2.2059,-2.1165,-2.1461,-2.0421,-1.9779,-1.9572,0.0,0.0,0.0,0.0,0.0,0.0,0.0,-1.7657,0.0,0.0,0.0,-1.5416,-1.5053,-1.4296,-1.331,-1.2542,-1.1996,-1.1595,-1.1111,-1.0925,-1.0925,-1.0925,-1.04,-0.9566,-0.8575,-0.7579,-0.6623,-0.5589,-0.5243,-0.4854,-0.348,-0.2817,-0.219,-0.0941,-0.0314,0.0,0.0,0.0,0.0157,0.0706,0.0902,0.1254,0.219,0.2852,0.0,0.0,0.0,0.0,0.0,0.0,0.0,0.0,0.0,0.0,0.0,0.0,0.0,0.0,0.0,0.0,0.0,0.0,0.0,0.0,0.0,0.0,0.8727,0.0,0.8727,0.8727,0.8836,0.9069,0.9334,0.9448,0.9674,0.9943,0.9943,0.9943,0.9981,1.0363,1.0738,1.1111,1.1211,1.1248,1.1316,1.194,1.2198,1.2087,0.0,-2.6465,0.0,0.0,-2.598,0.0,-2.5606,-2.5418,-2.5312,-2.5312,-2.5312,-2.5312,-2.5312,-2.5312,-2.5312,-2.5312,-2.5312,-2.5312,-2.5312,-2.4432,-2.3877,-2.3804,-2.2096,-2.1086,-2.0958,-1.9936,-1.9234,0.0,0.0,0.0,0.0,0.0,0.0,0.0,0.0,0.0,0.0,0.0,-1.5757,-1.4565,-1.3962,-1.3273,-1.2482,-1.1669,-1.1372,-1.1298,-1.0925,-1.0812,-1.0775,-1.07,-1.0169,-0.9372,-0.8342,-0.731,-0.6349,-0.5473,-0.5132,-0.4623,-0.2973,-0.2503,-0.2113,-0.0432,0.0,0.0,0.0039,0.0079,0.0353,0.145,0.1997,0.2465,0.3125,0.3671,0.0,0.0,0.0,0.0,0.0,0.0,0.0,0.0,0.0,0.0,0.4181,0.0,0.0,0.0,0.0,0.0,0.0,0.0,0.0,0.0,0.0,0.9707,0.9707,0.0,1.0045,1.0045,1.019,1.0378,1.0565,1.0746,1.0907,1.1111,1.1111,1.1186,1.1372,1.1372,1.1446,1.1632,1.1835,1.1903,1.2013,1.2901,1.3237,1.312,0.0,0.0,0.0,0.0,0.0,0.0,-2.5606,-2.5418,-2.5312,-2.5312,-2.5312,-2.5312,-2.5312,-2.5312,-2.5312,-2.5312,-2.5312,-2.5312,-2.5312,-2.4432,-2.3804,-2.3562,-2.2537,-2.172,-2.1166,-2.0317,-1.9652,0.0,0.0,-1.8127,0.0,0.0,0.0,0.0,0.0,0.0,0.0,-1.5954,-1.538,-1.4601,-1.453,-1.4034,-1.3317,-1.2482,-1.2194,-1.2077,-1.1149,-1.0812,-1.0738,-1.0368,-0.983,-0.9145,-0.8143,-0.723,-0.6311,-0.5321,-0.5018,-0.4623,-0.2973,-0.2503,-0.2113,-0.0432,0.0,0.0039,0.0236,0.0275,0.0589,0.1647,0.3207,0.4258,0.383,0.5004,0.5747,0.0,0.0,0.0,0.0,0.0,0.0,0.0,0.0,0.0,0.0,0.5428,0.0,0.0,0.6496,0.0,0.0,0.0,0.0,0.8813,0.8998,0.9074,0.9074,1.0002,1.0453,1.0453,1.0447,1.0596,1.0783,1.0783,1.0907,1.1111,1.1111,1.1521,1.2194,1.2194,1.2636,1.3309,1.3492,1.3572,1.3637,1.4101,1.4245,1.4281,0.0,0.0,0.0,0.0,0.0,0.0,0.0,-2.5349,-2.4831,-2.4831,-2.5107,-2.5312,-2.5312,-2.5312,-2.5312,-2.5312,-2.5241,-2.4957,-2.4409,-2.364,-2.2895,-2.228,-2.1073,-2.0306,-2.0062,-1.9263,-1.8619,0.0,0.0,0.0,0.0,0.0,0.0,0.0,0.0,-1.6167,-1.6061,-1.5374,-1.4903,-1.453,-1.36,-1.3025,-1.2696,-1.1892,-1.1484,-1.1335,-1.0812,-1.0556,-1.0325,-0.9571,-0.8917,-0.83,-0.7804,-0.67,-0.5512,-0.5132,-0.4659,-0.4029,-0.2817,-0.2152,-0.1488,-0.0314,0.0,0.0039,0.0118,0.0628,0.1372,0.2425,0.4258,0.5592,0.5356,0.5867,0.618,0.5828,0.0,0.0,0.0,0.0,0.0,0.0,0.0,0.0,0.0,0.0,0.0,0.0,0.0,0.0,0.0,0.0,0.0,0.941,0.0,1.1062,1.047,1.1434,1.1953,1.1953,1.2063,1.2181,1.2254,1.2365,1.2445,1.2526,1.2526,1.2709,1.301,1.301,1.3273,1.3717,1.3891,1.4036,1.4181,1.4425,1.4533,1.4533,-2.7881,0.0,-2.7538,0.0,-2.6679,-2.6059,-2.5937,-2.4973,-2.4302,-2.4302,-2.4626,-2.4855,-2.4855,-2.482,-2.4785,-2.4785,-2.4658,-2.4296,-2.3695,-2.3127,-2.2324,-2.1229,-2.0195,0.0,-1.8774,-1.821,-1.7734,-1.7321,-1.7321,0.0,0.0,0.0,0.0,0.0,-1.6132,-1.5956,-1.5621,-1.4895,-1.435,-1.3818,-1.2732,-1.2114,-1.1781,-1.1223,-1.0887,-1.07,-1.0481,-1.018,-0.9722,-0.8965,-0.808,-0.7306,-0.7157,-0.6128,-0.5018,-0.5018,-0.4423,-0.3597,-0.2737,-0.1918,-0.1097,-0.0235,0.0,0.0039,0.0157,0.0941,0.2075,0.3398,0.5079,0.63,0.63,0.63,0.63,0.63,0.0,0.0,0.0,0.6374,0.0,0.0,0.6795,0.6945,0.7399,0.7437,0.0,0.0,0.0,0.0,0.0,0.0,0.0,0.0,0.0,0.0,1.1583,1.2562,1.3083,1.3083,1.3229,1.3309,1.3309,1.3455,1.3492,1.3492,1.3492,1.3492,1.3492,1.3572,1.3681,1.3826,1.4101,1.4281,1.4425,1.4569,1.4748,1.4955,-2.6421,-2.6158,-2.5923,-2.5923,-2.5262,-2.473,-2.473,-2.4189,-2.3806,-2.3806,-2.3818,-2.3818,-2.3818,-2.364,-2.3506,-2.3506,-2.3384,-2.3329,-2.3295,-2.3115,-2.232,0.0,0.0,-1.9499,-1.754,-1.7504,-1.7312,-1.6908,0.0,0.0,-1.6603,0.0,-1.6237,-1.6096,-1.6096,-1.5551,-1.4601,-1.4601,-1.3702,-1.2342,-1.2305,-1.1706,-1.0812,-1.0812,-1.0663,-1.0481,-1.0293,-0.9685,-0.8965,-0.8775,-0.7587,-0.6202,-0.6202,-0.567,-0.5018,-0.5018,-0.4423,-0.3597,-0.2737,-0.1918,-0.1097,-0.0235,0.0,0.0118,0.051,0.1256,0.2466,0.4535,0.567,0.63,0.63,0.63,0.63,0.63,0.0,0.0,0.0,0.0,0.0,0.7146,0.7184,0.7603,0.8589,0.8661,0.0,0.0,0.0,0.0,0.0,0.0,0.0,1.1669,1.1872,0.0,1.2007,1.3003,1.3492,1.3492,1.3492,1.3492,1.3492,1.3492,1.3492,1.3492,1.3492,1.3492,1.3528,1.3717,1.3797,1.3826,1.4253,1.4389,1.4425,1.4569,1.5098,1.5798,-2.7822,-2.7559,-2.7205,-2.6785,-2.6021,-2.53,-2.4841,-2.3924,-2.3264,-2.3264,-2.2951,-2.2702,-2.2702,-2.3295,-2.3661,0.0,-2.3349,-2.2933,0.0,-2.1324,-2.035,-1.9314,-1.8465,-1.7729,-1.7092,-1.7092,-1.7037,-1.6908,0.0,0.0,0.0,-1.6202,-1.5771,-1.5108,-1.5638,-1.5417,-1.4565,-1.4063,-1.3564,-1.3025,-1.1922,-1.1298,-1.0999,-1.085,-1.0663,-1.0481,-1.0255,-0.9609,-0.8699,-0.808,-0.7122,-0.6086,-0.5553,-0.521,-0.4898,-0.4343,-0.3599,-0.2737,-0.1918,-0.1058,-0.0314,0.0118,0.0196,0.0432,0.1294,0.2701,0.4219,0.5592,0.6103,0.63,0.63,0.63,0.63,0.63,0.6412,0.0,0.6602,0.0,0.7702,0.797,0.8504,0.9031,0.9485,0.9523,0.0,0.0,0.0,0.0,0.0,0.0,0.0,0.0,1.2285,0.0,1.2013,1.2996,1.3492,1.3492,1.3492,1.3492,1.3492,1.3492,1.3492,1.3492,1.3492,1.3572,1.3717,1.3754,1.4245,1.4974,1.5081,1.5542,1.6097,1.6132,1.6341,1.6559,-2.7623,-2.7385,-2.7017,-2.6426,-2.5631,-2.4892,-2.4261,-2.3334,-2.271,-2.271,-2.2402,-2.2154,-2.2092,-2.2679,0.0,-2.2847,-2.2606,-2.2055,-2.1161,-2.0338,-1.9468,-1.8414,-1.7678,-1.7166,-1.6908,-1.6908,0.0,-1.6908,-1.6621,-1.6333,-1.6096,-1.6035,-1.5638,-1.5054,-1.5275,-1.4911,-1.4142,-1.339,-1.2879,-1.2505,-1.1515,-1.1037,-1.0962,-1.0775,-1.055,-1.0331,-0.9798,-0.9036,-0.8122,-0.7272,-0.6433,-0.5667,-0.5171,-0.474,-0.4304,-0.391,-0.3127,-0.219,-0.137,-0.0471,0.0275,0.0393,0.0667,0.1255,0.2621,0.3908,0.5079,0.6103,0.63,0.63,0.63,0.6377,0.6528,0.6834,0.7019,0.7284,0.7663,0.0,0.8723,0.0,0.0,0.0,0.0,1.0421,1.0571,0.0,0.0,0.0,0.0,0.0,0.0,1.1613,1.2856,1.3193,1.2579,1.3185,1.3492,1.3492,1.3492,1.3492,1.3492,1.3572,1.3746,1.4029,1.4101,1.4382,1.474,1.4804,1.5286,1.5913,1.5991,1.6376,1.6897,1.6897,1.707,1.731,-2.6111,-2.5975,-2.5702,0.0,-2.4423,-2.3787,-2.3148,-2.2561,-2.2197,-2.2197,-2.2197,-2.2092,-2.1937,-2.1894,-2.1812,-2.1698,0.0,0.0,-2.0226,-2.0063,-1.9431,-1.8138,-1.7969,-1.7604,-1.6908,-1.6908,-1.6874,-1.6874,-1.6482,-1.6202,-1.6061,-1.5823,-1.5691,-1.562,-1.4867,-1.4106,-1.3353,-1.2629,-1.1855,-1.1149,-1.1111,-1.0962,-1.0775,-1.055,-1.0325,-0.9986,-0.9041,-0.8161,-0.7272,-0.6472,-0.5667,-0.5018,-0.5018,-0.4265,-0.3476,-0.3636,-0.2932,-0.1917,-0.1018,-0.0118,0.0589,0.0628,0.1333,0.2506,0.4297,0.4924,0.5318,0.6141,0.63,0.6338,0.6374,0.6563,0.6984,0.7783,0.8084,0.8537,0.9485,0.9669,0.9782,0.0,0.0,0.0,1.1143,1.1372,1.1781,0.0,0.0,0.0,0.0,0.0,1.2445,1.3455,1.3492,1.3492,1.3492,1.3492,1.3535,1.3564,1.3564,1.3601,1.3674,1.3863,1.431,1.501,1.5196,1.5683,1.6341,1.6532,1.6636,1.6706,1.6888,1.7001,1.7035,1.7035,1.7482,1.807,0.0,0.0,-2.555,-2.4439,-2.4121,-2.3653,-2.2592,-2.2278,-2.2197,-2.2197,-2.2061,-2.1956,-2.1906,-2.1663,-2.1494,-2.1463,-2.14,-2.1242,-2.0955,-1.9901,-1.911,-1.8777,-1.774,-1.7072,-1.6908,-1.6908,-1.6735,-1.6447,-1.6237,-1.6035,-1.5867,-1.5196,-1.4581,-1.4042,-1.3854,-1.3317,-1.2556,-1.2378,-1.2114,-1.1744,-1.1111,-1.0738,-1.055,-1.0368,-0.9873,-0.9226,-0.8851,-0.7736,-0.6472,-0.6279,-0.5667,-0.5018,-0.5018,-0.4423,-0.3556,-0.2815,-0.1838,-0.0783,0.0039,0.0432,0.0628,0.0786,0.2116,0.3636,0.4688,0.5473,0.6064,0.6261,0.6412,0.6718,0.7326,0.7591,0.8008,0.8808,0.9107,0.9329,0.9556,1.0276,1.0769,0.0,1.1366,1.1885,1.2224,1.2298,1.2452,0.0,0.0,0.0,1.4021,1.4394,1.425,1.3528,1.3492,1.3492,1.3492,1.3492,1.3775,1.4322,1.4322,1.4708,1.5411,1.5455,1.5666,1.5983,1.6026,1.6228,1.6532,1.6567,1.7017,1.7687,1.7721,1.807,1.8586,1.8586,1.8687,1.8921,-2.5674,-2.5536,-2.509,-2.3816,-2.3581,-2.3267,-2.2328,-2.2123,-2.2061,-2.2061,-2.1906,-2.1769,-2.1694,-2.1526,-2.123,-2.0848,-2.1103,-2.0976,-2.0237,-1.9441,-1.871,-1.808,-1.7314,-1.6908,-1.6908,-1.6795,-1.6586,-1.6202,-1.6132,-1.5815,-1.524,-1.4788,-1.4214,-1.3499,-1.3135,-1.2666,-1.215,-1.1781,-1.1484,-1.1298,-1.085,-1.0594,-1.0443,-0.9873,-0.9377,-0.8884,-0.7893,-0.6973,-0.6125,-0.5783,-0.5362,-0.4937,-0.4582,-0.3754,-0.2735,-0.176,-0.1057,-0.0392,0.051,0.0825,0.1139,0.1998,0.3287,0.4574,0.5395,0.6022,0.6451,0.6451,0.6602,0.698,0.7778,0.8118,0.8609,0.9777,1.0158,1.0426,1.0795,1.1292,1.1669,1.1781,1.215,1.2636,1.3178,1.3324,1.3579,1.4042,1.4537,0.0,1.4939,1.5357,1.5251,1.4517,1.4517,1.4517,1.4517,1.4517,1.4724,1.51,1.5199,1.5517,1.6009,1.6175,1.6532,1.6941,1.7035,1.7335,1.7745,1.7745,1.8027,1.8519,1.8586,1.8831,1.9241,1.9561,1.9748,1.9868,-2.5258,-2.5061,-2.4637,-2.3446,-2.3148,-2.2889,-2.2278,-2.203,-2.1894,-2.1894,-2.1749,-2.1592,-2.142,-2.1388,-2.1071,-2.0334,-2.0732,-2.0463,-1.9077,-1.8911,-1.8307,-1.7107,-1.6934,-1.6839,-1.6839,-1.6647,-1.6333,-1.5921,-1.5885,-1.5365,-1.4422,-1.4279,-1.3882,-1.3244,-1.2402,-1.1929,-1.1744,-1.1037,-1.0625,-1.0443,-1.0443,-1.0363,-1.0137,-0.9268,-0.8808,-0.8389,-0.6777,-0.6125,-0.5896,-0.5207,-0.4859,-0.4621,-0.391,-0.2774,-0.1564,-0.0783,-0.0392,0.0,0.0903,0.1413,0.204,0.3599,0.4533,0.5276,0.6141,0.6486,0.6637,0.6637,0.6903,0.7357,0.8194,0.8571,0.9286,1.0783,1.1174,1.1558,1.2409,0.0,1.2629,1.2952,1.2996,1.3317,1.415,1.4366,1.476,1.5463,1.5745,1.5886,1.5886,1.5991,1.6062,1.6062,1.5816,1.571,1.571,1.571,1.5781,1.5913,1.6079,1.6254,1.6419,1.6775,1.7301,1.791,1.807,1.8519,1.9108,1.9108,1.9098,1.9142,1.9374,1.9473,1.9561,2.0302,2.0634,2.0846,-2.5811,-2.5342,-2.4765,-2.4005,-2.3433,-2.2889,-2.2278,-2.203,-2.1894,-2.1894,-2.1632,-2.1431,-2.1388,-2.1305,-2.119,-2.1031,-2.056,-1.9901,-1.9077,-1.8476,-1.807,-1.7833,-1.7088,-1.6638,-1.6638,-1.6333,-1.5806,-1.5081,-1.4931,-1.4422,-1.3637,-1.2799,-1.2328,-1.2187,-1.1223,-1.0775,-1.07,-1.0594,-1.0438,-1.0255,-1.0255,-0.9722,-0.8965,-0.8813,-0.7855,-0.6588,-0.6318,-0.5744,-0.5132,-0.4857,-0.4265,-0.3597,-0.3287,-0.2113,-0.0744,-0.0431,0.0666,0.1842,0.2157,0.282,0.3638,0.4574,0.5038,0.5464,0.6367,0.6714,0.6865,0.6865,0.7548,0.8418,0.9216,1.0088,1.0993,1.1922,1.2077,1.2445,1.3346,0.0,1.381,1.47,1.4807,1.4914,1.5251,1.5286,1.5428,1.564,1.6306,1.6724,1.6724,1.7295,1.7657,1.7657,1.6385,1.571,1.571,1.571,1.6097,1.6862,1.6897,1.7413,1.8351,1.8418,1.863,1.8898,1.8931,1.8998,1.9108,1.9108,1.9175,1.9341,1.9933,2.0236,2.0473,2.1175,2.1428,2.1635,-2.4553,-2.4179,-2.3783,-2.3143,-2.2793,-2.2531,-2.2247,-2.203,-2.1874,-2.1812,-2.1569,-2.1368,-2.1305,-2.0892,-2.0463,-2.0063,-1.9365,-1.8667,-1.791,-1.7935,-1.7833,-1.7407,-1.6881,-1.6324,-1.5719,-1.5551,-1.501,-1.4142,-1.4034,-1.36,-1.2842,-1.2372,-1.1855,-1.1335,-1.085,-1.0556,-1.0331,-1.0331,-0.9992,-0.9387,-0.9387,-0.8846,-0.8003,-0.7548,-0.6857,-0.6125,-0.5586,-0.5165,-0.474,-0.4073,-0.3561,-0.3051,-0.2074,-0.1135,-0.0235,0.0744,0.1685,0.2469,0.3054,0.3908,0.4686,0.5076,0.5657,0.6279,0.6672,0.7246,0.7698,0.7698,0.8494,0.9437,1.0276,1.0807,1.1515,1.2732,1.3025,1.3346,1.4214,1.4422,1.47,1.5278,1.5349,1.5596,1.6202,1.6263,1.6446,1.6906,1.726,1.751,1.751,1.7828,1.8008,1.8008,1.7398,1.7113,1.7113,1.7182,1.7432,1.7852,1.7944,1.8293,1.8808,1.8908,1.9008,1.9108,1.9108,1.9297,1.9649,1.9704,2.0031,2.0495,2.0985,2.1393,2.1813,2.2469,2.3012,2.3504,-2.3492,-2.3207,-2.295,-2.2451,-2.2247,-2.2135,-2.2104,-2.1894,-2.1706,-2.1434,-2.121,-2.1008,-2.0732,-2.0172,-1.9606,-1.9044,-1.8408,-1.774,-1.7141,-1.7467,-1.7432,-1.6864,-1.6429,-1.5675,-1.4617,-1.4573,-1.4142,-1.3208,-1.3208,-1.2806,-1.2003,-1.1929,-1.1484,-1.0738,-1.0625,-1.0325,-0.9836,-0.9836,-0.9306,-0.8432,-0.8432,-0.7927,-0.7119,-0.6391,-0.6009,-0.5741,-0.4929,-0.4504,-0.419,-0.3327,-0.2779,-0.2231,-0.0901,-0.0196,0.0431,0.192,0.2741,0.3366,0.4025,0.4919,0.5732,0.5886,0.6619,0.728,0.7472,0.8156,0.8761,0.8761,0.9518,1.0389,1.1037,1.1477,1.2137,1.3419,0.0,1.435,1.5171,1.5411,1.5658,1.6026,1.6062,1.6341,1.7079,1.7148,1.7398,1.7974,1.8008,1.8008,1.8076,1.8076,1.8076,1.811,1.8245,1.8303,1.8347,1.8448,1.8516,1.8583,1.8875,1.8975,1.8875,1.9363,1.9485,1.933,1.9485,1.9879,2.042,2.0643,2.1109,2.176,2.2292,2.2802,2.3301,2.3958,2.4587,2.519,-2.3962,-2.3463,-2.3058,-2.2889,-2.2334,-2.1874,-2.1761,-2.158,-2.1198,-2.0592,-2.0323,-1.9933,-1.9243,-1.911,-1.9077,-1.9011,-1.8408,-1.7901,-1.7672,-1.7054,-1.6673,-1.6603,-1.5613,-1.4573,-1.3608,-1.3608,-1.3208,-1.2372,-1.2372,-1.1966,-1.1186,-1.0812,-1.0588,-1.0519,-1.0143,-0.9539,-0.8813,-0.8813,-0.8351,-0.7579,-0.7579,-0.708,-0.6279,-0.6002,-0.5467,-0.4776,-0.4501,-0.3915,-0.3171,-0.2896,-0.18,-0.047,-0.0157,0.0666,0.1649,0.2506,0.3986,0.5389,0.5467,0.6125,0.6976,0.7698,0.8075,0.8494,0.9216,0.9593,0.9782,0.9782,1.0426,1.1074,1.1335,1.2542,1.36,1.3897,0.0,0.0,1.6349,1.6498,1.6819,1.7725,1.7837,1.7828,1.7906,1.7906,1.794,1.8008,1.8008,1.8076,1.8269,1.8269,1.8337,1.8448,1.8371,1.8371,1.8482,1.8516,1.8583,1.8774,1.9419,1.9485,1.9131,2.0387,2.0613,2.0074,2.0677,2.1092,2.1345,2.1856,2.228,2.2735,2.3932,2.4547,2.4799,2.5425,2.5673,2.581,-2.2962,-2.2702,-2.25,-2.2304,-2.208,-2.1694,-2.1103,-2.0965,-2.0634,-1.9824,-1.9639,-1.9441,-1.9044,-1.8633,-1.8365,-1.8365,-1.7628,-1.7088,-1.7019,-1.6647,-1.6368,-1.6298,-1.4931,-1.3962,-1.3499,-1.3025,-1.2291,-1.1372,-1.1372,-1.1149,-1.07,-1.0056,-0.9679,-0.9528,-0.8874,-0.8342,-0.7965,-0.7965,-0.7387,-0.65,-0.65,-0.5925,-0.5082,-0.5002,-0.4771,-0.4423,-0.3679,-0.3209,-0.274,-0.1487,-0.0626,0.0,0.0628,0.1529,0.2663,0.4256,0.5619,0.671,0.7357,0.7659,0.8037,0.8836,0.9178,0.9399,0.9707,1.0233,1.0795,1.1397,1.2148,1.2938,1.3614,1.4227,1.4807,1.5349,0.0,1.6358,1.7173,1.7389,1.7613,1.7974,1.8008,1.8008,1.8008,1.8008,1.8042,1.8178,1.8178,1.8245,1.8414,1.8854,1.9365,1.9911,1.9868,1.9497,1.8674,1.922,1.9518,1.9616,2.0291,2.0516,2.0355,2.0869,2.1028,2.0933,2.1538,2.2133,2.2754,2.3407,2.4003,2.4558,2.5107,2.5631,2.6026,2.6283,2.6575,2.6993,-2.2278,-2.2197,-2.2061,-2.1557,-2.1494,-2.1198,-2.0236,-2.0107,-1.9814,-1.9,-1.89,-1.8734,-1.8375,-1.7935,-1.7638,-1.756,-1.6985,-1.6464,-1.607,-1.5428,-1.5117,-1.5338,-1.3998,-1.3091,-1.2762,-1.2144,-1.1484,-1.0812,-1.047,-1.0244,-1.0099,-0.9216,-0.8761,-0.8613,-0.7995,-0.746,-0.7,-0.7,-0.6384,-0.5422,-0.5422,-0.5002,-0.4343,-0.4029,-0.3912,-0.3756,-0.2701,-0.2152,-0.1721,-0.0431,0.0352,0.0901,0.1568,0.2701,0.4062,0.5574,0.678,0.7868,0.8813,0.9145,0.9367,0.9938,1.0164,1.0346,1.0683,1.1354,1.2131,1.2837,1.3607,1.4386,1.5171,1.5482,1.5834,1.6411,1.6793,1.7207,1.7716,1.7896,1.8008,1.8008,1.8008,1.811,1.8371,1.8395,1.8596,1.8977,1.9011,1.9077,1.921,1.9759,2.0333,2.0867,2.1098,2.0749,1.9803,2.0215,2.042,2.042,2.129,2.1604,2.1404,2.2077,2.2341,2.2268,2.2927,2.3579,2.4215,2.4912,2.5494,2.5973,2.6256,2.6718,2.7185,2.7185,2.758,2.8116,-2.2197,-2.2197,-2.1851,-2.0794,-2.059,-2.0236,-1.9166,-1.9011,-1.8744,-1.807,-1.8003,-1.7696,-1.6968,-1.6908,-1.6795,-1.6603,-1.6568,-1.6105,-1.4974,-1.3273,-1.2696,-1.3637,-1.2806,-1.1929,-1.1149,-1.0887,-1.0775,-1.0775,-0.9787,-0.9296,-0.9258,-0.8262,-0.78,-0.7761,-0.7574,-0.6884,-0.5883,-0.5883,-0.5309,-0.4384,-0.4384,-0.4384,-0.4265,-0.3209,-0.2779,-0.2662,-0.1645,-0.0744,0.0,0.0,0.1136,0.2549,0.274,0.4254,0.5925,0.6163,0.7395,0.8889,0.9707,1.0501,1.1111,1.1111,1.1111,1.1372,1.2378,1.3171,1.3745,1.397,1.4673,1.5269,1.549,1.6114,1.6671,1.6862,1.751,1.8008,1.8008,1.8008,1.8008,1.8008,1.8008,1.8361,1.921,1.9309,1.965,2.0526,2.0623,2.0675,2.0812,2.1005,2.1123,2.1123,2.1713,2.2017,2.2017,2.1436,2.1123,2.1123,2.2415,2.2664,2.2109,2.4229,2.4798,2.4165,2.5037,2.5481,2.5646,2.6256,2.659,2.6774,2.7382,2.7894,2.8328,2.8328,2.8638,2.912,-2.1855,-2.1855,-2.1718,-2.123,-2.0773,-2.0128,-1.9144,-1.861,-1.8037,-1.7304,-1.7123,-1.6941,-1.6716,-1.6079,-1.57,-1.5621,-1.4966,-1.4386,-1.397,-1.2915,-1.2181,-1.1896,-1.162,-1.1595,-1.1929,-1.0651,-0.99,-0.975,-0.8756,-0.8185,-0.7999,-0.7119,-0.6657,-0.6661,-0.6012,-0.555,-0.5243,-0.5124,-0.4813,-0.4384,-0.4231,-0.3724,-0.3018,-0.2704,-0.2233,-0.1644,-0.0705,-0.0117,0.0392,0.1565,0.2388,0.3171,0.4525,0.5416,0.6153,0.7544,0.8318,0.9041,1.0539,1.1143,1.1446,1.2003,1.215,1.2409,1.3353,1.3753,1.4279,1.5552,1.6,1.6393,1.7123,1.7432,1.7613,1.7647,1.7872,1.8008,1.8008,1.8529,1.8754,1.8269,1.9177,1.9759,1.9529,1.9944,2.0354,2.0696,2.1275,2.1794,2.2311,2.2802,2.331,2.382,2.4011,2.4097,2.4097,2.3416,2.3059,2.3089,2.3981,2.4341,2.4271,2.4909,2.5176,2.5204,2.5877,2.6256,2.6431,2.7008,2.7479,2.7839,2.8012,2.84,2.8865,2.8865,2.8996,2.9232,-2.1698,-2.1466,-2.1115,-2.0645,-1.9977,-1.9222,-1.8307,-1.7842,-1.7407,-1.6968,-1.6542,-1.6254,-1.6175,-1.5357,-1.4796,-1.4617,-1.3716,-1.2938,-1.2441,-1.1681,-1.0832,-0.9959,-0.9927,-1.0196,-1.0752,-0.9545,-0.8832,-0.8723,-0.7689,-0.7119,-0.6965,-0.6125,-0.5705,-0.5705,-0.5129,-0.482,-0.474,-0.4545,-0.4153,-0.3641,-0.3528,-0.2901,-0.1999,-0.1646,-0.1175,-0.0509,0.0665,0.1252,0.1604,0.2971,0.3791,0.4453,0.5967,0.67,0.7234,0.8466,0.9263,1.0019,1.1186,1.1744,1.2187,1.3069,1.3215,1.3324,1.397,1.4601,1.534,1.6498,1.6957,1.732,1.7896,1.8008,1.8042,1.811,1.8337,1.8529,1.862,1.9299,1.9661,1.9276,2.0042,2.0675,2.0833,2.1244,2.1744,2.2396,2.291,2.3369,2.3761,2.4155,2.4528,2.4979,2.5245,2.537,2.537,2.519,2.4883,2.4429,2.512,2.5508,2.5646,2.5933,2.6149,2.6336,2.6953,2.7261,2.7363,2.7953,2.8367,2.8614,2.8614,2.8966,2.9461,2.9461,2.9645,2.9957,-2.1466,-2.0912,-2.0204,-1.9398,-1.868,-1.7872,-1.7028,-1.683,-1.676,-1.6691,-1.6079,-1.5542,-1.5357,-1.4593,-1.3991,-1.3564,-1.2622,-1.165,-1.0722,-0.9922,-0.9026,-0.8046,-0.7965,-0.8003,-0.8114,-0.7838,-0.7685,-0.7685,-0.6623,-0.6089,-0.6047,-0.5321,-0.4976,-0.4937,-0.4662,-0.4465,-0.4265,-0.3997,-0.3333,-0.2392,-0.2313,-0.1763,-0.094,-0.0078,0.0431,0.0861,0.2386,0.3091,0.3404,0.4373,0.5378,0.6423,0.7211,0.8093,0.8927,0.915,1.0314,1.1589,1.1848,1.2519,1.3324,1.4194,1.433,1.4294,1.4482,1.5631,1.6715,1.6932,1.7579,1.8076,1.8076,1.8134,1.8269,1.8462,1.9021,1.9464,1.9661,2.0268,2.0719,2.0707,2.0835,2.1444,2.2772,2.2952,2.3559,2.4894,2.5063,2.5091,2.5091,2.5161,2.5189,2.5189,2.5756,2.6069,2.6069,2.6791,2.6551,2.5384,2.5973,2.6322,2.6496,2.7203,2.7539,2.759,2.8125,2.836,2.8408,2.8912,2.912,2.9166,2.9166,2.955,3.007,3.0118,3.0472,3.1035,-1.9606,-1.9464,-1.9299,-1.91,-1.8499,-1.7779,-1.6964,-1.6376,-1.5754,-1.4958,-1.4573,-1.4322,-1.4106,-1.3273,-1.2622,-1.2402,-1.0907,-0.9857,-0.9626,-0.8874,-0.8042,-0.7207,-0.6969,-0.658,-0.5973,-0.6503,-0.6769,-0.6769,-0.5741,-0.5165,-0.501,-0.4857,-0.4698,-0.4501,-0.3759,-0.3405,-0.3327,-0.2507,-0.1998,-0.1724,-0.09,0.0078,0.1055,0.1872,0.273,0.3552,0.3904,0.4178,0.4608,0.6265,0.7905,0.9314,0.9475,0.9814,1.0233,1.0913,1.1786,1.2691,1.3528,1.4322,1.5002,1.5321,1.5851,1.6263,1.6341,1.6585,1.7001,1.7613,1.8327,1.8777,1.8777,1.9332,1.9814,1.9846,2.0107,2.0333,2.0365,2.1112,2.1573,2.1471,2.2585,2.345,2.3651,2.4171,2.4654,2.4979,2.5536,2.5864,2.5864,2.6312,2.658,2.658,2.7056,2.7308,2.7308,2.7972,2.7755,2.6606,2.721,2.7575,2.774,2.8295,2.8622,2.8724,2.8865,2.8935,2.8935,2.9051,2.9325,2.9661,2.9772,3.0113,3.0593,3.0951,3.1261,3.1526,-1.9011,-1.8734,-1.8509,-1.8509,-1.7857,-1.7173,-1.6775,-1.6315,-1.5727,-1.4824,-1.4294,-1.3781,-1.323,-1.2395,-1.1589,-1.0913,-0.99,-0.8912,-0.8033,-0.7574,-0.693,-0.6018,-0.5503,-0.4955,-0.4416,-0.4448,-0.4833,-0.5661,-0.5126,-0.4545,-0.3954,-0.3954,-0.3679,-0.3168,-0.2623,-0.239,-0.231,-0.1173,-0.0469,0.0,0.1053,0.2066,0.2966,0.3392,0.3977,0.4606,0.4993,0.5803,0.6957,0.8443,0.9545,1.034,1.034,1.0926,1.1692,1.2228,1.3165,1.4219,1.4816,1.5286,1.571,1.6167,1.6844,1.7282,1.6966,1.7413,1.8027,1.8519,1.9144,1.965,1.9759,2.0139,2.0547,2.0896,2.1358,2.1763,2.2109,2.2875,2.3335,2.3297,2.4024,2.461,2.4825,2.5522,2.5947,2.5947,2.6587,2.6964,2.6964,2.7504,2.7795,2.7795,2.8061,2.8192,2.8192,2.8591,2.8503,2.791,2.8222,2.8448,2.8583,2.8881,2.9028,2.9097,2.9325,2.9438,2.9483,2.9957,3.0297,3.0543,3.0834,3.1111,3.1397,3.1642,3.1915,3.2214,-1.8643,-1.8206,-1.7765,-1.7662,-1.6975,-1.6359,-1.607,-1.5868,-1.548,-1.4653,-1.3962,-1.3237,-1.2425,-1.1545,-1.0614,-0.9599,-0.9069,-0.8033,-0.6346,-0.6115,-0.5619,-0.4623,-0.3951,-0.3439,-0.3203,-0.254,-0.2854,-0.4229,-0.4229,-0.3756,-0.2859,-0.2859,-0.2386,-0.1523,-0.1213,-0.0939,-0.0704,0.0507,0.1403,0.2148,0.3117,0.3975,0.4681,0.4838,0.511,0.5535,0.6192,0.7723,0.9599,1.0415,1.0826,1.0975,1.1118,1.2061,1.3157,1.344,1.4577,1.5745,1.5877,1.5991,1.6271,1.6966,1.7624,1.8012,1.7463,1.8321,1.9266,1.9431,2.0042,2.0611,2.0855,2.1046,2.1381,2.2097,2.2747,2.3399,2.4,2.4599,2.5049,2.5133,2.5273,2.5577,2.6163,2.6777,2.7181,2.7284,2.7795,2.807,2.807,2.8496,2.8732,2.8732,2.8826,2.885,2.885,2.9074,2.9182,2.9166,2.928,2.9264,2.9212,2.9325,2.9371,2.9393,2.9865,3.0081,3.0145,3.1047,3.1413,3.1451,3.186,3.2056,3.2109,3.2179,3.2501,3.2908,-1.721,-1.7107,-1.6864,-1.6219,-1.6009,-1.5401,-1.3882,-1.3629,-1.3193,-1.2063,-1.1811,-1.1626,-1.1329,-1.0276,-0.9448,-0.9112,-0.7579,-0.6234,-0.5262,-0.4567,-0.375,-0.2895,-0.2738,-0.2581,-0.2384,-0.2268,-0.2228,-0.2267,-0.2267,-0.2112,-0.1803,-0.1803,-0.1173,0.0039,0.082,0.1639,0.2531,0.3468,0.3902,0.4098,0.4916,0.5422,0.5767,0.6553,0.7476,0.8423,0.8537,0.9782,1.1366,1.1477,1.2114,1.2966,1.3571,1.4063,1.4486,1.5163,1.6018,1.6724,1.6724,1.7192,1.7759,1.8032,1.861,1.9123,1.9222,1.9716,2.0139,2.0171,2.0846,2.1592,2.2121,2.2845,2.3568,2.42,2.4513,2.4739,2.4824,2.4951,2.5189,2.5715,2.634,2.6919,2.7424,2.765,2.7963,2.8424,2.8654,2.8748,2.8748,2.8834,2.8881,2.8881,2.9264,2.9473,2.9473,3.0011,3.0279,3.03,3.0764,3.0543,2.9728,3.0241,3.0489,3.051,3.0988,3.1169,3.1208,3.1696,3.1914,3.1932,3.2039,3.2092,3.2144,3.255,3.2972,3.3334,-1.676,-1.6394,-1.5974,-1.5551,-1.501,-1.4358,-1.36,-1.331,-1.2835,-1.1855,-1.1242,-1.0677,-1.0164,-0.8666,-0.7516,-0.6984,-0.5642,-0.4445,-0.3669,-0.3164,-0.2737,-0.2347,-0.176,-0.133,-0.1135,-0.0235,0.0352,0.0548,-0.0978,-0.1134,0.0,0.0,0.0859,0.2457,0.2812,0.3318,0.39,0.4833,0.5226,0.5342,0.6395,0.7165,0.7693,0.8199,0.8993,0.9895,1.049,1.1199,1.202,1.2974,1.36,1.4114,1.4859,1.5455,1.6009,1.6722,1.7546,1.8311,1.8703,1.9112,1.9464,1.9562,2.0074,2.0623,2.0687,2.1518,2.2157,2.1763,2.2311,2.3062,2.3764,2.4211,2.4667,2.5259,2.5439,2.5619,2.5961,2.619,2.6561,2.717,2.7655,2.8027,2.824,2.8376,2.8559,2.8795,2.9189,2.9393,2.9393,2.9639,2.9788,2.9788,2.9989,3.0182,3.0393,3.0654,3.0918,3.1181,3.1413,3.1203,3.0662,3.1184,3.1414,3.1433,3.1658,3.1733,3.177,3.2196,3.2385,3.2419,3.2716,3.289,3.3011,3.3229,3.348,3.3739]}]]